[[{"header":{"parameterUnit":"m.s-1","parameterCategory":1,"la1":31.0,"la2":29.5877,"lo1":-88.7671,"lo2":-86.6584,"dy":0.0162,"dx":0.0185,"nx":115,"ny":88,"refTime":"2023-08-14T06:00:00:Z","depth":0,"parameterNumber":2,"parameterNumberName":"U-component_of_WINDS"},"data":[0.0,0.0,0.0,0.0,0.0,0.0,0.0,0.0,0.0,0.0,0.0,0.0,0.0,0.0,0.0,0.0,0.0,0.0,0.0,0.0,0.0,0.0,0.0,0.0,0.0,0.0,0.0,0.0,0.0,0.0,0.0,0.0,0.0,0.0,0.0,0.0,0.0,0.0,0.0,0.0,0.0,0.0,0.0,0.0,0.0,0.0,0.0,0.0,0.0,0.0,0.0,0.0,0.0,0.0,0.0,0.0,0.0,0.0,0.0,0.0,0.0,0.0,0.0,0.0,0.0,0.0,0.0,0.0,0.0,0.0,0.0,0.0,0.0,0.0,0.0,0.0,0.0,0.0,0.0,0.0,0.0,0.0,0.0,0.0,0.0,0.0,0.0,0.0,0.0,0.0,0.0,0.0,0.0,0.0,0.0,0.0,0.0,0.0,0.0,0.0,0.0,0.0,0.0,0.0,0.0,0.0,0.0,0.0,0.0,0.0,0.0,0.0,0.0,0.0,0.0,0.0,0.0,0.0,0.0,0.0,0.0,0.0,0.0,0.0,0.0,0.0,0.0,0.0,0.0,0.0,0.0,0.0,0.0,0.0,0.0,0.0,0.0,0.0,0.0,0.0,0.0,0.0,0.0,0.0,0.0,0.0,0.0,0.0,0.0,0.0,0.0,0.0,0.0,0.0,0.0,0.0,0.0,0.0,0.0,0.0,0.0,0.0,0.0,0.0,0.0,0.0,0.0,0.0,0.0,0.0,0.0,0.0,0.0,0.0,0.0,0.0,0.0,0.0,0.0,0.0,0.0,0.0,0.0,0.0,0.0,0.0,0.0,0.0,0.0,0.0,0.0,0.0,0.0,0.0,0.0,0.0,0.0,0.0,0.0,0.0,0.0,0.0,0.0,0.0,0.0,0.0,0.0,0.0,0.0,0.0,0.0,0.0,0.0,0.0,0.0,0.0,0.0,0.0,0.0,0.0,0.0,0.0,0.0,0.0,0.0,0.0,0.0,0.0,0.0,0.0,0.0,0.0,0.0,0.0,0.0,0.0,0.0,0.0,0.0,0.0,0.0,0.0,0.0,0.0,0.0,0.0,0.0,0.0,0.0,0.0,0.0,0.0,0.0,0.0,0.0,0.0,0.0,0.0,0.0,0.0,0.0,0.0,0.0,0.0,0.0,0.0,0.0,0.0,0.0,0.0,0.0,0.0,0.0,0.0,0.0,0.0,0.0,0.0,0.0,0.0,0.0,0.0,0.0,0.0,0.0,0.0,0.0,0.0,0.0,0.0,0.0,0.0,0.0,0.0,0.0,0.0,0.0,0.0,0.0,0.0,0.0,0.0,0.0,0.0,0.0,0.0,0.0,0.0,0.0,0.0,0.0,0.0,0.0,0.0,0.0,0.0,0.0,0.0,0.0,0.0,0.0,0.0,0.0,0.0,0.0,0.0,0.0,0.0,0.0,0.0,0.0,0.0,0.0,0.0,0.0,0.0,0.0,0.0,0.0,0.0,0.0,0.0,0.0,0.0,0.0,0.0,0.0,0.0,0.0,0.0,0.0,0.0,0.0,0.0,0.0,0.0,0.0,0.0,0.0,0.0,0.0,0.0,0.0,0.0,0.0,0.0,0.0,0.0,0.0,0.0,0.0,0.0,0.0,0.0,0.0,0.0,0.0,0.0,0.0,0.0,0.0,0.0,0.0,0.0,0.0,0.0,0.0,0.0,0.0,0.0,0.0,0.0,0.0,0.0,0.0,0.0,0.0,0.0,0.0,0.0,0.0,0.0,0.0,0.0,0.0,0.0,0.0,0.0,0.0,0.0,0.0,0.0,0.0,0.0,0.0,0.0,0.0,0.0,0.0,0.0,0.0,0.0,0.0,0.0,0.0,0.0,0.0,0.0,0.0,0.0,0.0,0.0,0.0,0.0,0.0,0.0,0.0,0.0,0.0,0.0,0.0,0.0,0.0,0.0,0.0,0.0,0.0,0.0,0.0,0.0,0.0,0.0,0.0,0.0,0.0,0.0,0.0,0.0,0.0,0.0,0.0,0.0,0.0,0.0,0.0,0.0,0.0,0.0,0.0,0.0,0.0,0.0,0.0,0.0,0.0,0.0,0.0,0.0,0.0,0.0,0.0,0.0,0.0,0.0,0.0,0.0,0.0,0.0,0.0,0.0,0.0,0.0,0.0,0.0,0.0,0.0,0.0,0.0,0.0,0.0,0.0,0.0,0.0,0.0,0.0,0.0,0.0,0.0,0.0,0.0,0.0,0.0,0.0,0.0,0.0,0.0,0.0,0.0,0.0,0.0,0.0,0.0,0.0,0.0,0.0,0.0,0.0,0.0,0.0,0.0,0.0,0.0,0.0,0.0,0.0,0.0,0.0,0.0,0.0,0.0,0.0,0.0,0.0,0.0,0.0,0.0,0.0,0.0,0.0,0.0,0.0,0.0,0.0,0.0,0.0,0.0,0.0,0.0,0.0,0.0,0.0,0.0,0.0,0.0,0.0,0.0,0.0,0.0,0.0,0.0,0.0,0.0,0.0,0.0,0.0,0.0,0.0,0.0,0.0,0.0,0.0,0.0,0.0,0.0,0.0,0.0,0.0,0.0,0.0,0.0,0.0,0.0,0.0,0.0,0.0,0.0,0.0,0.0,0.0,0.0,0.0,0.0,0.0,0.0,0.0,0.0,0.0,0.0,0.0,0.0,0.0,0.0,0.0,0.0,0.0,0.0,0.0,0.0,0.0,0.0,0.0,0.0,0.0,0.0,0.0,0.0,0.0,0.0,0.0,0.0,0.0,0.0,0.0,0.0,0.0,0.0,0.0,0.0,0.0,0.0,0.0,0.0,0.0,0.0,0.0,0.0,0.0,0.0,0.0,0.0,0.0,0.0,0.0,0.0,0.0,0.0,0.0,0.0,0.0,0.0,0.0,0.0,0.0,0.0,0.0,0.0,0.0,0.0,0.0,0.0,0.0,0.0,0.0,0.0,0.0,0.0,0.0,0.0,0.0,0.0,0.0,0.0,0.0,0.0,0.0,0.0,0.0,0.0,0.0,0.0,0.0,0.0,0.0,0.0,0.0,0.0,0.0,0.0,0.0,0.0,0.0,0.0,0.0,0.0,0.0,0.0,0.0,0.0,0.0,0.0,0.0,0.0,0.0,0.0,0.0,0.0,0.0,0.0,0.0,0.0,0.0,0.0,0.0,0.0,0.0,0.0,0.0,0.0,0.0,0.0,0.0,0.0,0.0,0.0,0.0,0.0,0.0,0.0,0.0,0.0,0.0,0.0,0.0,0.0,0.0,0.0,0.0,0.0,0.0,0.0,0.0,0.0,0.0,0.0,0.0,0.0,0.0,0.0,0.0,0.0,0.0,0.0,0.0,0.0,0.0,0.0,0.0,0.0,0.0,0.0,0.0,0.0,0.0,0.0,0.0,0.0,0.0,0.0,0.0,0.0,0.0,0.0,0.0,0.0,0.0,0.0,0.0,0.0,0.0,0.0,0.0,0.0,0.0,0.0,0.0,0.0,0.0,0.0,0.0,0.0,0.0,0.0,0.0,0.0,0.0,0.0,0.0,0.0,0.0,0.0,0.0,0.0,0.0,0.0,0.0,0.0,0.0,0.0,0.0,0.0,0.0,0.0,0.0,0.0,0.0,0.0,0.0,0.0,0.0,0.0,0.0,0.0,0.0,0.0,0.0,0.0,0.0,0.0,0.0,0.0,0.0,0.0,0.0,0.0,0.0,0.0,0.0,0.0,0.0,0.0,0.0,0.0,0.0,0.0,0.0,0.0,0.0,0.0,0.0,0.0,0.0,0.0,0.0,0.0,0.0,0.0,0.0,0.0,0.0,0.0,0.0,0.0,0.0,0.0,0.0,0.0,0.0,0.0,0.0,0.0,0.0,0.0,0.0,0.0,0.0,0.0,0.0,0.0,0.0,0.0,0.0,0.0,0.0,0.0,0.0,0.0,0.0,0.0,0.0,0.0,0.0,0.0,0.0,0.0,0.0,0.0,0.0,0.0,0.0,0.0,0.0,0.0,0.0,0.0,0.0,0.0,0.0,0.0,0.0,0.0,0.0,0.0,0.0,0.0,0.0,0.0,0.0,0.0,0.0,0.0,0.0,0.0,0.0,0.0,0.0,0.0,0.0,0.0,0.0,0.0,0.0,0.0,0.0,0.0,0.0,0.0,0.0,0.0,0.0,0.0,0.0,0.0,0.0,0.0,0.0,0.0,0.0,0.0,0.0,0.0,0.0,0.0,0.0,0.0,0.0,0.0,-0.2101,0.0,0.0,0.0,0.0,0.0,0.0,0.0,0.0,0.0,0.0,0.0,0.0,0.0,0.0,0.0,0.0,0.0,0.0,0.0,0.0,0.0,0.0,0.0,0.0,0.0,0.0,0.0,0.0,0.0,0.0,0.0,0.0,0.0,0.0,0.0,0.0,0.0,0.0,0.0,0.0,0.0,0.0,0.0,0.0,0.0,0.0,0.0,0.0,0.0,0.0,0.0,0.0,0.0,0.0,0.0,0.0,0.0,0.0,0.0,0.0,0.0,0.0,0.0,0.0,0.0,0.0,0.0,0.0,0.0,0.0,0.0,0.0,0.0,0.0,0.0,0.0,0.0,0.0,0.0,0.0,0.0,0.0,0.0,0.0,0.0,0.0,0.0,0.0,0.0,0.0,0.0,0.0,0.0,0.0,0.0,0.0,0.0,0.0,0.0,0.0,0.0,0.0,0.0,0.0,0.0,0.0,0.0,0.0,0.0,0.0,-0.1475,-0.17,-0.2059,-0.2328,-0.2549,0.0,0.0,0.0,0.0,0.0,0.0,0.0,0.0,0.0,0.0,0.0,0.0,0.0,0.0,0.0,0.0,0.0,0.0,0.0,0.0,0.0,0.0,0.0,0.0,0.0,0.0,0.0,0.0,0.0,0.0,0.0,0.0,0.0,0.0,0.0,0.0,0.0,0.0,0.0,0.0,0.0,0.0,0.0,0.0,0.0,0.0,0.0,0.0,0.0,0.0,0.0,0.0,0.0,0.0,0.0,0.0,0.0,0.0,0.0,0.0,0.0,0.0,0.0,0.0,0.0,0.0,0.0,0.0,0.0,0.0,0.0,0.0,0.0,0.0,0.0,0.0,0.0,0.0,0.0,0.0,0.0,0.0,0.0,0.0,0.0,0.0,0.0,0.0,0.0,0.0,0.0,0.0,0.0,0.0,0.0,0.0,0.0,0.0,0.0,0.0,0.0,0.0,0.0,0.0,0.0,0.0,0.0,0.0,0.0,0.0,0.0,0.0,-0.2546,-0.2682,-0.2907,0.0,0.0,0.0,0.0,0.0,0.0,0.0,0.0,0.0,0.0,0.0,0.0,0.0,0.0,0.0,0.0,0.0,0.0,0.0,0.0,0.0,0.0,0.0,0.0,0.0,0.0,0.0,0.0,0.0,0.0,0.0,0.0,0.0,0.0,0.0,0.0,0.0,0.0,0.0,0.0,0.0,0.0,0.0,0.0,0.0,0.0,0.0,0.0,0.0,0.0,0.0,0.0,0.0,0.0,0.0,0.0,0.0,0.0,0.0,0.0,0.0,0.0,0.0,0.0,0.0,0.0,0.0,0.0,0.0,0.0,0.0,0.0,0.0,0.0,0.0,0.0,0.0,0.0,0.0,0.0,0.0,0.0,0.0,0.0,0.0,0.0,0.0,0.0,0.0,0.0,0.0,0.0,0.0,0.0,0.0,0.0,0.0,0.0,0.0,0.0,0.0,0.0,0.0,0.0,0.0,0.0,0.0,0.0,0.0,0.0,-0.317,-0.3306,-0.3309,0.0,-0.3609,0.0,0.0,0.0,0.0,0.0,0.0,0.0,0.0,0.0,0.0,0.0,0.0,0.0,0.0,0.0,0.0,0.0,0.0,0.0,0.0,0.0,0.0,0.0,0.0,0.0,0.0,0.0,0.0,0.0,0.0,0.0,0.0,0.0,0.0,0.0,0.0,0.0,0.0,0.0,0.0,0.0,0.0,0.0,0.0,0.0,0.0,0.0,0.0,0.0,0.0,0.0,0.0,0.0,0.0,0.0,0.0,0.0,0.0,0.0,0.0,0.0,0.0,0.0,0.0,0.0,0.0,0.0,0.0,0.0,0.0,0.0,0.0,0.0,0.0,0.0,0.0,0.0,0.0,0.0,0.0,0.0,0.0,0.0,0.0,0.0,0.0,0.0,0.0,0.0,0.0,0.0,0.0,0.0,0.0,0.0,0.0,0.0,0.0,0.0,0.0,0.0,0.0,0.0,0.0,0.0,0.0,0.0,0.0,0.0,0.0,-0.3832,-0.3972,-0.4052,-0.4136,0.0,0.0,0.0,0.0,0.0,0.0,0.0,0.0,0.0,0.0,0.0,0.0,0.0,0.0,0.0,0.0,0.0,0.0,0.0,0.0,0.0,0.0,0.0,0.0,0.0,0.0,0.0,0.0,0.0,0.0,0.0,0.0,0.0,0.0,0.0,0.0,0.0,0.0,0.0,0.0,0.0,0.0,0.0,0.0,0.0,0.0,0.0,0.0,0.0,0.0,0.0,0.0,0.0,0.0,0.0,0.0,0.0,0.0,0.0,0.0,0.0,0.0,0.0,0.0,0.0,0.0,0.0,0.0,0.0,0.0,0.0,0.0,0.0,0.0,0.0,0.0,0.0,0.0,0.0,0.0,0.0,0.0,0.0,0.0,0.0,0.0,0.0,0.0,0.0,0.0,0.0,0.0,0.0,0.0,0.0,0.0,0.0,0.0,0.0,0.0,0.0,0.0,0.0,0.0,0.0,0.0,0.0,0.0,0.0,0.0,-0.436,-0.4399,-0.4583,-0.4705,-0.4787,-0.4836,0.0,0.0,0.0,0.0,0.0,0.0,0.0,0.0,0.0,0.0,0.0,0.0,0.0,0.0,0.0,0.0,0.0,0.0,0.0,0.0,0.0,0.0,0.0,0.0,0.0,0.0,0.0,0.0,0.0,0.0,0.0,0.0,0.0,0.0,0.0,0.0,0.0,0.0,0.0,0.0,0.0,0.0,0.0,0.0,0.0,0.0,0.0,0.0,0.0,0.0,0.0,0.0,0.0,0.0,0.0,0.0,0.0,0.0,0.0,0.0,0.0,0.0,0.0,0.0,0.0,0.0,0.0,0.0,0.0,0.0,0.0,0.0,0.0,0.0,0.0,0.0,0.0,0.0,0.0,0.0,0.0,0.0,0.0,0.0,0.0,0.0,0.0,0.0,0.0,0.0,0.0,0.0,0.0,0.0,0.0,0.0,0.0,0.0,0.0,0.0,0.0,0.0,0.0,0.0,0.0,0.0,0.0,0.0,-0.4801,-0.4757,-0.4884,-0.5058,-0.513,-0.526,0.0,0.0,0.0,0.0,0.0,0.0,0.0,0.0,0.0,0.0,0.0,0.0,0.0,0.0,0.0,0.0,0.0,0.0,0.0,0.0,0.0,0.0,0.0,0.0,0.0,0.0,0.0,0.0,0.0,0.0,0.0,0.0,0.0,0.0,0.0,0.0,0.0,0.0,0.0,0.0,0.0,0.0,0.0,0.0,0.0,0.0,0.0,0.0,0.0,0.0,0.0,0.0,0.0,0.0,0.0,0.0,0.0,0.0,0.0,0.0,0.0,0.0,0.0,0.0,0.0,0.0,0.0,0.0,0.0,0.0,0.0,0.0,0.0,0.0,0.0,0.0,0.0,0.0,0.0,0.0,0.0,0.0,0.0,0.0,0.0,0.0,0.0,0.0,0.0,0.0,0.0,0.0,0.0,0.0,0.0,0.0,0.0,0.0,0.0,0.0,0.0,0.0,0.0,0.0,0.0,0.0,0.0,0.0,0.0,-0.5111,-0.541,-0.5583,-0.5669,-0.5744,-0.583,0.0,0.0,0.0,0.0,0.0,0.0,0.0,0.0,0.0,0.0,0.0,0.0,0.0,0.0,0.0,0.0,0.0,0.0,0.0,0.0,0.0,0.0,0.0,0.0,0.0,0.0,0.0,0.0,0.0,0.0,0.0,0.0,0.0,0.0,0.0,0.0,0.0,0.0,0.0,0.0,0.0,0.0,0.0,0.0,0.0,0.0,0.0,0.0,0.0,0.0,0.0,0.0,0.0,0.0,0.0,0.0,0.0,0.0,0.0,0.0,0.0,0.0,0.0,0.0,0.0,0.0,0.0,0.0,0.0,0.0,0.0,0.0,0.0,0.0,0.0,0.0,0.0,0.0,0.0,0.0,0.0,0.0,0.0,0.0,0.0,0.0,0.0,0.0,0.0,0.0,0.0,0.0,0.0,0.0,0.0,0.0,0.0,0.0,0.0,0.0,0.0,0.0,0.0,0.0,0.0,0.0,0.0,0.0,0.0,-0.5694,0.0,-0.6532,-0.657,-0.6463,-0.6452,0.0,0.0,0.0,0.0,0.0,0.0,0.0,0.0,0.0,0.0,0.0,0.0,0.0,0.0,0.0,0.0,0.0,0.0,0.0,0.0,0.0,0.0,0.0,0.0,0.0,0.0,0.0,0.0,0.0,0.0,0.0,0.0,0.0,0.0,0.0,0.0,0.0,0.0,0.0,0.0,0.0,0.0,0.0,0.0,0.0,0.0,0.0,0.0,0.0,0.0,0.0,0.0,0.0,0.0,0.0,0.0,0.0,0.0,0.0,0.0,0.0,0.0,0.0,0.0,0.0,0.0,0.0,0.0,0.0,0.0,0.0,0.0,0.0,0.0,0.0,0.0,0.0,0.0,0.0,0.0,0.0,0.0,0.0,0.0,0.0,0.0,0.0,0.0,0.0,0.0,0.0,0.0,0.0,0.0,0.0,0.0,0.0,0.0,0.0,0.0,0.0,0.0,0.0,0.0,0.0,0.0,0.0,0.0,-0.5548,-0.6515,-0.7236,-0.7713,-0.7814,-0.7348,-0.7192,0.0,0.0,0.0,0.0,0.0,0.0,0.0,0.0,0.0,0.0,0.0,0.0,0.0,0.0,0.0,0.0,0.0,0.0,0.0,0.0,0.0,0.0,0.0,0.0,0.0,0.0,0.0,0.0,0.0,0.0,0.0,0.0,0.0,0.0,0.0,0.0,0.0,0.0,0.0,0.0,0.0,0.0,0.0,0.0,0.0,0.0,0.0,0.0,0.0,0.0,0.0,0.0,0.0,0.0,0.0,0.0,0.0,0.0,0.0,0.0,0.0,0.0,0.0,0.0,0.0,0.0,0.0,0.0,0.0,0.0,0.0,0.0,0.0,0.0,0.0,0.0,0.0,0.0,0.0,0.0,0.0,0.0,0.0,0.0,0.0,0.0,0.0,0.0,0.0,0.0,0.0,0.0,0.0,0.0,0.0,0.0,0.0,0.0,0.0,0.0,0.0,0.0,0.0,0.0,0.0,0.0,0.0,0.0,0.0,-0.7808,-0.8792,-0.9303,-0.9323,-0.8842,-0.8393,0.0,0.0,0.0,0.0,0.0,0.0,0.0,0.0,0.0,0.0,0.0,0.0,0.0,0.0,0.0,0.0,0.0,0.0,0.0,0.0,0.0,0.0,0.0,0.0,0.0,0.0,0.0,0.0,0.0,0.0,0.0,0.0,0.0,0.0,0.0,0.0,0.0,0.0,0.0,0.0,0.0,0.0,0.0,0.0,0.0,0.0,0.0,0.0,0.0,0.0,0.0,0.0,0.0,0.0,0.0,0.0,0.0,0.0,0.0,0.0,0.0,0.0,0.0,0.0,0.0,0.0,0.0,0.0,0.0,0.0,0.0,0.0,0.0,0.0,0.0,0.0,0.0,0.0,0.0,0.0,0.0,0.0,0.0,0.0,0.0,0.0,0.0,0.0,0.0,0.0,0.0,0.0,0.0,0.0,0.0,0.0,0.0,0.0,0.0,0.0,0.0,0.0,0.0,0.0,0.0,0.0,0.0,0.0,0.0,-0.8184,-0.9585,-1.0408,-1.0691,-1.0134,-0.9627,-0.9225,0.0,0.0,0.0,0.0,0.0,0.0,0.0,0.0,0.0,0.0,0.0,0.0,0.0,0.0,0.0,0.0,0.0,0.0,0.0,0.0,0.0,0.0,0.0,0.0,0.0,0.0,0.0,0.0,0.0,0.0,0.0,0.0,0.0,0.0,0.0,0.0,0.0,0.0,0.0,0.0,0.0,0.0,0.0,0.0,0.0,0.0,0.0,0.0,0.0,0.0,0.0,0.0,0.0,0.0,0.0,0.0,0.0,0.0,0.0,0.0,0.0,0.0,0.0,0.0,0.0,0.0,0.0,0.0,0.0,0.0,0.0,0.0,0.0,0.0,0.0,0.0,0.0,0.0,0.0,0.0,0.0,0.0,0.0,0.0,0.0,0.0,0.0,0.0,0.0,0.0,0.0,0.0,0.0,0.0,0.0,0.0,0.0,0.0,0.0,0.0,0.0,0.0,0.0,0.0,0.0,0.0,0.0,0.0,-0.7516,-0.9381,-1.0773,-1.1696,-1.1141,-1.0755,0.0,0.0,0.0,0.0,0.0,0.0,0.0,0.0,0.0,0.0,0.0,0.0,0.0,0.0,0.0,0.0,0.0,0.0,0.0,0.0,0.0,0.0,0.0,0.0,0.0,0.0,0.0,0.0,0.0,0.0,0.0,0.0,0.0,0.0,0.0,0.0,0.0,0.0,0.0,0.0,0.0,0.0,0.0,0.0,0.0,0.0,0.0,0.0,0.0,0.0,0.0,0.0,0.0,0.0,0.0,0.0,0.0,0.0,0.0,0.0,0.0,0.0,0.0,0.0,0.0,0.0,0.0,0.0,0.0,0.0,0.0,0.0,0.0,0.0,0.0,0.0,0.0,0.0,0.0,0.0,0.0,0.0,0.0,0.0,0.0,0.0,0.0,0.0,0.0,0.0,0.0,0.0,0.0,0.0,0.0,0.0,0.0,0.0,0.0,0.0,0.0,0.0,0.0,0.0,0.0,0.0,0.0,0.0,0.0,-0.481,-0.6624,-0.8784,-1.1012,-1.1784,-1.1568,0.0,0.0,0.0,0.0,0.0,0.0,0.0,0.0,0.0,0.0,0.0,0.0,0.0,0.0,0.0,0.0,0.0,0.0,0.0,0.0,0.0,0.0,0.0,0.0,0.0,0.0,0.0,0.0,0.0,0.0,0.0,0.0,0.0,0.0,0.0,0.0,0.0,0.0,0.0,0.0,0.0,0.0,0.0,0.0,0.0,0.0,0.0,0.0,0.0,0.0,0.0,0.0,0.0,0.0,0.0,0.0,0.0,0.0,0.0,0.0,0.0,0.0,0.0,0.0,0.0,0.0,0.0,0.0,0.0,0.0,0.0,0.0,0.0,0.0,0.0,0.0,0.0,0.0,0.0,0.0,0.0,0.0,0.0,0.0,0.0,0.0,0.0,0.0,0.0,0.0,0.0,0.0,0.0,0.0,0.0,0.0,0.0,0.0,0.0,0.0,0.0,0.0,0.0,0.0,0.0,0.0,0.0,0.0,-0.0064,-0.1265,-0.3357,-0.5645,-0.7918,-1.0354,-1.1138,0.0,0.0,0.0,0.0,0.0,0.0,0.0,0.0,0.0,0.0,0.0,0.0,0.0,0.0,0.0,0.0,0.0,0.0,0.0,0.0,0.0,0.0,0.0,0.0,0.0,0.0,0.0,0.0,0.0,0.0,0.0,0.0,0.0,0.0,0.0,0.0,0.0,0.0,0.0,0.0,0.0,0.0,0.0,0.0,0.0,0.0,0.0,0.0,0.0,0.0,0.0,0.0,0.0,0.0,0.0,0.0,0.0,0.0,0.0,0.0,0.0,0.0,0.0,0.0,0.0,0.0,0.0,0.0,0.0,0.0,0.0,0.0,0.0,0.0,0.0,0.0,0.0,0.0,0.0,0.0,0.0,0.0,0.0,0.0,0.0,0.0,0.0,0.0,0.0,0.0,0.0,0.0,0.0,0.0,0.0,0.0,0.0,0.0,0.0,0.0,0.0,0.0,0.0,0.0,0.0,0.0,0.0,0.0,0.3898,0.2435,0.0133,-0.1914,-0.3572,-0.7596,-0.9669,0.0,0.0,0.0,0.0,0.0,0.0,0.0,0.0,0.0,0.0,0.0,0.0,0.0,0.0,0.0,0.0,0.0,0.0,0.0,0.0,0.0,0.0,0.0,0.0,0.0,0.0,0.0,0.0,0.0,0.0,0.0,0.0,0.0,0.0,0.0,0.0,0.0,0.0,0.0,0.0,0.0,0.0,0.0,0.0,0.0,0.0,0.0,0.0,0.0,0.0,0.0,0.0,0.0,0.0,0.0,0.0,0.0,0.0,0.0,0.0,0.0,0.0,0.0,0.0,0.0,0.0,0.0,0.0,0.0,0.0,0.0,0.0,0.0,0.0,0.0,0.0,0.0,0.0,0.0,0.0,0.0,0.0,0.0,0.0,0.0,0.0,0.0,0.0,0.0,0.0,0.0,0.0,0.0,0.0,0.0,0.0,0.0,0.0,0.0,0.0,0.0,0.0,0.0,0.0,0.0,0.0,0.0,0.0,0.6359,0.4788,0.2915,0.1125,-0.0597,-0.4945,-0.7216,0.0,0.0,0.0,0.0,0.0,0.0,0.0,0.0,0.0,0.0,0.0,0.0,0.0,0.0,0.0,0.0,0.0,0.0,0.0,0.0,0.0,0.0,0.0,0.0,0.0,0.0,0.0,0.0,0.0,0.0,0.0,0.0,0.0,0.0,0.0,0.0,0.0,0.0,0.0,0.0,0.0,0.0,0.0,0.0,0.0,0.0,0.0,0.0,-0.7143,0.0,0.0,0.0,0.0,0.0,0.0,0.0,0.0,0.0,0.0,0.0,0.0,0.0,0.0,0.0,0.0,0.0,0.0,0.0,0.0,0.0,0.0,0.0,0.0,0.0,0.0,0.0,0.0,0.0,0.0,0.0,0.0,0.0,0.0,0.0,0.0,0.0,0.0,0.0,0.0,0.0,0.0,0.0,0.0,0.0,0.0,0.0,0.0,0.0,0.0,0.0,0.0,0.0,0.0,0.0,0.0,0.0,0.0,0.0,0.9186,0.7821,0.5712,0.3777,0.1928,-0.0855,-0.3047,0.0,0.0,0.0,0.0,0.0,0.0,0.0,0.0,0.0,0.0,0.0,0.0,0.0,0.0,0.0,0.0,0.0,0.0,0.0,0.0,0.0,0.0,0.0,0.0,0.0,0.0,0.0,0.0,0.0,0.0,0.0,0.0,0.0,0.0,0.0,0.0,0.0,0.0,0.0,0.0,0.0,0.0,0.0,0.0,0.0,0.0,0.0,0.0,0.0,0.0,0.0,0.0,0.0,0.0,0.0,0.0,0.0,0.0,0.0,0.0,0.0,0.0,0.0,0.0,0.0,0.0,0.0,0.0,0.0,0.0,0.0,0.0,0.0,0.0,0.0,0.0,0.0,0.0,0.0,0.0,0.0,0.0,0.0,0.0,0.0,0.0,0.0,0.0,0.0,0.0,0.0,0.0,0.0,0.0,0.0,0.0,0.0,0.0,0.0,0.0,0.0,0.0,0.0,0.0,0.0,0.0,0.0,1.2437,1.1896,1.0523,0.8197,0.5971,0.413,0.333,0.1379,-0.1729,0.0,0.0,0.0,0.0,0.0,0.0,0.0,0.0,0.0,0.0,0.0,0.0,0.0,0.0,0.0,0.0,0.0,0.0,0.0,0.0,0.0,0.0,0.0,0.0,0.0,0.0,0.0,0.0,0.0,0.0,0.0,0.0,0.0,0.0,0.0,0.0,0.0,0.0,-0.594,-0.5271,0.0,0.0,0.0,0.0,0.0,0.0,0.0,0.0,-0.4162,0.0,0.0,0.0,0.0,0.0,0.0,0.0,0.0,0.0,0.0,0.0,0.0,0.0,0.0,0.0,0.0,0.0,0.0,0.0,0.0,0.0,0.0,0.0,0.0,0.0,0.0,0.0,0.0,0.0,0.0,0.0,0.0,0.0,0.0,0.0,0.0,0.0,0.0,0.0,0.0,0.0,0.0,0.0,0.0,0.0,0.0,0.0,0.0,0.0,0.0,0.0,0.0,0.0,0.0,0.0,0.0,1.2555,1.3772,1.328,1.0975,0.9169,0.7418,0.5789,0.5328,0.4188,0.2251,0.0,0.0,0.0,0.0,0.0,0.0,0.0,0.0,0.0,0.0,0.0,0.0,0.0,0.0,0.0,0.0,0.0,0.0,0.0,0.0,0.0,0.0,0.0,0.0,0.0,0.0,0.0,0.0,0.0,0.0,0.0,0.0,0.0,0.0,0.0,0.0,0.0,0.0,0.0,-0.3751,-0.351,0.0,0.0,0.0,0.0,0.0,0.0,0.0,0.0,-0.3306,0.0,0.0,0.0,0.0,0.0,0.0,0.0,0.0,0.0,0.0,0.0,0.0,0.0,0.0,0.0,0.0,0.0,0.0,0.0,0.0,0.0,0.0,0.0,0.0,0.0,0.0,0.0,0.0,0.0,0.0,0.0,0.0,0.0,0.0,0.0,0.0,0.0,0.0,0.0,0.0,0.0,0.0,0.0,0.0,0.0,0.0,0.0,0.0,0.0,0.0,0.0,0.0,0.0,0.0,0.0,1.3076,1.3965,1.3425,1.1439,0.9812,0.8221,0.6859,0.6334,0.5276,0.0,0.0,0.0,0.0,0.0,0.0,0.0,0.0,0.0,0.0,0.0,0.0,0.0,0.0,0.0,0.0,0.0,0.0,0.0,0.0,0.0,0.0,0.0,0.0,0.0,0.0,0.0,0.0,0.0,0.0,0.0,0.0,0.0,0.0,0.0,0.0,0.0,0.0,0.0,0.0,-0.2382,-0.1896,-0.2116,0.0,0.0,0.0,0.0,0.0,0.0,-0.182,-0.2162,0.0,0.0,0.0,0.0,0.0,0.0,0.0,0.0,0.0,0.0,0.0,0.0,0.0,0.0,0.0,0.0,0.0,0.0,0.0,0.0,0.0,0.0,0.0,0.0,0.0,0.0,0.0,0.0,0.0,0.0,0.0,0.0,0.0,0.0,0.0,0.0,0.0,0.0,0.0,0.0,0.0,0.0,0.0,0.0,0.0,0.0,0.0,0.0,0.0,0.0,0.0,0.0,0.0,0.0,0.0,1.3097,1.3614,1.3107,1.1571,1.0015,0.8619,0.7456,0.6741,0.5609,0.0,0.0,0.0,0.0,0.0,0.0,0.0,0.0,0.0,0.0,0.0,0.0,0.0,0.0,0.0,0.0,0.0,0.0,0.0,0.0,0.0,0.0,0.0,0.0,0.0,0.0,0.0,0.0,0.0,0.0,0.0,0.0,0.0,0.0,0.0,0.0,0.0,0.0,0.0,0.0,0.0,-0.0265,-0.0,0.0411,0.0,0.0,0.0,0.0,-0.0074,-0.0515,0.0,0.0,0.0,0.0,0.0,0.0,0.0,0.0,0.0,0.0,0.0,0.0,0.0,0.0,0.0,0.0,0.0,0.0,0.0,0.0,0.0,0.0,0.0,0.0,0.0,0.0,0.0,0.0,0.0,0.0,0.0,0.0,0.0,0.0,0.0,0.0,0.0,0.0,0.0,0.0,0.0,0.0,0.0,0.0,0.0,0.0,0.0,0.0,0.0,0.0,0.0,0.0,0.0,0.0,0.0,0.0,1.1974,1.3049,1.2603,1.0732,0.9621,0.8409,0.699,0.6597,0.5404,0.0,0.0,0.0,0.0,0.0,0.0,0.0,0.0,0.0,0.0,0.0,0.0,0.0,0.0,0.0,0.0,0.0,0.0,0.0,0.0,0.0,0.0,0.0,0.0,0.0,0.0,0.0,0.0,0.0,0.0,0.0,0.0,0.0,0.0,0.0,0.0,0.0,0.0,0.0,0.0,0.0,0.1331,0.1652,0.2498,0.3285,0.0,0.0,0.2787,0.1864,0.0993,0.0,0.0,0.0,0.0,0.0,0.0,0.0,0.0,0.0,0.0,0.0,0.0,0.0,0.0,0.0,0.0,0.0,0.0,0.0,0.0,0.0,0.0,0.0,0.0,0.0,0.0,0.0,0.0,0.0,0.0,0.0,0.0,0.0,0.0,0.0,0.0,0.0,0.0,0.0,0.0,0.0,0.0,0.0,0.0,0.0,0.0,0.0,0.0,0.0,0.0,0.0,0.0,0.0,0.0,0.0,0.8777,1.0448,1.0871,1.0622,0.9793,0.8731,0.7637,0.6457,0.5723,0.4435,0.0,0.0,0.0,0.0,0.0,0.0,0.0,0.0,0.0,0.0,0.0,0.0,0.0,0.0,0.0,0.0,0.0,0.0,0.0,0.0,0.0,0.0,0.0,0.0,0.0,0.0,0.0,0.0,0.0,0.0,0.0,0.0,0.0,0.0,0.0,0.0,0.0,0.0,0.0,0.0,0.0,0.0,0.362,0.4282,0.0,0.0,0.0,0.3691,0.3089,0.0,0.0,0.0,0.0,0.0,0.0,0.0,0.0,0.0,0.0,0.0,0.0,0.0,0.0,0.0,0.0,0.0,0.0,0.0,0.0,0.0,0.0,0.0,0.0,0.0,0.0,0.0,0.0,0.0,0.0,0.0,0.0,0.0,0.0,0.0,0.0,0.0,0.0,0.0,0.0,0.0,0.0,0.0,0.0,0.0,0.0,0.0,0.0,0.0,0.0,0.0,0.0,0.0,0.0,0.0,0.0,0.0,0.8518,0.8548,0.8527,0.8463,0.7577,0.6662,0.5665,0.4599,0.0,0.0,0.0,0.0,0.0,0.0,0.0,0.0,0.0,0.0,0.0,0.0,0.0,0.0,0.0,0.0,0.0,0.0,0.0,0.0,0.0,0.0,0.0,0.0,0.0,0.0,0.0,0.4231,0.0,0.0,0.0,0.0,0.0,0.0,0.0,0.0,0.0,0.0,0.0,0.0,0.0,0.0,0.5021,0.5448,0.5909,0.5971,0.0,0.0,0.4758,0.4219,0.2988,0.1864,0.0,0.0,0.0,0.0,0.0,0.0,0.0,0.0,0.0,0.0,0.0,0.0,0.0,0.0,0.0,0.0,0.0,0.0,0.0,0.0,0.0,0.0,0.0,0.0,0.0,0.0,0.0,0.0,0.0,0.0,0.0,0.0,0.0,0.0,0.0,0.0,0.0,0.0,0.0,0.0,0.0,0.0,0.0,0.0,0.0,0.0,0.0,0.0,0.0,0.0,0.0,0.0,0.0,0.0,0.0,0.5994,0.6557,0.6715,0.6593,0.6199,0.5477,0.442,0.3413,0.2114,0.0,0.0,0.0,0.0,0.0,0.0,0.0,0.0,0.0,0.0,0.0,0.0,0.0,0.0,0.0,0.0,0.0,0.0,0.0,0.0,0.0,0.0,0.0,0.0,0.0,0.0,0.0,0.0,0.0,0.0,0.0,0.0,0.0,0.0,0.0,0.0,0.0,0.0,0.0,0.0,0.0,0.5934,0.6919,0.7366,0.7469,0.0,0.0,0.6268,0.5289,0.4413,0.3383,0.1895,0.0,0.0,0.0,0.0,0.0,0.0,0.0,0.0,0.0,0.0,0.0,0.0,0.0,0.0,0.0,0.0,0.0,0.0,0.0,0.0,0.0,0.0,0.0,0.0,0.0,0.0,0.0,0.0,0.0,0.0,0.0,0.0,0.0,0.0,0.0,0.0,0.0,0.0,0.0,0.0,0.0,0.0,0.0,0.0,0.0,0.0,0.0,0.0,0.0,0.0,0.0,0.0,0.0,0.3007,0.4389,0.491,0.5342,0.5547,0.5147,0.4616,0.4092,0.2613,0.119,0.0,0.0,0.0,0.0,0.0,0.0,0.0,0.0,0.0,0.0,0.0,0.0,0.0,0.0,0.0,0.0,0.0,0.0,0.0,0.0,0.0,0.0,0.0,0.0,0.0,0.0,0.0,0.0,1.1431,1.1545,1.1707,0.0,0.0,0.0,0.0,0.0,0.0,0.0,0.0,0.0,0.0,0.8187,0.8743,0.8881,0.0,0.0,0.7919,0.7183,0.6363,0.5405,0.4403,0.3529,0.2245,0.0,0.0,0.0,0.0,0.0,0.0,0.0,0.0,0.0,0.0,0.0,0.0,0.0,0.0,0.0,0.0,0.0,0.0,0.0,0.0,0.0,0.0,0.0,0.0,0.0,0.0,0.0,0.0,0.0,0.0,0.0,0.0,0.0,0.0,0.0,0.0,0.0,0.0,0.0,0.0,0.0,0.0,0.0,0.0,0.0,0.0,0.0,0.0,0.0,0.0,0.0,0.0,0.1699,0.2839,0.3496,0.4004,0.4338,0.3968,0.363,0.3332,0.1834,0.0468,0.0,0.0,0.0,0.0,0.0,0.0,0.0,0.0,0.0,0.0,0.0,0.0,0.0,0.0,0.0,0.0,0.0,0.0,0.0,0.0,0.0,0.0,0.0,0.0,0.0,0.0,0.0,0.0,1.2228,1.2426,1.1727,0.0,0.0,0.0,0.0,0.0,0.0,0.0,0.0,0.0,0.0,1.0225,1.0546,1.0439,1.0243,0.9912,0.9086,0.8317,0.7677,0.6661,0.5758,0.5159,0.0,0.0,0.0,0.0,0.0,0.0,0.0,0.0,0.0,0.0,0.0,0.0,0.0,0.0,0.0,0.0,0.0,0.0,0.0,0.0,0.0,0.0,0.0,0.0,0.0,0.0,0.0,0.0,0.0,0.0,0.0,0.0,0.0,0.0,0.0,0.0,0.0,0.0,0.0,0.0,0.0,0.0,0.0,0.0,0.0,0.0,0.0,0.0,0.0,0.0,0.0,0.0,0.0,0.0438,0.1354,0.2179,0.2657,0.2797,0.2581,0.244,0.2244,0.0979,-0.0136,-0.1096,0.0,0.0,0.0,0.0,0.0,0.0,0.0,0.0,0.0,0.0,0.0,0.0,0.0,0.0,0.0,0.0,0.0,0.0,0.0,0.0,0.0,0.0,0.0,0.0,0.0,0.0,1.1996,1.3289,1.332,0.0,0.0,0.0,0.0,0.0,0.0,0.0,0.0,0.0,0.0,1.1727,1.1973,1.2331,1.1983,1.1605,1.1278,1.0423,0.9675,0.9128,0.8514,0.7701,0.0,0.0,0.0,0.0,0.0,0.0,0.0,0.0,0.0,0.0,0.0,0.0,0.0,0.0,0.0,0.0,0.0,0.0,0.0,0.0,0.0,0.0,0.0,0.0,0.0,0.0,0.0,-0.9402,-0.9722,0.0,0.0,0.0,0.0,0.0,0.0,0.0,0.0,0.0,0.0,0.0,-0.4243,-0.4431,0.0,0.0,0.0,0.0,0.0,0.0,0.0,0.0,0.0,0.0,0.0,0.0,-0.0463,0.0409,0.1201,0.1798,0.2376,0.2323,0.2033,0.1439,0.0565,-0.0546,-0.2001,0.0,0.0,0.0,0.0,0.0,0.0,0.0,0.0,0.0,0.0,0.0,0.0,0.0,0.0,0.0,0.0,0.0,0.0,0.0,0.0,0.0,0.0,0.0,0.0,0.0,0.8559,0.0,0.0,0.0,0.0,0.0,0.0,0.0,0.0,0.0,0.0,0.0,1.3078,1.3833,1.4439,1.4721,1.4487,1.3687,1.2975,0.0,0.0,0.0,0.0,0.0,0.0,0.0,0.0,0.0,0.0,0.0,0.0,0.0,0.0,-0.1319,-0.2025,-0.3088,-0.3998,-0.4287,0.0,0.0,0.0,0.0,0.0,0.0,0.0,0.0,0.0,0.0,0.0,0.0,0.0,0.0,0.0,0.0,-1.0337,0.0,0.0,0.0,0.0,0.0,0.0,0.0,0.0,-0.4143,-0.428,-0.4423,-0.4763,-0.4922,0.0,-0.5106,-0.512,0.0,0.0,0.0,0.0,0.0,0.0,0.0,0.0,-0.1301,-0.0497,0.0073,0.0739,0.1404,0.1416,0.1118,0.0517,-0.0499,-0.1569,-0.2648,-0.3252,-0.3545,0.0,0.0,0.0,0.0,0.0,0.0,0.0,0.0,0.0,0.0,0.0,0.0,0.0,0.0,0.0,0.0,0.0,0.0,0.0,0.0,0.0,0.0,0.0,0.8196,0.0,0.0,0.0,0.0,0.0,0.0,0.0,0.0,0.0,1.2186,1.4022,1.5517,1.6112,1.6616,1.6699,1.611,0.0,0.0,0.0,0.0,0.0,0.0,0.0,1.0865,1.0214,0.9562,0.8576,0.7014,0.5016,0.341,0.284,0.0,0.0,-0.085,-0.2191,-0.3213,-0.3659,-0.4479,-0.5368,-0.6099,-0.6691,-0.7277,0.0,0.0,0.0,0.0,0.0,0.0,0.0,0.0,-1.0475,-1.0899,0.0,-1.1177,0.0,0.0,0.0,0.0,0.0,0.0,0.0,0.0,-0.4812,-0.4957,-0.4809,-0.5318,-0.5604,-0.5673,-0.5806,-0.58,-0.5626,-0.5032,0.0,0.0,0.0,0.0,0.0,0.0,-0.2146,-0.1385,-0.0973,-0.0606,-0.0076,-0.0078,-0.0155,-0.0529,-0.2089,-0.2942,-0.2978,-0.3263,-0.3527,-0.3762,-0.3978,0.0,0.0,0.0,0.0,0.0,0.0,0.0,0.0,0.0,0.0,0.0,0.0,0.0,0.0,0.0,0.0,0.0,0.0,0.0,0.0,0.5799,0.0,0.0,0.0,0.0,0.0,0.0,0.0,0.0,0.0,0.0,1.4959,1.6042,1.7003,1.8067,0.0,0.0,0.0,0.0,1.6375,1.5583,1.5265,1.484,1.405,1.3405,1.2677,1.1962,0.0,0.0,0.6815,0.5633,0.4614,0.3655,0.2382,0.116,-0.0079,-0.1331,-0.2345,-0.2969,-0.3982,-0.5004,-0.5928,-0.6594,-0.7145,-1.0005,0.0,0.0,0.0,0.0,-1.0953,-1.1368,-1.1781,-1.2088,-1.254,-1.3134,-1.254,0.0,0.0,0.0,0.0,0.0,0.0,-0.5921,-0.5494,-0.5405,-0.5664,-0.6046,-0.6043,-0.6143,-0.6338,-0.6257,-0.62,-0.6158,-0.5846,-0.5415,-0.4798,0.0,0.0,0.0,0.0,-0.2726,-0.2096,-0.1687,-0.1398,-0.1322,-0.1331,-0.163,-0.2119,-0.2714,-0.3048,-0.3014,-0.3591,-0.3885,-0.3824,-0.4259,0.0,0.0,0.0,0.0,0.0,0.0,0.0,0.0,0.0,0.0,0.0,0.0,0.0,0.0,0.0,0.0,0.0,0.0,0.0,0.3518,0.4928,0.5706,0.0,0.0,0.0,0.0,0.0,0.0,0.0,0.0,0.0,1.6378,1.8375,1.976,0.0,0.0,1.9762,1.884,1.7845,1.6892,1.6134,0.0,0.0,0.0,1.3692,1.3042,1.2384,1.0673,0.898,0.7843,0.6224,0.4689,0.3844,0.2702,0.1575,0.0318,-0.1099,-0.2272,-0.2976,-0.3915,-0.4932,-0.5783,-0.6475,-0.7092,-1.2009,-1.1054,-1.0893,-1.1128,-1.1566,-1.1939,-1.2315,-1.2724,-1.3041,-1.3437,-1.3895,-1.3351,-1.3107,-1.2949,-1.1277,0.0,0.0,0.0,-0.6937,-0.6556,-0.6541,-0.6738,-0.7058,-0.7209,-0.7238,-0.7301,-0.7297,-0.7169,-0.7067,-0.6847,-0.6467,-0.5844,0.0,0.0,-0.421,-0.3749,-0.3264,-0.2838,-0.2334,-0.2118,-0.212,-0.2199,-0.2484,-0.2876,-0.3102,-0.3309,-0.3502,-0.3848,-0.4146,-0.4258,-0.4676,-0.5027,0.0,0.0,0.0,0.0,0.0,0.0,0.0,0.0,0.0,0.0,0.0,-0.3946,-0.3355,0.0,0.0,0.0,-0.0317,0.1282,0.3186,0.3572,0.0,0.0,0.0,0.0,0.0,0.0,0.0,1.0809,1.2663,1.4657,1.695,1.8845,2.0059,2.0232,2.0304,1.9982,1.8922,0.0,1.7062,1.632,1.5805,1.5183,1.4453,1.3829,1.2963,1.1472,1.0058,0.8607,0.7635,0.6031,0.4586,0.3657,0.2522,0.1326,0.0238,-0.1256,-0.2588,-0.3054,-0.3915,-0.4851,-0.578,-0.6321,-0.6861,-1.4069,-1.3738,-1.2801,-1.2457,-1.264,-1.2956,-1.3247,-1.34,-1.3632,-1.3936,-1.4259,-1.3822,-1.3484,-1.3107,-1.1305,0.0,0.0,-0.8375,-0.8014,-0.7781,-0.8102,-0.8176,-0.8004,-0.8578,-0.875,-0.85,-0.8677,-0.8513,-0.8172,-0.7934,-0.7608,-0.7177,-0.5993,-0.5205,-0.4871,-0.4346,-0.3855,-0.3544,-0.3077,-0.2759,-0.2596,-0.2749,-0.2952,-0.3039,-0.3327,-0.3745,-0.4211,-0.4196,-0.4449,-0.4947,-0.5192,-0.5468,-0.5932,0.0,0.0,0.0,0.0,0.0,0.0,0.0,0.0,0.0,0.0,0.0,0.0,0.0,0.0,0.0,-0.0265,0.0,0.2013,0.208,0.0,0.0,0.0,0.3199,0.4533,0.592,0.7717,1.0324,0.0,0.0,1.6677,0.0,1.8443,1.8942,1.9169,1.8922,1.7997,1.7416,1.6892,1.6141,1.5812,1.5301,1.443,1.3489,1.2117,1.0048,0.889,0.8005,0.664,0.5453,0.4397,0.3384,0.1932,0.0746,-0.0158,-0.1726,-0.2982,-0.3132,-0.3837,-0.4771,-0.5857,-0.6261,-0.6743,-1.5797,-1.5639,-1.5392,-1.487,-1.4203,-1.4643,-1.479,-1.485,-1.4886,-1.4965,-1.5211,-1.4622,-1.4014,-1.3278,-1.2324,-1.1464,-1.0645,-1.011,-0.9779,-0.9707,-0.948,-0.9486,-0.9562,-0.9567,-0.949,-0.9404,-0.9087,-0.8923,-0.8841,-0.8427,-0.818,-0.8082,-0.7273,-0.6498,-0.581,-0.5482,-0.5089,-0.4463,-0.3969,-0.3527,-0.314,-0.3403,-0.3597,-0.3577,-0.3946,-0.4277,-0.439,-0.4854,-0.5257,-0.5601,-0.5794,-0.6084,-0.6491,-0.6847,0.0,0.0,0.0,0.0,0.0,0.0,0.0,0.0,0.0,-0.3729,-0.2985,0.0,-0.2326,0.0,-0.0536,0.0538,0.1276,0.1344,0.0,0.0,0.1574,0.2449,0.3797,0.5058,0.6756,0.916,1.0999,1.2733,1.4457,1.535,1.5934,1.6312,1.7753,1.8478,1.7408,1.6674,1.5963,1.5289,1.4825,1.4315,1.3387,1.2152,1.0746,0.9354,0.843,0.7535,0.608,0.5272,0.4412,0.3398,0.2017,0.066,-0.0476,-0.2041,-0.3142,-0.337,-0.3995,-0.4932,-0.5783,-0.6492,-0.7213,-1.6834,-1.6749,-1.7057,-1.6714,-1.6061,-1.593,-1.5931,-1.6006,-1.5929,-1.6024,-1.627,-1.5741,-1.4898,-1.4005,-1.349,-1.2727,-1.1918,-1.1453,-1.1218,-1.1117,-1.0999,-1.0939,-1.0856,-1.0773,-1.0601,-1.0434,-1.0104,-0.9942,-0.9937,-0.9513,-0.926,-0.926,-0.867,-0.7997,-0.7318,-0.6428,-0.5618,-0.5118,-0.4536,-0.4153,-0.3897,-0.4086,-0.4198,-0.4302,-0.4402,-0.4573,-0.5078,-0.5375,-0.5716,-0.6153,-0.6523,-0.6917,-0.7255,-0.7618,-0.788,0.0,0.0,0.0,0.0,0.0,0.0,0.0,0.0,0.0,0.0,0.0,-0.1946,0.0,-0.0605,-0.0,0.0337,0.0408,0.0411,0.0411,0.0772,0.1583,0.28,0.4252,0.5855,0.7687,0.9478,1.102,1.2172,1.3042,1.3652,1.3833,1.4881,1.5609,1.5499,1.5028,1.4374,1.3786,1.3305,1.2615,1.1547,1.037,0.9313,0.841,0.7457,0.6517,0.5453,0.4563,0.3719,0.258,0.1535,0.0337,-0.0979,-0.2186,-0.3238,-0.3881,-0.4525,-0.5305,-0.6051,-0.6734,-0.7373,-1.7687,-1.7462,-1.8159,-1.8265,-1.8001,-1.7157,-1.6929,-1.6958,-1.7002,-1.7037,-1.7072,-1.6632,-1.595,-1.5085,-1.4569,-1.3909,-1.3065,-1.2801,-1.2525,-1.2324,-1.2576,-1.2392,-1.1935,-1.2106,-1.1929,-1.1499,-1.1241,-1.1154,-1.1154,-1.0727,-1.0467,-1.0381,-0.9946,-0.9519,-0.8899,-0.731,-0.617,-0.5499,-0.5063,-0.4843,-0.475,-0.4718,-0.4738,-0.5026,-0.472,-0.4957,-0.5823,-0.5975,-0.6281,-0.6813,-0.7404,-0.7805,-0.8134,-0.8597,-0.8765,0.0,-0.8484,0.0,0.0,0.0,0.0,0.0,0.0,0.0,0.0,-0.2153,-0.1466,-0.0887,-0.0613,-0.0545,-0.0613,-0.0556,-0.0422,-0.007,0.0216,0.0813,0.1885,0.3325,0.4838,0.6228,0.7704,0.9046,0.9942,1.0789,1.13,1.1638,1.1563,1.1906,1.276,1.2851,1.2619,1.2186,1.1494,1.0599,0.9722,0.874,0.7944,0.7316,0.6428,0.5361,0.465,0.3758,0.2759,0.1658,0.078,-0.0258,-0.1603,-0.26,-0.3437,-0.4266,-0.5175,-0.5891,-0.6455,-0.702,-0.7631,-1.8916,-1.8787,-1.8989,-1.9193,-1.9458,-1.9263,-1.8675,-1.788,-1.7787,-1.7606,-1.735,-1.6911,-1.6617,-1.6382,-1.5758,-1.528,-1.513,-1.4504,-1.419,-1.4056,-1.3883,-1.3595,-1.3058,-1.3137,-1.2875,-1.2448,-1.2186,-1.2106,-1.21,-1.1671,-1.1327,-1.1063,-1.0636,-1.0125,-0.9515,0.0,0.0,0.0,-0.5812,-0.5752,-0.5741,-0.5208,-0.5095,-0.5391,-0.5378,0.0,-0.6194,-0.7191,-0.771,-0.7692,-0.8185,0.0,0.0,0.0,0.0,0.0,0.0,0.0,0.0,0.0,0.0,0.0,-0.511,-0.4244,-0.3375,-0.2307,-0.1589,-0.1583,-0.1222,-0.1006,-0.1078,-0.1082,-0.094,-0.0434,0.0148,0.0828,0.1511,0.238,0.3428,0.4865,0.5869,0.6857,0.7978,0.8577,0.9039,0.957,0.9579,0.941,0.9492,1.0621,1.1149,1.0722,0.9763,0.8978,0.8552,0.776,0.6959,0.6251,0.5542,0.4741,0.3671,0.2865,0.2134,0.1134,0.0261,-0.1036,-0.2623,-0.3278,-0.3874,-0.4782,-0.5702,-0.6354,-0.6664,-0.7424,-0.8283,-2.0121,0.0,-2.0189,-2.0304,0.0,-2.0516,-2.0119,-1.9328,-1.9063,-1.8629,-1.8131,-1.8034,-1.7761,-1.7346,-1.6885,-1.6528,-1.6205,-1.5835,-1.5574,-1.5507,-1.5237,-1.4899,-1.4509,-1.4422,-1.4154,-1.3717,-1.3623,-1.3374,-1.3083,-1.2724,-1.24,-1.2015,-1.1494,-1.0982,-1.0294,-0.9689,-0.864,-0.6969,-0.6536,-0.6381,-0.649,-0.6117,-0.5981,-0.6227,0.0,0.0,0.0,0.0,0.0,0.0,0.0,0.0,0.0,0.0,0.0,-0.9782,-0.9749,-0.934,-0.8609,-0.8274,-0.7677,-0.6496,-0.5666,-0.4631,-0.3413,-0.2714,-0.2258,-0.2258,-0.1966,-0.1748,-0.1677,-0.1547,-0.1337,-0.1041,-0.0456,0.0154,0.0771,0.1555,0.2427,0.3295,0.4275,0.5123,0.6007,0.6613,0.7128,0.7548,0.7566,0.7482,0.7577,0.8715,0.9419,0.8803,0.8185,0.7573,0.7139,0.652,0.5897,0.5275,0.4563,0.376,0.2686,0.2061,0.1339,0.0177,-0.0618,-0.1582,-0.305,-0.3817,-0.4508,-0.5368,-0.623,-0.6912,-0.7343,-0.8033,-0.8658,-2.1171,-2.1004,-2.1336,-2.1282,-2.098,-2.1279,-2.118,-2.0928,0.0,0.0,0.0,-1.9285,-1.8915,-1.8234,-1.7947,-1.7612,-1.7181,-1.6996,-1.6788,-1.6728,-1.6544,-1.6248,-1.5938,-1.5665,-1.5397,-1.4957,-1.4937,-1.4639,-1.4151,-1.3969,-1.3592,-1.3034,-1.2579,-1.1956,-1.1142,-1.026,-0.9284,-0.8288,-0.7485,-0.7075,-0.73,-0.7242,-0.7263,-0.7285,-0.6398,-0.6536,-0.768,-0.8792,-0.9257,-0.8918,-0.9406,-0.9902,-1.019,-1.0401,-1.0401,-1.0278,-1.024,-0.983,-0.9005,-0.8886,-0.8326,-0.7123,-0.6325,-0.5112,-0.3497,-0.3283,-0.3172,-0.295,-0.2803,-0.251,-0.229,-0.2029,-0.1826,-0.1754,-0.132,-0.0785,-0.0157,0.0706,0.1492,0.1975,0.2901,0.3619,0.4038,0.473,0.5252,0.5601,0.5711,0.5711,0.5983,0.6956,0.7577,0.7044,0.6599,0.6248,0.5811,0.5371,0.4832,0.4474,0.3582,0.2598,0.1791,0.1075,0.0269,-0.0896,-0.1435,-0.2238,-0.3403,-0.4285,-0.5097,-0.5994,-0.6789,-0.7408,-0.8189,-0.8611,-0.8991,-2.1379,-2.0997,-2.1344,-2.1418,-2.1651,-2.1853,-2.2053,-2.2088,-2.1034,-2.0475,-2.0204,-2.0017,-1.9742,-1.9322,-1.8848,-1.864,-1.8493,-1.8302,-1.7964,0.0,-1.7679,-1.7346,-1.6654,-1.6367,-1.6102,-1.5924,-1.5917,-1.5718,-1.5424,-1.5417,-1.5041,-1.4384,-1.3925,-1.2909,-1.1661,-1.1102,-1.0563,-0.9951,-0.8894,-0.8356,-0.842,-0.8794,-0.8687,-0.8115,-0.7511,-0.7642,-0.8526,-0.9352,-0.9772,-0.9745,-1.0261,-1.0627,-1.0707,-1.0917,-1.0929,-1.0707,-1.0662,-1.045,-0.975,-0.9583,-0.8846,-0.7524,-0.7003,-0.6079,-0.4598,-0.4271,-0.4108,-0.3949,-0.3714,-0.3413,-0.3026,-0.3029,-0.2803,-0.2184,-0.2034,-0.1648,-0.0865,-0.0157,0.0555,0.129,0.1814,0.2357,0.2749,0.3155,0.3551,0.4109,0.4293,0.4204,0.4291,0.5181,0.5894,0.5625,0.527,0.4917,0.4654,0.4482,0.4034,0.3585,0.242,0.1434,0.0807,-0.009,-0.0897,-0.1615,-0.2331,-0.3224,-0.4117,-0.4835,-0.562,-0.6502,-0.72,-0.7921,-0.8627,-0.9205,-0.9557,-2.2466,-2.2312,-2.2339,-2.2474,-2.2724,-2.2722,-2.2841,-2.2883,-2.2412,-2.181,-2.1277,-2.1062,-2.0779,-2.037,-2.0165,-1.9947,-1.9759,-1.9471,-1.9192,-1.887,-1.8755,-1.8411,-1.7908,-1.7621,-1.7341,-1.6992,-1.7167,-1.6897,-1.6382,-1.6361,-1.6012,-1.5239,-1.4495,-1.3711,-1.2878,-1.2333,-1.1918,-1.1631,-0.9957,-0.9061,-0.9331,-0.979,-0.9766,-0.9221,-0.8487,-0.8529,-0.9252,-0.987,-1.0144,-1.0073,-1.0513,-1.0812,-1.0962,-1.1186,-1.1186,-1.0962,-1.0962,-1.0743,-1.0293,-0.9771,-0.9013,-0.8097,-0.7714,-0.7173,-0.6325,-0.547,-0.5002,-0.4921,-0.4613,-0.4304,-0.3834,-0.3837,-0.3602,-0.2899,-0.2774,-0.2477,-0.1923,-0.1296,-0.0736,-0.0083,0.0334,0.0762,0.1298,0.175,0.2213,0.2768,0.3047,0.3135,0.2509,0.2953,0.3669,0.4297,0.4387,0.4208,0.3853,0.3227,0.2599,0.2062,0.1255,0.0448,-0.0269,-0.1076,-0.1704,-0.2422,-0.3226,-0.4011,-0.4592,-0.5449,-0.621,-0.6922,-0.7584,-0.8311,-0.9108,-0.9871,-1.0386,-2.3484,-2.3335,-2.3394,-2.344,-2.3495,-2.3414,-2.3347,-2.3447,-2.3447,-2.3108,-2.239,-2.2162,-2.1787,-2.1335,-2.1335,-2.1069,-2.0814,-2.0601,-2.0356,-2.0105,-1.9895,-1.9532,-1.9244,-1.8964,-1.8645,-1.8216,-1.8396,-1.8018,-1.7363,-1.7325,-1.6843,-1.5979,-1.5137,-1.4559,-1.4132,-1.3598,-1.33,-1.3036,-1.1112,-1.0211,-1.0367,-1.0807,-1.0773,-1.0293,-0.9644,-0.9533,-1.0046,-1.0554,-1.0829,-1.0636,-1.0918,-1.1223,-1.1444,-1.1601,-1.1601,-1.1444,-1.1444,-1.1292,-1.0842,-1.0083,-0.9468,-0.9,-0.869,-0.8385,-0.7914,-0.6965,-0.6244,-0.5989,-0.5547,-0.517,-0.4862,-0.4777,-0.4453,-0.3824,-0.3637,-0.3433,-0.2953,-0.2413,-0.1854,-0.1352,-0.1101,-0.0683,-0.0174,0.035,0.0793,0.1251,0.1792,0.1702,0.1076,0.0897,0.1524,0.233,0.2957,0.2959,0.2869,0.1883,0.1076,0.0538,-0.009,-0.0897,-0.1524,-0.1973,-0.2412,-0.3296,-0.3997,-0.4662,-0.5188,-0.5931,-0.6658,-0.7257,-0.7903,-0.8662,-0.9578,-1.0419,-1.0987,-2.3706,-2.3502,-2.3653,-2.3662,-2.3512,-2.3213,-2.3356,-2.3755,-2.3746,-2.3818,-2.3772,-2.3073,-2.2522,-2.2117,-2.1926,-2.1813,-2.1752,-2.1752,-2.144,-2.1016,-2.1232,-2.1033,-2.052,-2.0232,-1.9989,-1.9628,-1.9595,-1.9231,-1.845,-1.8511,-1.8018,-1.6958,-1.6296,-1.5685,-1.5015,-1.4705,-1.4302,-1.3876,-1.2948,-1.2187,-1.1577,-1.1804,-1.1677,-1.1209,-1.1147,-1.11,-1.1134,-1.1723,-1.1994,-1.1866,-1.2001,-1.2245,-1.2403,-1.2482,-1.2482,-1.2476,-1.2482,-1.2251,-1.1848,-1.1221,-1.0707,-1.0477,-1.0129,-0.9727,-0.9252,-0.8765,-0.8048,-0.7232,-0.6573,-0.6214,-0.5995,-0.5732,-0.5388,-0.4726,-0.467,-0.4439,-0.3773,-0.3355,-0.2792,-0.2244,-0.2078,-0.1834,-0.1332,-0.107,-0.0894,-0.0448,-0.0269,-0.0179,-0.0359,-0.0538,-0.0538,-0.0269,0.0269,0.0807,0.0717,0.0448,-0.0269,-0.0987,-0.1705,-0.2333,-0.2959,-0.3135,-0.3301,-0.4062,-0.472,-0.5292,-0.5695,-0.6303,-0.6888,-0.7558,-0.8164,-0.8917,-0.9937,-1.0724,-1.1198,-2.4061,-2.4005,-2.4006,-2.3909,-2.3727,-2.3716,-2.3854,-2.4044,-2.4053,-2.4152,-2.4143,-2.3772,-2.3412,-2.3161,-2.2868,-2.2753,-2.2627,-2.2443,-2.2302,-2.2004,-2.1796,-2.1518,-2.1239,-2.1038,-2.0858,-2.0541,-2.0533,-2.0363,-2.0001,-1.9421,-1.8652,-1.7771,-1.7145,-1.6612,-1.622,-1.5832,-1.5391,-1.5093,-1.4542,-1.4031,-1.3544,-1.3087,-1.2697,-1.2383,-1.2248,-1.2044,-1.1999,-1.2486,-1.2525,-1.2191,-1.2332,-1.2492,-1.2571,-1.2737,-1.273,-1.2651,-1.2571,-1.2492,-1.2172,-1.1926,-1.1599,-1.1341,-1.102,-1.0702,-1.0222,-0.9843,-0.9386,-0.8826,-0.7875,-0.7109,-0.6864,-0.6695,-0.628,-0.571,-0.5513,-0.5217,-0.4534,-0.4243,-0.3856,-0.3354,-0.3096,-0.2929,-0.2505,-0.2153,-0.2064,-0.1974,-0.1975,-0.1888,-0.1796,-0.1885,-0.1974,-0.1884,-0.1613,-0.1344,-0.1256,-0.1436,-0.1885,-0.2243,-0.2602,-0.3138,-0.3497,-0.4034,-0.4285,-0.4861,-0.546,-0.5901,-0.6325,-0.6854,-0.7405,-0.7938,-0.8791,-0.9722,-1.0569,-1.1052,-1.1409,-2.4487,-2.4539,-2.4401,-2.4288,-2.4177,-2.4189,-2.4253,-2.4161,-2.4161,-2.4161,-2.4161,-2.4161,-2.4053,-2.3854,-2.3646,-2.3485,-2.3349,-2.3233,-2.308,-2.2898,-2.2496,-2.2215,-2.2021,-2.2021,-2.1873,-2.1593,-2.1488,-2.134,-2.0942,-2.0014,-1.9192,-1.8571,-1.7911,-1.7566,-1.7283,-1.6819,-1.6386,-1.6089,-1.5805,-1.5418,-1.5067,-1.4385,-1.3831,-1.3465,-1.3126,-1.2894,-1.28,-1.3067,-1.3029,-1.2732,-1.28,-1.2956,-1.3118,-1.3198,-1.3279,-1.3198,-1.3118,-1.3043,-1.28,-1.2719,-1.255,-1.2207,-1.1968,-1.1636,-1.1254,-1.0893,-1.0647,-1.0304,-0.9251,-0.8422,-0.7823,-0.7659,-0.7238,-0.6574,-0.6405,-0.6112,-0.551,-0.5237,-0.4917,-0.4474,-0.4111,-0.3853,-0.3497,-0.3154,-0.299,-0.3172,-0.3188,-0.3105,-0.2922,-0.3016,-0.3199,-0.3009,-0.3179,-0.3067,-0.2606,-0.2691,-0.3051,-0.3229,-0.3406,-0.3674,-0.3853,-0.4478,-0.507,-0.5545,-0.6195,-0.6737,-0.7087,-0.7491,-0.7886,-0.8434,-0.9281,-1.0253,-1.0936,-1.1321,-1.192,-2.4821,-2.477,-2.4737,-2.4659,-2.4769,-2.4494,-2.4326,-2.4198,-2.418,-2.417,-2.4161,-2.4161,-2.4152,-2.4152,-2.418,-2.4143,-2.4115,-2.4097,-2.3971,-2.3727,-2.3647,-2.3583,-2.3294,-2.3294,-2.309,-2.2673,-2.2451,-2.1807,-2.0815,-2.0257,-1.9747,-1.9439,-1.8831,-1.8369,-1.814,-1.7618,-1.7167,-1.6907,-1.6473,-1.6156,-1.6055,-1.579,-1.5211,-1.4411,-1.3938,-1.3773,-1.3735,-1.3512,-1.3457,-1.3607,-1.3678,-1.3847,-1.426,-1.433,-1.4323,-1.4497,-1.4413,-1.4176,-1.4008,-1.3736,-1.3568,-1.3322,-1.3115,-1.282,-1.2336,-1.2026,-1.1701,-1.1295,-1.0742,-0.9962,-0.9096,-0.8632,-0.8214,-0.7523,-0.7457,-0.7115,-0.6773,-0.6242,-0.5991,-0.5636,-0.5198,-0.4768,-0.4314,-0.4103,-0.4053,-0.3981,-0.3941,-0.3791,-0.3781,-0.4071,-0.416,-0.4238,-0.4287,-0.4127,-0.3427,-0.3408,-0.3676,-0.3853,-0.4032,-0.4387,-0.4654,-0.4999,-0.5654,-0.6135,-0.675,-0.7275,-0.7741,-0.8137,-0.8471,-0.897,-0.9694,-1.0486,-1.1254,-1.184,-1.2456,-2.4821,-2.4787,-2.4728,-2.4692,-2.4739,-2.4682,-2.4503,-2.4253,-2.4455,-2.439,-2.4189,-2.4161,-2.4161,-2.4161,-2.4436,-2.4409,-2.417,-2.4161,-2.4152,-2.4053,-2.3845,-2.3845,-2.3836,-2.3746,-2.3692,-2.3655,-2.344,-2.2775,-2.1926,-2.1312,-2.0794,-2.0532,-1.9852,-1.9388,-1.9163,-1.858,-1.8052,-1.7581,-1.717,-1.6784,-1.6515,-1.639,-1.6085,-1.5769,-1.4953,-1.4537,-1.453,-1.4432,-1.4381,-1.4196,-1.4369,-1.4446,-1.4426,-1.4482,-1.4657,-1.465,-1.465,-1.4566,-1.4489,-1.4405,-1.4321,-1.423,-1.4062,-1.3743,-1.3307,-1.2875,-1.2528,-1.2198,-1.1866,-1.1257,-1.0554,-0.9772,-0.899,-0.8464,-0.8113,-0.7852,-0.7411,-0.6881,-0.6526,-0.6358,-0.6056,-0.5684,-0.5376,-0.5246,-0.508,-0.4804,-0.474,-0.4573,-0.4478,-0.4763,-0.5056,-0.5045,-0.5298,-0.5541,-0.541,-0.4632,-0.4391,-0.4478,-0.4746,-0.5013,-0.5366,-0.5811,-0.6389,-0.6815,-0.7309,-0.7759,-0.8275,-0.8859,-0.9143,-0.9703,-1.0366,-1.0959,-1.1558,-1.2182,-1.2839,-2.4812,-2.4872,-2.485,-2.4776,-2.4852,-2.5031,-2.4909,-2.4669,-2.4856,-2.4812,-2.4574,-2.4546,-2.4647,-2.4794,-2.4951,-2.5025,-2.4848,-2.4757,-2.4748,-2.4748,-2.4638,-2.4564,-2.4544,-2.4335,-2.4271,-2.4152,-2.3845,-2.3238,-2.2509,-2.1987,-2.167,-2.1337,-2.0597,-2.0133,-1.9921,-1.9238,-1.8574,-1.82,-1.7977,-1.7527,-1.7056,-1.7108,-1.6956,-1.6727,-1.6084,-1.5645,-1.5375,-1.528,-1.5144,-1.4953,-1.5108,-1.5092,-1.4977,-1.5014,-1.5184,-1.5376,-1.5369,-1.5354,-1.5376,-1.5376,-1.5383,-1.5291,-1.5035,-1.4771,-1.4349,-1.3918,-1.3572,-1.3318,-1.2982,-1.254,-1.1822,-1.1123,-1.0279,-0.9481,-0.9042,-0.8722,-0.8464,-0.7893,-0.7472,-0.7228,-0.7021,-0.674,-0.6441,-0.6395,-0.6132,-0.5756,-0.5686,-0.5519,-0.5331,-0.5526,-0.5818,-0.5909,-0.6168,-0.6432,-0.6386,-0.5887,-0.5393,-0.5463,-0.5387,-0.5646,-0.608,-0.6615,-0.7054,-0.7496,-0.7903,-0.8273,-0.8849,-0.9447,-1.0004,-1.0523,-1.0988,-1.15,-1.2037,-1.2544,-1.3313,-2.4915,-2.511,-2.5221,-2.5339,-2.5398,-2.546,-2.5439,-2.5304,-2.5372,-2.5317,-2.5319,-2.5402,-2.5441,-2.574,-2.575,-2.5872,-2.6031,-2.5863,-2.574,-2.5675,-2.5872,-2.5786,-2.5585,-2.5254,-2.4885,-2.456,-2.3782,-2.3173,-2.2679,-2.2316,-2.1971,-2.1634,-2.1146,-2.0692,-2.0392,-1.9636,-1.9041,-1.8792,-1.8686,-1.8431,-1.7956,-1.8001,-1.786,-1.7406,-1.7217,-1.6879,-1.6225,-1.5868,-1.5728,-1.5679,-1.5761,-1.585,-1.5948,-1.5979,-1.6279,-1.655,-1.6638,-1.6653,-1.6683,-1.6668,-1.6543,-1.636,-1.6228,-1.5906,-1.5627,-1.5219,-1.487,-1.4582,-1.4142,-1.3621,-1.2966,-1.279,-1.2007,-1.0416,-1.0065,-0.9984,-0.9664,-0.9334,-0.8893,-0.8232,-0.7966,-0.7875,-0.7722,-0.7531,-0.7318,-0.7052,-0.692,-0.6679,-0.6479,-0.6677,-0.6819,-0.6898,-0.7113,-0.733,-0.718,-0.7019,-0.6698,-0.6486,-0.6274,-0.6293,-0.6621,-0.7054,-0.7669,-0.8109,-0.8636,-0.9013,-0.9461,-1.0065,-1.0632,-1.1213,-1.1618,-1.2067,-1.2662,-1.3202,-1.3865,-2.5119,-2.5221,-2.5459,-2.5617,-2.5619,-2.5837,-2.5721,-2.5475,-2.5669,-2.5743,-2.573,-2.5693,-2.5778,-2.606,-2.6371,-2.6512,-2.6646,-2.6978,-2.6845,-2.6173,-2.6191,-2.6237,-2.6225,-2.5797,-2.5423,-2.5052,-2.4398,-2.3967,-2.371,-2.3085,-2.2644,-2.2509,-2.1812,-2.1451,-2.1241,-2.0545,-1.9899,-1.956,-1.9445,-1.9079,-1.8679,-1.8739,-1.858,-1.8286,-1.8145,-1.7988,-1.7479,-1.7084,-1.6747,-1.6538,-1.6621,-1.6788,-1.6684,-1.658,-1.6668,-1.6984,-1.7278,-1.7175,-1.7087,-1.7007,-1.7022,-1.6911,-1.6815,-1.6632,-1.647,-1.6042,-1.5686,-1.5411,-1.4943,-1.4398,-1.3948,-1.387,-1.3074,-1.1196,-1.0975,-1.0933,-1.0586,-1.0089,-0.9422,-0.887,-0.8703,-0.8653,-0.8545,-0.8434,-0.8238,-0.8048,-0.7902,-0.7733,-0.7637,-0.7637,-0.7935,-0.7925,-0.8065,-0.8133,-0.7986,-0.7911,-0.7692,-0.7343,-0.7191,-0.6939,-0.7252,-0.7584,-0.8109,-0.8719,-0.9253,-0.9749,-1.0201,-1.073,-1.1215,-1.1721,-1.2152,-1.2738,-1.3362,-1.3885,-1.4441,-2.5119,-2.5229,-2.545,-2.5679,-2.5898,-2.6017,-2.5991,-2.5901,-2.6089,-2.6157,-2.6175,-2.6244,-2.6436,-2.6693,-2.7026,-2.7246,-2.7391,-2.7854,-2.768,-2.7007,-2.695,-2.6997,-2.6937,-2.6248,-2.5787,-2.5326,-2.4908,-2.4584,-2.4557,-2.3688,-2.3164,-2.3062,-2.2207,-2.1717,-2.1615,-2.1019,-2.0499,-2.0319,-2.0187,-1.993,-1.9651,-1.9582,-1.9411,-1.9124,-1.9062,-1.8892,-1.859,-1.827,-1.7916,-1.7467,-1.7499,-1.7477,-1.7461,-1.743,-1.7497,-1.7714,-1.8119,-1.8321,-1.8087,-1.8119,-1.799,-1.799,-1.7893,-1.7811,-1.755,-1.7086,-1.6726,-1.6273,-1.6022,-1.5643,-1.5297,-1.5094,-1.4339,-1.3037,-1.2494,-1.204,-1.1619,-1.0995,-1.0382,-0.9912,-0.9652,-0.9612,-0.9485,-0.9221,-0.9126,-0.8931,-0.8733,-0.8634,-0.8432,-0.8428,-0.8531,-0.863,-0.851,-0.8598,-0.881,-0.8724,-0.8612,-0.8328,-0.8037,-0.784,-0.7882,-0.8212,-0.8727,-0.9248,-0.9859,-1.0294,-1.0752,-1.1193,-1.173,-1.2175,-1.2773,-1.3406,-1.402,-1.4496,-1.5007,-2.5026,-2.5229,-2.5229,-2.5569,-2.6017,-2.6127,-2.6218,-2.6564,-2.6554,-2.6636,-2.6626,-2.6769,-2.7121,-2.7384,-2.7669,-2.7902,-2.8281,-2.8271,-2.8165,-2.8087,-2.8058,-2.7892,-2.7476,-2.674,-2.6106,-2.5537,-2.5236,-2.5086,-2.5059,-2.4171,-2.3659,-2.3469,-2.246,-2.1742,-2.1632,-2.1224,-2.0909,-2.0979,-2.0885,-2.071,-2.0432,-2.0524,-2.0349,-2.0013,-1.9981,-1.983,-1.9542,-1.9573,-1.9201,-1.8319,-1.8234,-1.8211,-1.8234,-1.8635,-1.8748,-1.8732,-1.9396,-1.9538,-1.9554,-1.9273,-1.9389,-1.9372,-1.9174,-1.9096,-1.8724,-1.831,-1.7849,-1.7394,-1.7152,-1.6915,-1.6734,-1.6425,-1.594,-1.5298,-1.4039,-1.3182,-1.2608,-1.2134,-1.1623,-1.1063,-1.09,-1.0806,-1.0408,-1.0212,-0.992,-0.9723,-0.9426,-0.9229,-0.9027,-0.9023,-0.8924,-0.9023,-0.9221,-0.932,-0.9616,-0.9596,-0.9563,-0.9461,-0.9157,-0.8852,-0.8637,-0.8941,-0.9253,-0.9859,-1.0376,-1.0809,-1.1235,-1.1752,-1.2357,-1.3068,-1.3659,-1.423,-1.4629,-1.4982,-1.5464,-2.5119,-2.5221,-2.545,-2.5789,-2.6127,-2.6127,-2.6245,-2.6582,-2.6591,-2.6682,-2.689,-2.6989,-2.7314,-2.7745,-2.7853,-2.8077,-2.8291,-2.8301,-2.8301,-2.8301,-2.8301,-2.7921,-2.7611,-2.7264,-2.6761,-2.6304,-2.5922,-2.5697,-2.5669,-2.4763,-2.4138,-2.3856,-2.2946,-2.2297,-2.197,-2.164,-2.1522,-2.153,-2.1522,-2.1497,-2.1407,-2.1366,-2.1203,-2.0876,-2.0835,-2.0663,-2.0369,-2.0424,-2.0112,-1.9269,-1.9212,-1.922,-1.9228,-1.9212,-1.9304,-1.9487,-1.9596,-1.9795,-1.9679,-1.9679,-1.9671,-1.9754,-1.9671,-1.9571,-1.9563,-1.9188,-1.8627,-1.8257,-1.8071,-1.7807,-1.7347,-1.7246,-1.6958,-1.6197,-1.4968,-1.3808,-1.3301,-1.2948,-1.2565,-1.2078,-1.178,-1.159,-1.1296,-1.0998,-1.0806,-1.0507,-1.031,-1.0212,-1.0015,-0.9813,-0.9813,-0.9916,-1.0117,-1.0216,-1.031,-1.0408,-1.0414,-1.05,-1.0282,-1.0067,-0.9754,-0.9689,-1.0076,-1.0467,-1.0895,-1.1327,-1.1757,-1.2186,-1.296,-1.3737,-1.4075,-1.4496,-1.4985,-1.5448,-1.5861,-2.5128,-2.5221,-2.545,-2.5679,-2.5907,-2.6017,-2.6236,-2.6354,-2.6582,-2.6691,-2.6781,-2.6989,-2.7206,-2.7638,-2.7853,-2.8067,-2.8291,-2.8301,-2.8301,-2.8301,-2.8301,-2.796,-2.753,-2.7431,-2.7215,-2.6772,-2.6442,-2.6341,-2.6249,-2.5272,-2.465,-2.4359,-2.3425,-2.2736,-2.2408,-2.2264,-2.207,-2.186,-2.1818,-2.1827,-2.1827,-2.1843,-2.1643,-2.1436,-2.1403,-2.1246,-2.1137,-2.0937,-2.0637,-2.0226,-2.0135,-2.0154,-2.0004,-2.0155,-2.0088,-2.007,-2.0226,-2.0309,-2.0209,-2.011,-2.0192,-2.0283,-2.03,-2.0317,-2.0201,-1.9828,-1.9455,-1.8996,-1.8819,-1.8357,-1.7978,-1.7714,-1.7535,-1.6965,-1.5818,-1.4758,-1.428,-1.3811,-1.3426,-1.2948,-1.2657,-1.2365,-1.2175,-1.1883,-1.1688,-1.1487,-1.1194,-1.1096,-1.09,-1.0801,-1.0699,-1.0801,-1.0998,-1.1096,-1.1292,-1.1389,-1.1556,-1.1542,-1.149,-1.1263,-1.0791,-1.0582,-1.0778,-1.116,-1.1499,-1.1843,-1.2272,-1.2784,-1.347,-1.4068,-1.4321,-1.4824,-1.5409,-1.5816,-1.6229,-2.4915,-2.511,-2.511,-2.534,-2.5688,-2.5898,-2.6008,-2.6127,-2.6354,-2.6591,-2.6709,-2.6936,-2.7229,-2.7389,-2.7886,-2.8134,-2.8369,-2.8564,-2.8516,-2.8535,-2.8525,-2.8201,-2.7672,-2.7568,-2.7323,-2.698,-2.6691,-2.6754,-2.6633,-2.573,-2.5147,-2.4854,-2.3952,-2.3334,-2.3037,-2.2961,-2.2654,-2.2393,-2.235,-2.23,-2.2257,-2.2156,-2.2123,-2.1979,-2.1954,-2.1938,-2.1858,-2.1595,-2.1286,-2.1075,-2.1097,-2.1009,-2.0746,-2.1197,-2.1159,-2.1024,-2.1072,-2.1137,-2.1057,-2.0937,-2.0922,-2.1039,-2.1212,-2.1158,-2.0771,-2.0473,-2.0093,-1.9637,-1.9188,-1.8912,-1.8542,-1.8179,-1.7908,-1.7628,-1.7059,-1.6292,-1.5527,-1.4771,-1.4196,-1.3703,-1.3426,-1.3147,-1.2953,-1.2759,-1.2559,-1.2457,-1.2262,-1.2262,-1.217,-1.2078,-1.1873,-1.1673,-1.1873,-1.197,-1.217,-1.2462,-1.2614,-1.2693,-1.2709,-1.2415,-1.1822,-1.1609,-1.1629,-1.1849,-1.202,-1.2363,-1.279,-1.3385,-1.3977,-1.4482,-1.4901,-1.5409,-1.5997,-1.6237,-1.6566,-2.4821,-2.4923,-2.4923,-2.5017,-2.534,-2.534,-2.5688,-2.6154,-2.6154,-2.6427,-2.6664,-2.7022,-2.7262,-2.7622,-2.8198,-2.863,-2.8887,-2.9108,-2.9297,-2.9297,-2.9297,-2.8862,-2.8362,-2.7975,-2.7558,-2.7107,-2.6989,-2.6989,-2.6825,-2.6327,-2.5621,-2.5129,-2.4834,-2.4358,-2.3921,-2.3966,-2.3895,-2.3384,-2.3203,-2.2937,-2.2612,-2.2687,-2.278,-2.2745,-2.2846,-2.3011,-2.305,-2.2953,-2.2909,-2.267,-2.217,-2.1822,-2.1795,-2.1958,-2.1972,-2.1884,-2.1866,-2.1884,-2.1884,-2.1684,-2.1511,-2.1769,-2.1624,-2.1325,-2.123,-2.1041,-2.0654,-2.0283,-2.0019,-1.9646,-1.9096,-1.8735,-1.8558,-1.8288,-1.7815,-1.7434,-1.6965,-1.5913,-1.5146,-1.486,-1.4388,-1.401,-1.401,-1.3715,-1.3516,-1.3329,-1.3329,-1.3431,-1.334,-1.3249,-1.305,-1.2743,-1.284,-1.3039,-1.3136,-1.3329,-1.3488,-1.3706,-1.3649,-1.3609,-1.2981,-1.2551,-1.2516,-1.2525,-1.2448,-1.2875,-1.3385,-1.3815,-1.4412,-1.4901,-1.5394,-1.5816,-1.6237,-1.6566,-1.6894,-2.5068,-2.5343,-2.5457,-2.5665,-2.5761,-2.6107,-2.6341,-2.6686,-2.6798,-2.7021,-2.7178,-2.738,-2.7678,-2.7921,-2.8455,-2.8888,-2.9132,-2.9458,-2.956,-2.9551,-2.9551,-2.9332,-2.8945,-2.8645,-2.8305,-2.7526,-2.7206,-2.7206,-2.6989,-2.6654,-2.6118,-2.5621,-2.5477,-2.5057,-2.4632,-2.4801,-2.4483,-2.4078,-2.386,-2.3573,-2.3388,-2.3556,-2.3414,-2.3291,-2.3347,-2.3456,-2.3338,-2.3347,-2.3538,-2.3538,-2.3135,-2.2813,-2.267,-2.273,-2.2754,-2.2591,-2.2564,-2.265,-2.2614,-2.2474,-2.2366,-2.2723,-2.2501,-2.2364,-2.2135,-2.1835,-2.1437,-2.0978,-2.0654,-2.0201,-1.9654,-1.9296,-1.912,-1.9028,-1.8651,-1.8458,-1.8179,-1.6951,-1.5913,-1.5818,-1.5343,-1.5057,-1.4771,-1.4669,-1.4484,-1.4394,-1.4106,-1.4208,-1.4106,-1.4016,-1.3919,-1.3811,-1.3908,-1.4106,-1.4202,-1.4292,-1.4364,-1.4463,-1.449,-1.4501,-1.4145,-1.3729,-1.3461,-1.3349,-1.323,-1.3476,-1.3977,-1.4412,-1.4838,-1.5325,-1.5816,-1.6221,-1.655,-1.6968,-1.7221,-2.5405,-2.605,-2.6264,-2.638,-2.6504,-2.6946,-2.7158,-2.729,-2.7651,-2.7664,-2.7897,-2.7934,-2.8199,-2.8445,-2.889,-2.9107,-2.9476,-2.9721,-2.9922,-2.9912,-3.0035,-2.9814,-2.9585,-2.957,-2.9268,-2.8211,-2.7819,-2.7672,-2.7342,-2.6881,-2.6418,-2.61,-2.6008,-2.5702,-2.5361,-2.5299,-2.5228,-2.4765,-2.4447,-2.4149,-2.41,-2.4271,-2.4194,-2.3862,-2.3764,-2.3755,-2.3746,-2.3746,-2.3836,-2.4134,-2.4223,-2.395,-2.3642,-2.3514,-2.3616,-2.3275,-2.3321,-2.3444,-2.3539,-2.3437,-2.3391,-2.3805,-2.3786,-2.3578,-2.3192,-2.2768,-2.2327,-2.178,-2.1275,-2.0654,-2.011,-1.9845,-1.9671,-1.9579,-1.9379,-1.9288,-1.9004,-1.7893,-1.7232,-1.6763,-1.6292,-1.5913,-1.5724,-1.5527,-1.5452,-1.5267,-1.5077,-1.4975,-1.4879,-1.4873,-1.4873,-1.4962,-1.5057,-1.5153,-1.5255,-1.5248,-1.5419,-1.5461,-1.5411,-1.5385,-1.5344,-1.5187,-1.4851,-1.4256,-1.4196,-1.4385,-1.4635,-1.4943,-1.5362,-1.5839,-1.6154,-1.6566,-1.6968,-1.7456,-1.7652,-2.599,-2.6264,-2.638,-2.6504,-2.6867,-2.6982,-2.7141,-2.7326,-2.7715,-2.7888,-2.8189,-2.8794,-2.9059,-2.9249,-2.9804,-3.0277,-3.0431,-3.0518,-3.0557,-3.0672,-3.0758,-3.0754,-3.0488,-3.0335,-3.0152,-2.9515,-2.8833,-2.8077,-2.7536,-2.7098,-2.6663,-2.6236,-2.6354,-2.6273,-2.6136,-2.6118,-2.6027,-2.5602,-2.5387,-2.5101,-2.4841,-2.4792,-2.4957,-2.4739,-2.4672,-2.4613,-2.4566,-2.4646,-2.4726,-2.4726,-2.4735,-2.4688,-2.4613,-2.4594,-2.4538,-2.4453,-2.4291,-2.4253,-2.4475,-2.4541,-2.4409,-2.4326,-2.4326,-2.4117,-2.371,-2.3456,-2.3185,-2.2565,-2.178,-2.114,-2.0663,-2.0408,-2.011,-1.9928,-1.9754,-1.9571,-1.9479,-1.9104,-1.845,-1.7978,-1.7326,-1.6763,-1.6662,-1.6473,-1.6292,-1.6204,-1.6109,-1.6015,-1.6015,-1.6015,-1.6109,-1.6204,-1.6298,-1.6298,-1.6298,-1.6298,-1.6379,-1.6574,-1.6563,-1.6643,-1.6607,-1.6591,-1.631,-1.5772,-1.5308,-1.5247,-1.5483,-1.5698,-1.608,-1.656,-1.679,-1.6934,-1.7475,-1.8011,-1.8057,-2.6446,-2.6964,-2.709,-2.7461,-2.7714,-2.793,-2.8047,-2.8173,-2.8505,-2.8737,-2.9025,-2.9408,-2.9609,-2.9783,-3.015,-3.0635,-3.0889,-3.1122,-3.1112,-3.1218,-3.1421,-3.1476,-3.1237,-3.1132,-3.075,-3.031,-2.9668,-2.8887,-2.801,-2.7418,-2.7027,-2.6663,-2.6781,-2.6682,-2.6673,-2.6862,-2.6788,-2.6486,-2.6449,-2.6282,-2.5789,-2.5709,-2.5638,-2.5637,-2.5399,-2.5291,-2.5225,-2.5007,-2.4941,-2.503,-2.5137,-2.5147,-2.5235,-2.5235,-2.5235,-2.4932,-2.4824,-2.4913,-2.503,-2.5128,-2.5004,-2.5083,-2.5035,-2.4833,-2.4525,-2.4248,-2.3879,-2.3232,-2.2574,-2.1962,-2.1608,-2.1157,-2.0762,-2.0555,-2.0374,-2.03,-2.0119,-2.0019,-1.9646,-1.9096,-1.8535,-1.7971,-1.7606,-1.7412,-1.7225,-1.7131,-1.7044,-1.7044,-1.7052,-1.7052,-1.7052,-1.7052,-1.7052,-1.7145,-1.7145,-1.7232,-1.7318,-1.752,-1.7692,-1.768,-1.7811,-1.7797,-1.7774,-1.7462,-1.7063,-1.6491,-1.6552,-1.6814,-1.7156,-1.7323,-1.7692,-1.7961,-1.8221,-1.8547,-1.8611,-2.6773,-2.7521,-2.7891,-2.8157,-2.8517,-2.8865,-2.9076,-2.9222,-2.9422,-2.963,-2.9686,-3.003,-3.0138,-3.0157,-3.0499,-3.0752,-3.1122,-3.1334,-3.145,-3.1441,-3.1787,-3.1893,-3.1787,-3.1642,-3.1347,-3.0953,-3.0364,-2.9702,-2.8689,-2.8029,-2.7484,-2.7229,-2.7201,-2.7098,-2.7098,-2.7215,-2.7431,-2.7431,-2.7422,-2.7242,-2.693,-2.6665,-2.6418,-2.637,-2.6111,-2.5901,-2.5863,-2.5519,-2.5446,-2.5477,-2.5508,-2.544,-2.5635,-2.5732,-2.5528,-2.5137,-2.5039,-2.5235,-2.5333,-2.5323,-2.5411,-2.547,-2.5713,-2.5518,-2.5379,-2.4964,-2.4694,-2.3992,-2.3445,-2.2915,-2.2594,-2.2026,-2.1654,-2.1302,-2.1167,-2.1006,-2.0736,-2.0645,-2.0546,-2.0093,-1.9554,-1.918,-1.8796,-1.8519,-1.8419,-1.8064,-1.7978,-1.7792,-1.7893,-1.78,-1.78,-1.7699,-1.7699,-1.78,-1.7893,-1.8071,-1.8249,-1.8527,-1.8619,-1.8748,-1.8848,-1.8948,-1.8915,-1.8752,-1.847,-1.8,-1.7985,-1.7898,-1.7965,-1.8165,-1.8587,-1.8939,-1.9041,-1.9184,-1.9326,-2.7142,-2.7513,-2.7891,-2.8148,-2.8517,-2.8865,-2.9222,-2.945,-2.9686,-3.0039,-3.0265,-3.0635,-3.0772,-3.0879,-3.0986,-3.1325,-3.1556,-3.1672,-3.1787,-3.1787,-3.2018,-3.2248,-3.2248,-3.2258,-3.1872,-3.1461,-3.0859,-3.0094,-2.9205,-2.868,-2.822,-2.7943,-2.7659,-2.7342,-2.7517,-2.7558,-2.7431,-2.7431,-2.7431,-2.7394,-2.7387,-2.7401,-2.7332,-2.7159,-2.6869,-2.673,-2.6681,-2.6352,-2.6229,-2.617,-2.5839,-2.5664,-2.5732,-2.5732,-2.5742,-2.5645,-2.5635,-2.5635,-2.5635,-2.5625,-2.5635,-2.583,-2.5917,-2.5964,-2.5912,-2.5779,-2.5391,-2.501,-2.4516,-2.4006,-2.354,-2.2953,-2.2501,-2.2144,-2.1826,-2.1491,-2.114,-2.1275,-2.1177,-2.1087,-2.0637,-2.0266,-1.9886,-1.9704,-1.953,-1.9263,-1.9004,-1.8819,-1.8727,-1.8635,-1.8635,-1.8627,-1.8627,-1.8719,-1.8812,-1.8904,-1.908,-1.9446,-1.953,-1.9712,-1.9812,-1.982,-2.0011,-1.9819,-1.9577,-1.9289,-1.9018,-1.8899,-1.8754,-1.9031,-1.9453,-1.96,-1.9742,-1.9862,-2.009,-2.7056,-2.7513,-2.7891,-2.8148,-2.8517,-2.8865,-2.9213,-2.9568,-2.9804,-3.0039,-3.0392,-3.0762,-3.1005,-3.1228,-3.145,-3.1672,-3.1787,-3.2018,-3.2133,-3.2143,-3.2373,-3.2487,-3.2487,-3.2373,-3.2143,-3.1737,-3.1271,-3.0827,-3.0032,-2.9321,-2.8751,-2.8684,-2.8239,-2.8029,-2.7972,-2.7978,-2.7891,-2.797,-2.7862,-2.7853,-2.7921,-2.7931,-2.7931,-2.7776,-2.7454,-2.7402,-2.7285,-2.7123,-2.6898,-2.668,-2.6338,-2.6202,-2.6202,-2.6074,-2.6014,-2.612,-2.612,-2.611,-2.6004,-2.5917,-2.6024,-2.612,-2.6304,-2.6284,-2.635,-2.623,-2.6194,-2.5919,-2.5521,-2.5012,-2.452,-2.4025,-2.3585,-2.3119,-2.2684,-2.2316,-2.197,-2.1848,-2.1811,-2.1722,-2.1633,-2.1347,-2.0979,-2.0799,-2.0529,-2.0266,-2.0002,-1.982,-1.9737,-1.9646,-1.9646,-1.9646,-1.9646,-1.9646,-1.9737,-1.9911,-2.0002,-2.0275,-2.0357,-2.0538,-2.0538,-2.0637,-2.0736,-2.0727,-2.0451,-2.0167,-1.9992,-1.9915,-1.9858,-2.0034,-2.0237,-2.0403,-2.0584,-2.0902,-2.1107,-2.7056,-2.7513,-2.7891,-2.8148,-2.8526,-2.8865,-2.9213,-2.9568,-2.9804,-3.0157,-3.0509,-3.0879,-3.1218,-3.1441,-3.1787,-3.2018,-3.2018,-3.2258,-3.2373,-3.2498,-3.2612,-3.2612,-3.2612,-3.2487,-3.2258,-3.1913,-3.1757,-3.1371,-3.0741,-3.0169,-2.9666,-2.9379,-2.8974,-2.88,-2.8804,-2.8639,-2.8573,-2.8388,-2.8369,-2.8417,-2.8398,-2.8514,-2.8591,-2.8386,-2.8084,-2.7878,-2.7963,-2.7752,-2.7525,-2.7416,-2.707,-2.6933,-2.6963,-2.6655,-2.6553,-2.659,-2.653,-2.64,-2.6304,-2.6304,-2.6304,-2.64,-2.6602,-2.6592,-2.6678,-2.6688,-2.6592,-2.6542,-2.632,-2.5834,-2.5526,-2.5041,-2.4648,-2.4268,-2.3852,-2.3376,-2.2975,-2.2839,-2.2396,-2.2078,-2.2078,-2.2344,-2.2069,-2.1802,-2.1535,-2.1266,-2.1096,-2.0916,-2.0736,-2.0645,-2.0645,-2.0645,-2.0645,-2.0645,-2.0826,-2.0916,-2.1015,-2.1096,-2.1186,-2.1356,-2.1356,-2.1445,-2.1445,-2.1356,-2.1266,-2.1311,-2.1114,-2.1025,-2.0916,-2.0953,-2.1042,-2.1328,-2.1551,-2.1731,-2.1891,-2.7177,-2.7521,-2.7891,-2.8148,-2.8517,-2.8865,-2.9331,-2.9804,-2.9922,-3.0284,-3.0879,-3.1218,-3.1441,-3.1787,-3.2133,-3.2373,-3.2612,-3.2612,-3.2612,-3.2612,-3.2727,-3.2727,-3.2612,-3.2612,-3.2487,-3.2258,-3.2133,-3.1787,-3.1431,-3.107,-3.0649,-3.0156,-2.9736,-2.958,-2.9482,-2.9466,-2.9231,-2.9085,-2.8907,-2.8827,-2.8903,-2.899,-2.9172,-2.9036,-2.8996,-2.8966,-2.8956,-2.8689,-2.8354,-2.8324,-2.7821,-2.7703,-2.7713,-2.7341,-2.714,-2.7168,-2.6972,-2.684,-2.6906,-2.6633,-2.6496,-2.6592,-2.6784,-2.7071,-2.7156,-2.7262,-2.7177,-2.6986,-2.6853,-2.6672,-2.6265,-2.5999,-2.554,-2.5194,-2.4771,-2.4375,-2.3968,-2.3654,-2.3275,-2.2653,-2.2558,-2.2978,-2.296,-2.2687,-2.2432,-2.2167,-2.1989,-2.1811,-2.1722,-2.1633,-2.1633,-2.1633,-2.1544,-2.1731,-2.1909,-2.1998,-2.1909,-2.19,-2.2078,-2.2167,-2.2255,-2.2255,-2.2157,-2.2157,-2.2069,-2.2255,-2.2255,-2.1989,-2.182,-2.1741,-2.183,-2.1909,-2.2087,-2.2264,-2.2353,-2.765,-2.8148,-2.8277,-2.8397,-2.8517,-2.9103,-2.9568,-2.9922,-3.0157,-3.0509,-3.1112,-3.1441,-3.1787,-3.2143,-3.2373,-3.2612,-3.2727,-3.2727,-3.2727,-3.2727,-3.2727,-3.2727,-3.2727,-3.2612,-3.2612,-3.2373,-3.2248,-3.2133,-3.1672,-3.1556,-3.1496,-3.1082,-3.0374,-3.0256,-3.0157,-3.0194,-3.0058,-2.9709,-2.9312,-2.9045,-2.9397,-2.9293,-2.9288,-2.9132,-2.9132,-2.9132,-2.9112,-2.9408,-2.9191,-2.8894,-2.8448,-2.841,-2.8493,-2.8096,-2.7992,-2.802,-2.7729,-2.762,-2.7486,-2.716,-2.689,-2.7156,-2.7441,-2.7631,-2.762,-2.7715,-2.7631,-2.7452,-2.7357,-2.7167,-2.6733,-2.6547,-2.633,-2.6124,-2.5704,-2.5252,-2.4881,-2.4572,-2.4185,-2.3563,-2.3595,-2.3732,-2.3662,-2.3493,-2.3232,-2.3067,-2.2882,-2.2706,-2.252,-2.2432,-2.2432,-2.2432,-2.2432,-2.2432,-2.2618,-2.2706,-2.2706,-2.2794,-2.2794,-2.2794,-2.2784,-2.2794,-2.2784,-2.2784,-2.2784,-2.2784,-2.2784,-2.2794,-2.2618,-2.2353,-2.2264,-2.2353,-2.253,-2.2794,-2.2882,-2.8011,-2.8526,-2.8636,-2.8636,-2.8755,-2.9213,-2.9686,-2.9922,-3.0274,-3.0743,-3.1325,-3.1672,-3.2018,-3.2248,-3.2612,-3.2727,-3.2727,-3.2727,-3.2727,-3.2727,-3.2727,-3.2727,-3.2727,-3.2612,-3.2612,-3.2487,-3.2373,-3.2258,-3.2018,-3.1913,-3.1883,-3.1542,-3.1152,-3.0908,-3.0893,-3.081,-3.0671,-3.0419,-3.0068,-2.9659,-3.0045,-2.9947,-2.9839,-2.9642,-2.956,-2.9448,-2.9469,-2.969,-2.97,-2.9462,-2.9164,-2.9125,-2.9055,-2.8931,-2.8755,-2.8769,-2.8729,-2.8621,-2.8261,-2.784,-2.7367,-2.762,-2.7809,-2.7893,-2.7987,-2.7987,-2.782,-2.7726,-2.7726,-2.7536,-2.7167,-2.7115,-2.6999,-2.6781,-2.6615,-2.6215,-2.5765,-2.543,-2.5017,-2.4606,-2.4526,-2.4275,-2.428,-2.4079,-2.3754,-2.358,-2.3406,-2.3232,-2.3232,-2.3135,-2.3222,-2.3222,-2.3222,-2.3222,-2.3309,-2.3309,-2.3319,-2.3232,-2.3319,-2.3309,-2.3309,-2.3309,-2.3319,-2.3319,-2.3309,-2.3309,-2.3309,-2.3319,-2.3057,-2.2882,-2.2882,-2.2882,-2.3057,-2.3319,-2.3319,-2.8259,-2.8526,-2.8865,-2.8984,-2.9103,-2.9331,-2.9677,-3.0039,-3.0392,-3.085,-3.1334,-3.1672,-3.2018,-3.2373,-3.2612,-3.2727,-3.2727,-3.2727,-3.2727,-3.2727,-3.2727,-3.2727,-3.2727,-3.2727,-3.2612,-3.2727,-3.2612,-3.2487,-3.2258,-3.2258,-3.2133,-3.2018,-3.1937,-3.1792,-3.1707,-3.1335,-3.1124,-3.1033,-3.0974,-3.0911,-3.0898,-3.0807,-3.0708,-3.0594,-3.0041,-2.9856,-3.0034,-2.9941,-2.992,-2.9743,-2.9723,-2.9755,-2.9714,-2.9693,-2.9597,-2.9656,-2.9558,-2.9232,-2.8764,-2.8274,-2.8083,-2.8008,-2.8092,-2.8175,-2.8092,-2.8092,-2.8092,-2.7998,-2.7998,-2.7998,-2.7809,-2.7736,-2.7641,-2.741,-2.7232,-2.7044,-2.6671,-2.6444,-2.6126,-2.5635,-2.5037,-2.4593,-2.4706,-2.46,-2.4268,-2.4013,-2.3841,-2.3754,-2.3841,-2.3927,-2.4003,-2.4003,-2.4003,-2.4003,-2.4003,-2.3917,-2.3841,-2.3841,-2.3831,-2.3917,-2.3907,-2.3993,-2.3917,-2.3841,-2.3927,-2.4003,-2.3917,-2.3831,-2.3744,-2.3744,-2.358,-2.358,-2.3667,-2.3754,-2.3841,-2.9094,-2.9213,-2.945,-2.9568,-2.9686,-2.9922,-3.0147,-3.0274,-3.0743,-3.1208,-3.1672,-3.2018,-3.2258,-3.2498,-3.2612,-3.2727,-3.2727,-3.2727,-3.2727,-3.2727,-3.2727,-3.2727,-3.2727,-3.2727,-3.2727,-3.2727,-3.2727,-3.2727,-3.2612,-3.2602,-3.2727,-3.2727,-3.2716,-3.2602,-3.2342,-3.2178,-3.2499,-3.2519,-3.2288,-3.2227,-3.2175,-3.1938,-3.1674,-3.1653,-3.068,-3.0336,-3.0579,-3.0296,-3.0056,-3.0005,-2.9994,-2.9994,-2.9994,-3.0036,-3.0139,-3.0147,-3.0125,-3.0076,-2.9699,-2.9234,-2.8812,-2.8556,-2.8384,-2.8477,-2.8571,-2.8571,-2.8477,-2.829,-2.829,-2.8186,-2.7998,-2.804,-2.7946,-2.7809,-2.7757,-2.7652,-2.7515,-2.7494,-2.7222,-2.6712,-2.6144,-2.5595,-2.5373,-2.5149,-2.4792,-2.4625,-2.4519,-2.4433,-2.4433,-2.469,-2.4765,-2.4775,-2.4775,-2.4775,-2.469,-2.4519,-2.4519,-2.4519,-2.4605,-2.4765,-2.4765,-2.4594,-2.4594,-2.4519,-2.4605,-2.469,-2.4605,-2.4519,-2.469,-2.469,-2.4348,-2.4013,-2.4013,-2.411,-2.4282,-2.9568,-2.9686,-2.9922,-3.0039,-3.0157,-3.0265,-3.0509,-3.0743,-3.1092,-3.1556,-3.1903,-3.2248,-3.2487,-3.2612,-3.2727,-3.2727,-3.2727,-3.2727,-3.2727,-3.2727,-3.2727,-3.2727,-3.2727,-3.2727,-3.2727,-3.2737,-3.2851,-3.2851,-3.2851,-3.2955,-3.3069,-3.3296,-3.3523,-3.3172,-3.2934,-3.3151,-3.3264,-3.317,-3.304,-3.3056,-3.2918,-3.2774,-3.2476,-3.2219,-3.1664,-3.1199,-3.1052,-3.0736,-3.0381,-3.0192,-3.0015,-3.0005,-3.0099,-3.0193,-3.0401,-3.0472,-3.0563,-3.0578,-3.0319,-3.0002,-2.9524,-2.9211,-2.9008,-2.8779,-2.885,-2.8757,-2.8664,-2.8571,-2.8477,-2.8384,-2.829,-2.8438,-2.8344,-2.8207,-2.8081,-2.807,-2.7966,-2.7934,-2.7808,-2.7418,-2.6988,-2.6542,-2.6013,-2.5643,-2.5305,-2.5243,-2.5115,-2.5115,-2.5031,-2.52,-2.5285,-2.5285,-2.52,-2.5115,-2.5031,-2.5031,-2.5031,-2.52,-2.52,-2.5285,-2.5189,-2.4935,-2.5105,-2.52,-2.5115,-2.5031,-2.5115,-2.5115,-2.5115,-2.4946,-2.4775,-2.4519,-2.4262,-2.4444,-2.4711,-2.9667,-2.9931,-3.0265,-3.0509,-3.0499,-3.0509,-3.0859,-3.1334,-3.1325,-3.1672,-3.2258,-3.2248,-3.2487,-3.2612,-3.2727,-3.2727,-3.2727,-3.2727,-3.2727,-3.2727,-3.2727,-3.2727,-3.2727,-3.2737,-3.2841,-3.2965,-3.3079,-3.3193,-3.3193,-3.3409,-3.3523,-3.3636,-3.3749,-3.3625,-3.3625,-3.3625,-3.3749,-3.3593,-3.3674,-3.3701,-3.3604,-3.3279,-3.3197,-3.3026,-3.2758,-3.2146,-3.1805,-3.1337,-3.082,-3.0485,-3.0067,-3.0036,-3.0109,-3.0297,-3.0505,-3.07,-3.0878,-3.0928,-3.0865,-3.0482,-3.0264,-2.9894,-2.9379,-2.8997,-2.8905,-2.8927,-2.8757,-2.8757,-2.8664,-2.8757,-2.8768,-2.8707,-2.8657,-2.8427,-2.8196,-2.8186,-2.8081,-2.807,-2.807,-2.7774,-2.7455,-2.6987,-2.6413,-2.6085,-2.5873,-2.5658,-2.5604,-2.5464,-2.538,-2.538,-2.5464,-2.5369,-2.5369,-2.5285,-2.5285,-2.5369,-2.5369,-2.5464,-2.5369,-2.5369,-2.5285,-2.5285,-2.5369,-2.5454,-2.5285,-2.5285,-2.5369,-2.538,-2.5295,-2.5211,-2.5115,-2.4946,-2.4775,-2.4956,-2.5126,-2.9997,-3.0606,-3.0976,-3.1208,-3.1441,-3.1431,-3.1546,-3.1672,-3.1913,-3.2143,-3.2363,-3.2487,-3.2612,-3.2727,-3.2727,-3.2727,-3.2727,-3.2727,-3.2727,-3.2727,-3.2841,-3.2851,-3.2965,-3.3079,-3.3193,-3.3296,-3.3409,-3.3523,-3.3533,-3.3749,-3.3974,-3.3974,-3.4086,-3.4188,-3.4188,-3.4188,-3.4086,-3.4086,-3.4076,-3.4188,-3.4188,-3.4004,-3.3928,-3.382,-3.344,-3.2855,-3.2455,-3.1941,-3.1291,-3.0701,-3.0491,-3.0387,-3.0005,-3.0297,-3.0599,-3.1013,-3.1283,-3.1411,-3.1334,-3.0963,-3.0701,-3.0614,-3.0089,-2.9652,-2.9336,-2.9052,-2.8948,-2.8872,-2.8861,-2.885,-2.885,-2.879,-2.8718,-2.8603,-2.8477,-2.8466,-2.8466,-2.8373,-2.8373,-2.8193,-2.7882,-2.7581,-2.699,-2.6648,-2.6444,-2.6163,-2.6021,-2.5858,-2.5644,-2.5644,-2.5559,-2.5549,-2.5549,-2.5549,-2.5633,-2.5728,-2.5728,-2.5728,-2.5633,-2.5633,-2.5633,-2.5633,-2.5728,-2.5633,-2.5549,-2.5633,-2.5728,-2.5644,-2.5559,-2.5644,-2.5644,-2.5464,-2.5369,-2.538,-2.5475,-3.0246,-3.0846,-3.1265,-3.1672,-3.1913,-3.2028,-3.2133,-3.2373,-3.2373,-3.2373,-3.2498,-3.2612,-3.2727,-3.2727,-3.2727,-3.2737,-3.2965,-3.2965,-3.2955,-3.3069,-3.2955,-3.3182,-3.3296,-3.3409,-3.3399,-3.3625,-3.3749,-3.3861,-3.3861,-3.4086,-3.4311,-3.43,-3.4412,-3.4524,-3.4412,-3.4412,-3.4423,-3.43,-3.4412,-3.4524,-3.4524,-3.4524,-3.4524,-3.4357,-3.3953,-3.359,-3.2934,-3.2374,-3.185,-3.1075,-3.0864,-3.0584,-3.0327,-3.0444,-3.062,-3.1023,-3.1403,-3.1472,-3.152,-3.1367,-3.1214,-3.1061,-3.0745,-3.0395,-2.9936,-2.9576,-2.9139,-2.8927,-2.8883,-2.885,-2.885,-2.885,-2.8757,-2.8757,-2.8757,-2.8757,-2.8757,-2.8757,-2.8653,-2.8538,-2.8343,-2.8104,-2.7702,-2.7336,-2.6889,-2.6552,-2.628,-2.6095,-2.592,-2.5812,-2.5812,-2.5812,-2.5812,-2.5812,-2.5895,-2.5895,-2.5895,-2.5812,-2.5812,-2.5812,-2.5895,-2.5895,-2.5812,-2.5812,-2.5895,-2.5895,-2.5812,-2.5895,-2.5812,-2.5895,-2.5895,-2.5728,-2.5633,-2.5644,-2.5728,-3.0384,-3.0853,-3.1606,-3.2133,-3.2373,-3.2363,-3.2716,-3.3193,-3.2716,-3.2602,-3.2727,-3.2851,-3.2841,-3.2955,-3.2955,-3.3079,-3.3182,-3.3182,-3.3296,-3.3625,-3.3512,-3.3512,-3.3636,-3.3625,-3.3738,-3.3851,-3.3974,-3.4086,-3.4199,-3.4311,-3.4412,-3.4524,-3.4524,-3.4524,-3.4524,-3.4524,-3.4412,-3.4412,-3.4412,-3.4524,-3.4524,-3.4524,-3.4524,-3.4524,-3.4325,-3.3993,-3.3236,-3.2791,-3.2543,-3.1652,-3.1122,-3.0884,-3.0639,-3.0748,-3.0883,-3.1034,-3.1322,-3.1527,-3.1618,-3.1531,-3.1553,-3.1422,-3.1214,-3.0908,-3.0472,-2.9958,-2.9478,-2.9074,-2.9019,-2.8866,-2.8833,-2.8872,-2.885,-2.885,-2.885,-2.885,-2.885,-2.885,-2.8757,-2.8642,-2.8598,-2.8359,-2.8185,-2.7829,-2.7501,-2.7009,-2.6551,-2.6354,-2.6179,-2.6016,-2.5917,-2.5906,-2.5895,-2.5895,-2.5895,-2.5895,-2.5895,-2.5895,-2.5895,-2.5895,-2.5895,-2.5895,-2.5895,-2.5895,-2.5895,-2.5895,-2.5895,-2.5895,-2.5895,-2.5895,-2.5895,-2.5895,-2.5895,-2.5812,-2.5822,-3.0308,-3.1492,-3.2427,-3.2955,-3.2965,-3.3182,-3.3399,-3.3523,-3.3399,-3.3296,-3.3409,-3.3399,-3.3399,-3.3285,-3.3296,-3.3409,-3.3523,-3.3523,-3.3512,-3.3625,-3.3625,-3.3851,-3.3974,-3.3963,-3.4076,-3.43,-3.4412,-3.4311,-3.4412,-3.4412,-3.4524,-3.4524,-3.4524,-3.4524,-3.4524,-3.4524,-3.4524,-3.4524,-3.4524,-3.4524,-3.4524,-3.4524,-3.4524,-3.4524,-3.4379,-3.4145,-3.3626,-3.3402,-3.2822,-3.202,-3.1816,-3.1381,-3.0739,-3.1085,-3.1042,-3.1006,-3.1343,-3.1516,-3.1618,-3.1618,-3.1618,-3.1618,-3.1444,-3.1203,-3.0843,-3.0341,-2.9904,-2.9532,-2.9237,-2.9074,-2.8921,-2.8948,-2.8861,-2.8861,-2.885,-2.885,-2.885,-2.885,-2.885,-2.885,-2.885,-2.8659,-2.8506,-2.8287,-2.7981,-2.749,-2.6889,-2.654,-2.6387,-2.6212,-2.5983,-2.5939,-2.5906,-2.5895,-2.5895,-2.5895,-2.5895,-2.5895,-2.5895,-2.5895,-2.5895,-2.5895,-2.5895,-2.5895,-2.5895,-2.5895,-2.5895,-2.5895,-2.5895,-2.5895,-2.5895,-2.5895,-2.5895,-2.5895,-2.5895,-3.0186,-3.1144,-3.2371,-3.3117,-3.3388,-3.3523,-3.3636,-3.3861,-3.3861,-3.3861,-3.3963,-3.3738,-3.3625,-3.3625,-3.3625,-3.3738,-3.3738,-3.3851,-3.3963,-3.3963,-3.3963,-3.4086,-3.4199,-3.43,-3.43,-3.4524,-3.4524,-3.4524,-3.4524,-3.4524,-3.4524,-3.4524,-3.4524,-3.4524,-3.4524,-3.4524,-3.4524,-3.4524,-3.4524,-3.4524,-3.4524,-3.4524,-3.4524,-3.4524,-3.4412,-3.4188,-3.3963,-3.3738,-3.3149,-3.2538,-3.2249,-3.1802,-3.1319,-3.1391,-3.138,-3.1345,-3.1484,-3.1618,-3.164,-3.1629,-3.1629,-3.1618,-3.1618,-3.1367,-3.1367,-3.0898,-3.0493,-3.0133,-2.9849,-2.9663,-2.9431,-2.9288,-2.9036,-2.8844,-2.8883,-2.885,-2.885,-2.885,-2.885,-2.885,-2.885,-2.8828,-2.8626,-2.8604,-2.8287,-2.7949,-2.7348,-2.6889,-2.6693,-2.6312,-2.6073,-2.5983,-2.595,-2.5917,-2.5895,-2.5895,-2.5895,-2.5895,-2.5895,-2.5895,-2.5895,-2.5895,-2.5895,-2.5895,-2.5895,-2.5895,-2.5895,-2.5895,-2.5895,-2.5895,-2.5895,-2.5895,-2.5895,-2.5895,-2.5895,-3.0207,-3.0638,-3.2012,-3.2976,-3.3593,-3.3738,-3.3861,-3.4086,-3.4199,-3.4311,-3.4412,-3.3963,-3.3738,-3.3738,-3.3738,-3.3974,-3.4086,-3.4086,-3.43,-3.4412,-3.4412,-3.4412,-3.4412,-3.4412,-3.4524,-3.4524,-3.4524,-3.4524,-3.4524,-3.4524,-3.4524,-3.4524,-3.4524,-3.4524,-3.4524,-3.4524,-3.4524,-3.4524,-3.4524,-3.4524,-3.4524,-3.4524,-3.4524,-3.4524,-3.4412,-3.4311,-3.4086,-3.3861,-3.3523,-3.317,-3.2703,-3.2295,-3.2138,-3.2072,-3.2019,-3.2006,-3.1837,-3.1891,-3.1782,-3.1695,-3.1651,-3.1618,-3.1618,-3.1618,-3.1597,-3.14,-3.0996,-3.0756,-3.0472,-3.0133,-2.9902,-2.9639,-2.9376,-2.8964,-2.8899,-2.8883,-2.8872,-2.8872,-2.8872,-2.8861,-2.885,-2.885,-2.885,-2.8746,-2.856,-2.8233,-2.7872,-2.7457,-2.6966,-2.6476,-2.6162,-2.6051,-2.6016,-2.5972,-2.5917,-2.5895,-2.5895,-2.5895,-2.5895,-2.5895,-2.5895,-2.5895,-2.5895,-2.5895,-2.5895,-2.5895,-2.5895,-2.5895,-2.5895,-2.5895,-2.5895,-2.5895,-2.5895,-2.5895,-2.5895,-3.0436,-3.1605,-3.248,-3.33,-3.392,-3.4188,-3.4412,-3.4412,-3.4412,-3.4412,-3.4412,-3.4412,-3.43,-3.43,-3.43,-3.4412,-3.43,-3.4423,-3.4412,-3.4524,-3.4524,-3.4524,-3.4524,-3.4524,-3.4524,-3.4524,-3.4524,-3.4524,-3.4524,-3.4524,-3.4524,-3.4524,-3.4524,-3.4524,-3.4524,-3.4524,-3.4524,-3.4524,-3.4524,-3.4524,-3.4524,-3.4524,-3.4524,-3.4524,-3.4524,-3.4311,-3.4199,-3.4097,-3.3872,-3.3604,-3.3283,-3.2966,-3.2902,-3.2964,-3.2836,-3.2576,-3.2409,-3.2241,-3.211,-3.188,-3.1793,-3.1618,-3.1618,-3.1618,-3.1607,-3.1597,-3.1345,-3.1302,-3.0996,-3.0581,-3.0373,-3.0122,-2.9882,-2.9423,-2.9194,-2.8986,-2.8877,-2.8844,-2.8833,-2.8894,-2.885,-2.885,-2.885,-2.885,-2.8746,-2.844,-2.8119,-2.7728,-2.751,-2.691,-2.6303,-2.6162,-2.6157,-2.5983,-2.5895,-2.5895,-2.5895,-2.5895,-2.5895,-2.5895,-2.5895,-2.5895,-2.5895,-2.5895,-2.5895,-2.5895,-2.5895,-2.5895,-2.5895,-2.5895,-2.5895,-2.5895,-2.5895,-2.5895,-2.5895]},{"header":{"parameterUnit":"m.s-1","parameterCategory":1,"la1":31.0,"la2":29.5877,"lo1":-88.7671,"lo2":-86.6584,"dy":0.0162,"dx":0.0185,"nx":115,"ny":88,"refTime":"2023-08-14T06:00:00:Z","depth":0,"parameterNumber":3,"parameterNumberName":"V-component_of_WINDS"},"data":[0.0,0.0,0.0,0.0,0.0,0.0,0.0,0.0,0.0,0.0,0.0,0.0,0.0,0.0,0.0,0.0,0.0,0.0,0.0,0.0,0.0,0.0,0.0,0.0,0.0,0.0,0.0,0.0,0.0,0.0,0.0,0.0,0.0,0.0,0.0,0.0,0.0,0.0,0.0,0.0,0.0,0.0,0.0,0.0,0.0,0.0,0.0,0.0,0.0,0.0,0.0,0.0,0.0,0.0,0.0,0.0,0.0,0.0,0.0,0.0,0.0,0.0,0.0,0.0,0.0,0.0,0.0,0.0,0.0,0.0,0.0,0.0,0.0,0.0,0.0,0.0,0.0,0.0,0.0,0.0,0.0,0.0,0.0,0.0,0.0,0.0,0.0,0.0,0.0,0.0,0.0,0.0,0.0,0.0,0.0,0.0,0.0,0.0,0.0,0.0,0.0,0.0,0.0,0.0,0.0,0.0,0.0,0.0,0.0,0.0,0.0,0.0,0.0,0.0,0.0,0.0,0.0,0.0,0.0,0.0,0.0,0.0,0.0,0.0,0.0,0.0,0.0,0.0,0.0,0.0,0.0,0.0,0.0,0.0,0.0,0.0,0.0,0.0,0.0,0.0,0.0,0.0,0.0,0.0,0.0,0.0,0.0,0.0,0.0,0.0,0.0,0.0,0.0,0.0,0.0,0.0,0.0,0.0,0.0,0.0,0.0,0.0,0.0,0.0,0.0,0.0,0.0,0.0,0.0,0.0,0.0,0.0,0.0,0.0,0.0,0.0,0.0,0.0,0.0,0.0,0.0,0.0,0.0,0.0,0.0,0.0,0.0,0.0,0.0,0.0,0.0,0.0,0.0,0.0,0.0,0.0,0.0,0.0,0.0,0.0,0.0,0.0,0.0,0.0,0.0,0.0,0.0,0.0,0.0,0.0,0.0,0.0,0.0,0.0,0.0,0.0,0.0,0.0,0.0,0.0,0.0,0.0,0.0,0.0,0.0,0.0,0.0,0.0,0.0,0.0,0.0,0.0,0.0,0.0,0.0,0.0,0.0,0.0,0.0,0.0,0.0,0.0,0.0,0.0,0.0,0.0,0.0,0.0,0.0,0.0,0.0,0.0,0.0,0.0,0.0,0.0,0.0,0.0,0.0,0.0,0.0,0.0,0.0,0.0,0.0,0.0,0.0,0.0,0.0,0.0,0.0,0.0,0.0,0.0,0.0,0.0,0.0,0.0,0.0,0.0,0.0,0.0,0.0,0.0,0.0,0.0,0.0,0.0,0.0,0.0,0.0,0.0,0.0,0.0,0.0,0.0,0.0,0.0,0.0,0.0,0.0,0.0,0.0,0.0,0.0,0.0,0.0,0.0,0.0,0.0,0.0,0.0,0.0,0.0,0.0,0.0,0.0,0.0,0.0,0.0,0.0,0.0,0.0,0.0,0.0,0.0,0.0,0.0,0.0,0.0,0.0,0.0,0.0,0.0,0.0,0.0,0.0,0.0,0.0,0.0,0.0,0.0,0.0,0.0,0.0,0.0,0.0,0.0,0.0,0.0,0.0,0.0,0.0,0.0,0.0,0.0,0.0,0.0,0.0,0.0,0.0,0.0,0.0,0.0,0.0,0.0,0.0,0.0,0.0,0.0,0.0,0.0,0.0,0.0,0.0,0.0,0.0,0.0,0.0,0.0,0.0,0.0,0.0,0.0,0.0,0.0,0.0,0.0,0.0,0.0,0.0,0.0,0.0,0.0,0.0,0.0,0.0,0.0,0.0,0.0,0.0,0.0,0.0,0.0,0.0,0.0,0.0,0.0,0.0,0.0,0.0,0.0,0.0,0.0,0.0,0.0,0.0,0.0,0.0,0.0,0.0,0.0,0.0,0.0,0.0,0.0,0.0,0.0,0.0,0.0,0.0,0.0,0.0,0.0,0.0,0.0,0.0,0.0,0.0,0.0,0.0,0.0,0.0,0.0,0.0,0.0,0.0,0.0,0.0,0.0,0.0,0.0,0.0,0.0,0.0,0.0,0.0,0.0,0.0,0.0,0.0,0.0,0.0,0.0,0.0,0.0,0.0,0.0,0.0,0.0,0.0,0.0,0.0,0.0,0.0,0.0,0.0,0.0,0.0,0.0,0.0,0.0,0.0,0.0,0.0,0.0,0.0,0.0,0.0,0.0,0.0,0.0,0.0,0.0,0.0,0.0,0.0,0.0,0.0,0.0,0.0,0.0,0.0,0.0,0.0,0.0,0.0,0.0,0.0,0.0,0.0,0.0,0.0,0.0,0.0,0.0,0.0,0.0,0.0,0.0,0.0,0.0,0.0,0.0,0.0,0.0,0.0,0.0,0.0,0.0,0.0,0.0,0.0,0.0,0.0,0.0,0.0,0.0,0.0,0.0,0.0,0.0,0.0,0.0,0.0,0.0,0.0,0.0,0.0,0.0,0.0,0.0,0.0,0.0,0.0,0.0,0.0,0.0,0.0,0.0,0.0,0.0,0.0,0.0,0.0,0.0,0.0,0.0,0.0,0.0,0.0,0.0,0.0,0.0,0.0,0.0,0.0,0.0,0.0,0.0,0.0,0.0,0.0,0.0,0.0,0.0,0.0,0.0,0.0,0.0,0.0,0.0,0.0,0.0,0.0,0.0,0.0,0.0,0.0,0.0,0.0,0.0,0.0,0.0,0.0,0.0,0.0,0.0,0.0,0.0,0.0,0.0,0.0,0.0,0.0,0.0,0.0,0.0,0.0,0.0,0.0,0.0,0.0,0.0,0.0,0.0,0.0,0.0,0.0,0.0,0.0,0.0,0.0,0.0,0.0,0.0,0.0,0.0,0.0,0.0,0.0,0.0,0.0,0.0,0.0,0.0,0.0,0.0,0.0,0.0,0.0,0.0,0.0,0.0,0.0,0.0,0.0,0.0,0.0,0.0,0.0,0.0,0.0,0.0,0.0,0.0,0.0,0.0,0.0,0.0,0.0,0.0,0.0,0.0,0.0,0.0,0.0,0.0,0.0,0.0,0.0,0.0,0.0,0.0,0.0,0.0,0.0,0.0,0.0,0.0,0.0,0.0,0.0,0.0,0.0,0.0,0.0,0.0,0.0,0.0,0.0,0.0,0.0,0.0,0.0,0.0,0.0,0.0,0.0,0.0,0.0,0.0,0.0,0.0,0.0,0.0,0.0,0.0,0.0,0.0,0.0,0.0,0.0,0.0,0.0,0.0,0.0,0.0,0.0,0.0,0.0,0.0,0.0,0.0,0.0,0.0,0.0,0.0,0.0,0.0,0.0,0.0,0.0,0.0,0.0,0.0,0.0,0.0,0.0,0.0,0.0,0.0,0.0,0.0,0.0,0.0,0.0,0.0,0.0,0.0,0.0,0.0,0.0,0.0,0.0,0.0,0.0,0.0,0.0,0.0,0.0,0.0,0.0,0.0,0.0,0.0,0.0,0.0,0.0,0.0,0.0,0.0,0.0,0.0,0.0,0.0,0.0,0.0,0.0,0.0,0.0,0.0,0.0,0.0,0.0,0.0,0.0,0.0,0.0,0.0,0.0,0.0,0.0,0.0,0.0,0.0,0.0,0.0,0.0,0.0,0.0,0.0,0.0,0.0,0.0,0.0,0.0,0.0,0.0,0.0,0.0,0.0,0.0,0.0,0.0,0.0,0.0,0.0,0.0,0.0,0.0,0.0,0.0,0.0,0.0,0.0,0.0,0.0,0.0,0.0,0.0,0.0,0.0,0.0,0.0,0.0,0.0,0.0,0.0,0.0,0.0,0.0,0.0,0.0,0.0,0.0,0.0,0.0,0.0,0.0,0.0,0.0,0.0,0.0,0.0,0.0,0.0,0.0,0.0,0.0,0.0,0.0,0.0,0.0,0.0,0.0,0.0,0.0,0.0,0.0,0.0,0.0,0.0,0.0,0.0,0.0,0.0,0.0,0.0,0.0,0.0,0.0,0.0,0.0,0.0,0.0,0.0,0.0,0.0,0.0,0.0,0.0,0.0,0.0,0.0,0.0,0.0,0.0,0.0,0.0,0.0,0.0,0.0,0.0,0.0,0.0,0.0,0.0,0.0,0.0,0.0,0.0,0.0,0.0,0.0,0.0,0.0,0.0,0.0,0.0,0.0,0.0,0.0,0.0,0.0,0.0,0.0,0.0,0.0,0.0,0.0,0.0,0.0,0.0,0.0,0.0,0.0,0.0,0.0,0.0,0.0,0.0,0.0,0.0,0.0,0.0,0.0,0.0,0.0,0.0,0.0,0.0,0.0,0.0,0.0,0.0,-2.0419,0.0,0.0,0.0,0.0,0.0,0.0,0.0,0.0,0.0,0.0,0.0,0.0,0.0,0.0,0.0,0.0,0.0,0.0,0.0,0.0,0.0,0.0,0.0,0.0,0.0,0.0,0.0,0.0,0.0,0.0,0.0,0.0,0.0,0.0,0.0,0.0,0.0,0.0,0.0,0.0,0.0,0.0,0.0,0.0,0.0,0.0,0.0,0.0,0.0,0.0,0.0,0.0,0.0,0.0,0.0,0.0,0.0,0.0,0.0,0.0,0.0,0.0,0.0,0.0,0.0,0.0,0.0,0.0,0.0,0.0,0.0,0.0,0.0,0.0,0.0,0.0,0.0,0.0,0.0,0.0,0.0,0.0,0.0,0.0,0.0,0.0,0.0,0.0,0.0,0.0,0.0,0.0,0.0,0.0,0.0,0.0,0.0,0.0,0.0,0.0,0.0,0.0,0.0,0.0,0.0,0.0,0.0,0.0,0.0,0.0,-2.0455,-2.0457,-2.0443,-2.0434,-2.0388,0.0,0.0,0.0,0.0,0.0,0.0,0.0,0.0,0.0,0.0,0.0,0.0,0.0,0.0,0.0,0.0,0.0,0.0,0.0,0.0,0.0,0.0,0.0,0.0,0.0,0.0,0.0,0.0,0.0,0.0,0.0,0.0,0.0,0.0,0.0,0.0,0.0,0.0,0.0,0.0,0.0,0.0,0.0,0.0,0.0,0.0,0.0,0.0,0.0,0.0,0.0,0.0,0.0,0.0,0.0,0.0,0.0,0.0,0.0,0.0,0.0,0.0,0.0,0.0,0.0,0.0,0.0,0.0,0.0,0.0,0.0,0.0,0.0,0.0,0.0,0.0,0.0,0.0,0.0,0.0,0.0,0.0,0.0,0.0,0.0,0.0,0.0,0.0,0.0,0.0,0.0,0.0,0.0,0.0,0.0,0.0,0.0,0.0,0.0,0.0,0.0,0.0,0.0,0.0,0.0,0.0,0.0,0.0,0.0,0.0,0.0,0.0,-2.0369,-2.0371,-2.036,0.0,0.0,0.0,0.0,0.0,0.0,0.0,0.0,0.0,0.0,0.0,0.0,0.0,0.0,0.0,0.0,0.0,0.0,0.0,0.0,0.0,0.0,0.0,0.0,0.0,0.0,0.0,0.0,0.0,0.0,0.0,0.0,0.0,0.0,0.0,0.0,0.0,0.0,0.0,0.0,0.0,0.0,0.0,0.0,0.0,0.0,0.0,0.0,0.0,0.0,0.0,0.0,0.0,0.0,0.0,0.0,0.0,0.0,0.0,0.0,0.0,0.0,0.0,0.0,0.0,0.0,0.0,0.0,0.0,0.0,0.0,0.0,0.0,0.0,0.0,0.0,0.0,0.0,0.0,0.0,0.0,0.0,0.0,0.0,0.0,0.0,0.0,0.0,0.0,0.0,0.0,0.0,0.0,0.0,0.0,0.0,0.0,0.0,0.0,0.0,0.0,0.0,0.0,0.0,0.0,0.0,0.0,0.0,0.0,0.0,-2.0301,-2.0299,-2.0318,0.0,-2.0208,0.0,0.0,0.0,0.0,0.0,0.0,0.0,0.0,0.0,0.0,0.0,0.0,0.0,0.0,0.0,0.0,0.0,0.0,0.0,0.0,0.0,0.0,0.0,0.0,0.0,0.0,0.0,0.0,0.0,0.0,0.0,0.0,0.0,0.0,0.0,0.0,0.0,0.0,0.0,0.0,0.0,0.0,0.0,0.0,0.0,0.0,0.0,0.0,0.0,0.0,0.0,0.0,0.0,0.0,0.0,0.0,0.0,0.0,0.0,0.0,0.0,0.0,0.0,0.0,0.0,0.0,0.0,0.0,0.0,0.0,0.0,0.0,0.0,0.0,0.0,0.0,0.0,0.0,0.0,0.0,0.0,0.0,0.0,0.0,0.0,0.0,0.0,0.0,0.0,0.0,0.0,0.0,0.0,0.0,0.0,0.0,0.0,0.0,0.0,0.0,0.0,0.0,0.0,0.0,0.0,0.0,0.0,0.0,0.0,0.0,-2.0186,-2.0199,-2.0143,-2.0106,0.0,0.0,0.0,0.0,0.0,0.0,0.0,0.0,0.0,0.0,0.0,0.0,0.0,0.0,0.0,0.0,0.0,0.0,0.0,0.0,0.0,0.0,0.0,0.0,0.0,0.0,0.0,0.0,0.0,0.0,0.0,0.0,0.0,0.0,0.0,0.0,0.0,0.0,0.0,0.0,0.0,0.0,0.0,0.0,0.0,0.0,0.0,0.0,0.0,0.0,0.0,0.0,0.0,0.0,0.0,0.0,0.0,0.0,0.0,0.0,0.0,0.0,0.0,0.0,0.0,0.0,0.0,0.0,0.0,0.0,0.0,0.0,0.0,0.0,0.0,0.0,0.0,0.0,0.0,0.0,0.0,0.0,0.0,0.0,0.0,0.0,0.0,0.0,0.0,0.0,0.0,0.0,0.0,0.0,0.0,0.0,0.0,0.0,0.0,0.0,0.0,0.0,0.0,0.0,0.0,0.0,0.0,0.0,0.0,0.0,-2.0079,-2.005,-2.0049,-1.9981,-1.9941,-1.995,0.0,0.0,0.0,0.0,0.0,0.0,0.0,0.0,0.0,0.0,0.0,0.0,0.0,0.0,0.0,0.0,0.0,0.0,0.0,0.0,0.0,0.0,0.0,0.0,0.0,0.0,0.0,0.0,0.0,0.0,0.0,0.0,0.0,0.0,0.0,0.0,0.0,0.0,0.0,0.0,0.0,0.0,0.0,0.0,0.0,0.0,0.0,0.0,0.0,0.0,0.0,0.0,0.0,0.0,0.0,0.0,0.0,0.0,0.0,0.0,0.0,0.0,0.0,0.0,0.0,0.0,0.0,0.0,0.0,0.0,0.0,0.0,0.0,0.0,0.0,0.0,0.0,0.0,0.0,0.0,0.0,0.0,0.0,0.0,0.0,0.0,0.0,0.0,0.0,0.0,0.0,0.0,0.0,0.0,0.0,0.0,0.0,0.0,0.0,0.0,0.0,0.0,0.0,0.0,0.0,0.0,0.0,0.0,-1.9998,-2.0009,-1.9958,-1.9915,-1.9836,-1.9802,0.0,0.0,0.0,0.0,0.0,0.0,0.0,0.0,0.0,0.0,0.0,0.0,0.0,0.0,0.0,0.0,0.0,0.0,0.0,0.0,0.0,0.0,0.0,0.0,0.0,0.0,0.0,0.0,0.0,0.0,0.0,0.0,0.0,0.0,0.0,0.0,0.0,0.0,0.0,0.0,0.0,0.0,0.0,0.0,0.0,0.0,0.0,0.0,0.0,0.0,0.0,0.0,0.0,0.0,0.0,0.0,0.0,0.0,0.0,0.0,0.0,0.0,0.0,0.0,0.0,0.0,0.0,0.0,0.0,0.0,0.0,0.0,0.0,0.0,0.0,0.0,0.0,0.0,0.0,0.0,0.0,0.0,0.0,0.0,0.0,0.0,0.0,0.0,0.0,0.0,0.0,0.0,0.0,0.0,0.0,0.0,0.0,0.0,0.0,0.0,0.0,0.0,0.0,0.0,0.0,0.0,0.0,0.0,0.0,-1.9941,-1.9842,-1.9794,-1.977,-1.9707,-1.9682,0.0,0.0,0.0,0.0,0.0,0.0,0.0,0.0,0.0,0.0,0.0,0.0,0.0,0.0,0.0,0.0,0.0,0.0,0.0,0.0,0.0,0.0,0.0,0.0,0.0,0.0,0.0,0.0,0.0,0.0,0.0,0.0,0.0,0.0,0.0,0.0,0.0,0.0,0.0,0.0,0.0,0.0,0.0,0.0,0.0,0.0,0.0,0.0,0.0,0.0,0.0,0.0,0.0,0.0,0.0,0.0,0.0,0.0,0.0,0.0,0.0,0.0,0.0,0.0,0.0,0.0,0.0,0.0,0.0,0.0,0.0,0.0,0.0,0.0,0.0,0.0,0.0,0.0,0.0,0.0,0.0,0.0,0.0,0.0,0.0,0.0,0.0,0.0,0.0,0.0,0.0,0.0,0.0,0.0,0.0,0.0,0.0,0.0,0.0,0.0,0.0,0.0,0.0,0.0,0.0,0.0,0.0,0.0,0.0,-2.0189,0.0,-2.0406,-2.0373,-2.0038,-1.9857,0.0,0.0,0.0,0.0,0.0,0.0,0.0,0.0,0.0,0.0,0.0,0.0,0.0,0.0,0.0,0.0,0.0,0.0,0.0,0.0,0.0,0.0,0.0,0.0,0.0,0.0,0.0,0.0,0.0,0.0,0.0,0.0,0.0,0.0,0.0,0.0,0.0,0.0,0.0,0.0,0.0,0.0,0.0,0.0,0.0,0.0,0.0,0.0,0.0,0.0,0.0,0.0,0.0,0.0,0.0,0.0,0.0,0.0,0.0,0.0,0.0,0.0,0.0,0.0,0.0,0.0,0.0,0.0,0.0,0.0,0.0,0.0,0.0,0.0,0.0,0.0,0.0,0.0,0.0,0.0,0.0,0.0,0.0,0.0,0.0,0.0,0.0,0.0,0.0,0.0,0.0,0.0,0.0,0.0,0.0,0.0,0.0,0.0,0.0,0.0,0.0,0.0,0.0,0.0,0.0,0.0,0.0,0.0,-2.0351,-2.0821,-2.147,-2.178,-2.1765,-2.0894,-2.0452,0.0,0.0,0.0,0.0,0.0,0.0,0.0,0.0,0.0,0.0,0.0,0.0,0.0,0.0,0.0,0.0,0.0,0.0,0.0,0.0,0.0,0.0,0.0,0.0,0.0,0.0,0.0,0.0,0.0,0.0,0.0,0.0,0.0,0.0,0.0,0.0,0.0,0.0,0.0,0.0,0.0,0.0,0.0,0.0,0.0,0.0,0.0,0.0,0.0,0.0,0.0,0.0,0.0,0.0,0.0,0.0,0.0,0.0,0.0,0.0,0.0,0.0,0.0,0.0,0.0,0.0,0.0,0.0,0.0,0.0,0.0,0.0,0.0,0.0,0.0,0.0,0.0,0.0,0.0,0.0,0.0,0.0,0.0,0.0,0.0,0.0,0.0,0.0,0.0,0.0,0.0,0.0,0.0,0.0,0.0,0.0,0.0,0.0,0.0,0.0,0.0,0.0,0.0,0.0,0.0,0.0,0.0,0.0,0.0,-2.2202,-2.2755,-2.2741,-2.2098,-2.1748,-2.117,0.0,0.0,0.0,0.0,0.0,0.0,0.0,0.0,0.0,0.0,0.0,0.0,0.0,0.0,0.0,0.0,0.0,0.0,0.0,0.0,0.0,0.0,0.0,0.0,0.0,0.0,0.0,0.0,0.0,0.0,0.0,0.0,0.0,0.0,0.0,0.0,0.0,0.0,0.0,0.0,0.0,0.0,0.0,0.0,0.0,0.0,0.0,0.0,0.0,0.0,0.0,0.0,0.0,0.0,0.0,0.0,0.0,0.0,0.0,0.0,0.0,0.0,0.0,0.0,0.0,0.0,0.0,0.0,0.0,0.0,0.0,0.0,0.0,0.0,0.0,0.0,0.0,0.0,0.0,0.0,0.0,0.0,0.0,0.0,0.0,0.0,0.0,0.0,0.0,0.0,0.0,0.0,0.0,0.0,0.0,0.0,0.0,0.0,0.0,0.0,0.0,0.0,0.0,0.0,0.0,0.0,0.0,0.0,0.0,-2.4818,-2.4647,-2.4226,-2.346,-2.2896,-2.201,-2.0843,0.0,0.0,0.0,0.0,0.0,0.0,0.0,0.0,0.0,0.0,0.0,0.0,0.0,0.0,0.0,0.0,0.0,0.0,0.0,0.0,0.0,0.0,0.0,0.0,0.0,0.0,0.0,0.0,0.0,0.0,0.0,0.0,0.0,0.0,0.0,0.0,0.0,0.0,0.0,0.0,0.0,0.0,0.0,0.0,0.0,0.0,0.0,0.0,0.0,0.0,0.0,0.0,0.0,0.0,0.0,0.0,0.0,0.0,0.0,0.0,0.0,0.0,0.0,0.0,0.0,0.0,0.0,0.0,0.0,0.0,0.0,0.0,0.0,0.0,0.0,0.0,0.0,0.0,0.0,0.0,0.0,0.0,0.0,0.0,0.0,0.0,0.0,0.0,0.0,0.0,0.0,0.0,0.0,0.0,0.0,0.0,0.0,0.0,0.0,0.0,0.0,0.0,0.0,0.0,0.0,0.0,0.0,0.0,-2.8296,-2.7052,-2.617,-2.5664,-2.4306,-2.3065,0.0,0.0,0.0,0.0,0.0,0.0,0.0,0.0,0.0,0.0,0.0,0.0,0.0,0.0,0.0,0.0,0.0,0.0,0.0,0.0,0.0,0.0,0.0,0.0,0.0,0.0,0.0,0.0,0.0,0.0,0.0,0.0,0.0,0.0,0.0,0.0,0.0,0.0,0.0,0.0,0.0,0.0,0.0,0.0,0.0,0.0,0.0,0.0,0.0,0.0,0.0,0.0,0.0,0.0,0.0,0.0,0.0,0.0,0.0,0.0,0.0,0.0,0.0,0.0,0.0,0.0,0.0,0.0,0.0,0.0,0.0,0.0,0.0,0.0,0.0,0.0,0.0,0.0,0.0,0.0,0.0,0.0,0.0,0.0,0.0,0.0,0.0,0.0,0.0,0.0,0.0,0.0,0.0,0.0,0.0,0.0,0.0,0.0,0.0,0.0,0.0,0.0,0.0,0.0,0.0,0.0,0.0,0.0,0.0,-2.9533,-2.8979,-2.8072,-2.6917,-2.616,-2.4949,0.0,0.0,0.0,0.0,0.0,0.0,0.0,0.0,0.0,0.0,0.0,0.0,0.0,0.0,0.0,0.0,0.0,0.0,0.0,0.0,0.0,0.0,0.0,0.0,0.0,0.0,0.0,0.0,0.0,0.0,0.0,0.0,0.0,0.0,0.0,0.0,0.0,0.0,0.0,0.0,0.0,0.0,0.0,0.0,0.0,0.0,0.0,0.0,0.0,0.0,0.0,0.0,0.0,0.0,0.0,0.0,0.0,0.0,0.0,0.0,0.0,0.0,0.0,0.0,0.0,0.0,0.0,0.0,0.0,0.0,0.0,0.0,0.0,0.0,0.0,0.0,0.0,0.0,0.0,0.0,0.0,0.0,0.0,0.0,0.0,0.0,0.0,0.0,0.0,0.0,0.0,0.0,0.0,0.0,0.0,0.0,0.0,0.0,0.0,0.0,0.0,0.0,0.0,0.0,0.0,0.0,0.0,0.0,-2.9433,-3.0501,-3.0047,-2.9384,-2.8551,-2.751,-2.6081,0.0,0.0,0.0,0.0,0.0,0.0,0.0,0.0,0.0,0.0,0.0,0.0,0.0,0.0,0.0,0.0,0.0,0.0,0.0,0.0,0.0,0.0,0.0,0.0,0.0,0.0,0.0,0.0,0.0,0.0,0.0,0.0,0.0,0.0,0.0,0.0,0.0,0.0,0.0,0.0,0.0,0.0,0.0,0.0,0.0,0.0,0.0,0.0,0.0,0.0,0.0,0.0,0.0,0.0,0.0,0.0,0.0,0.0,0.0,0.0,0.0,0.0,0.0,0.0,0.0,0.0,0.0,0.0,0.0,0.0,0.0,0.0,0.0,0.0,0.0,0.0,0.0,0.0,0.0,0.0,0.0,0.0,0.0,0.0,0.0,0.0,0.0,0.0,0.0,0.0,0.0,0.0,0.0,0.0,0.0,0.0,0.0,0.0,0.0,0.0,0.0,0.0,0.0,0.0,0.0,0.0,0.0,0.0,-2.9608,-3.0939,-3.0468,-3.0213,-3.018,-2.8598,-2.693,0.0,0.0,0.0,0.0,0.0,0.0,0.0,0.0,0.0,0.0,0.0,0.0,0.0,0.0,0.0,0.0,0.0,0.0,0.0,0.0,0.0,0.0,0.0,0.0,0.0,0.0,0.0,0.0,0.0,0.0,0.0,0.0,0.0,0.0,0.0,0.0,0.0,0.0,0.0,0.0,0.0,0.0,0.0,0.0,0.0,0.0,0.0,0.0,0.0,0.0,0.0,0.0,0.0,0.0,0.0,0.0,0.0,0.0,0.0,0.0,0.0,0.0,0.0,0.0,0.0,0.0,0.0,0.0,0.0,0.0,0.0,0.0,0.0,0.0,0.0,0.0,0.0,0.0,0.0,0.0,0.0,0.0,0.0,0.0,0.0,0.0,0.0,0.0,0.0,0.0,0.0,0.0,0.0,0.0,0.0,0.0,0.0,0.0,0.0,0.0,0.0,0.0,0.0,0.0,0.0,0.0,0.0,0.0,-2.9598,-3.0229,-3.027,-3.0311,-3.0424,-2.955,-2.8676,0.0,0.0,0.0,0.0,0.0,0.0,0.0,0.0,0.0,0.0,0.0,0.0,0.0,0.0,0.0,0.0,0.0,0.0,0.0,0.0,0.0,0.0,0.0,0.0,0.0,0.0,0.0,0.0,0.0,0.0,0.0,0.0,0.0,0.0,0.0,0.0,0.0,0.0,0.0,0.0,0.0,0.0,0.0,0.0,0.0,0.0,0.0,0.0,-2.6657,0.0,0.0,0.0,0.0,0.0,0.0,0.0,0.0,0.0,0.0,0.0,0.0,0.0,0.0,0.0,0.0,0.0,0.0,0.0,0.0,0.0,0.0,0.0,0.0,0.0,0.0,0.0,0.0,0.0,0.0,0.0,0.0,0.0,0.0,0.0,0.0,0.0,0.0,0.0,0.0,0.0,0.0,0.0,0.0,0.0,0.0,0.0,0.0,0.0,0.0,0.0,0.0,0.0,0.0,0.0,0.0,0.0,0.0,0.0,-2.9133,-2.9973,-3.0087,-3.0214,-3.0427,-3.0125,-2.9609,0.0,0.0,0.0,0.0,0.0,0.0,0.0,0.0,0.0,0.0,0.0,0.0,0.0,0.0,0.0,0.0,0.0,0.0,0.0,0.0,0.0,0.0,0.0,0.0,0.0,0.0,0.0,0.0,0.0,0.0,0.0,0.0,0.0,0.0,0.0,0.0,0.0,0.0,0.0,0.0,0.0,0.0,0.0,0.0,0.0,0.0,0.0,0.0,0.0,0.0,0.0,0.0,0.0,0.0,0.0,0.0,0.0,0.0,0.0,0.0,0.0,0.0,0.0,0.0,0.0,0.0,0.0,0.0,0.0,0.0,0.0,0.0,0.0,0.0,0.0,0.0,0.0,0.0,0.0,0.0,0.0,0.0,0.0,0.0,0.0,0.0,0.0,0.0,0.0,0.0,0.0,0.0,0.0,0.0,0.0,0.0,0.0,0.0,0.0,0.0,0.0,0.0,0.0,0.0,0.0,0.0,0.0,-2.7772,-2.8368,-2.9715,-2.9811,-3.0017,-3.0345,-3.0404,-3.0086,-2.9324,0.0,0.0,0.0,0.0,0.0,0.0,0.0,0.0,0.0,0.0,0.0,0.0,0.0,0.0,0.0,0.0,0.0,0.0,0.0,0.0,0.0,0.0,0.0,0.0,0.0,0.0,0.0,0.0,0.0,0.0,0.0,0.0,0.0,0.0,0.0,0.0,0.0,0.0,-2.1418,-2.3778,0.0,0.0,0.0,0.0,0.0,0.0,0.0,0.0,-2.8269,0.0,0.0,0.0,0.0,0.0,0.0,0.0,0.0,0.0,0.0,0.0,0.0,0.0,0.0,0.0,0.0,0.0,0.0,0.0,0.0,0.0,0.0,0.0,0.0,0.0,0.0,0.0,0.0,0.0,0.0,0.0,0.0,0.0,0.0,0.0,0.0,0.0,0.0,0.0,0.0,0.0,0.0,0.0,0.0,0.0,0.0,0.0,0.0,0.0,0.0,0.0,0.0,0.0,0.0,0.0,0.0,-2.6924,-2.674,-2.7379,-2.8779,-2.9302,-2.9753,-3.0132,-3.0217,-3.0278,-3.0288,0.0,0.0,0.0,0.0,0.0,0.0,0.0,0.0,0.0,0.0,0.0,0.0,0.0,0.0,0.0,0.0,0.0,0.0,0.0,0.0,0.0,0.0,0.0,0.0,0.0,0.0,0.0,0.0,0.0,0.0,0.0,0.0,0.0,0.0,0.0,0.0,0.0,0.0,0.0,-2.6276,-2.759,0.0,0.0,0.0,0.0,0.0,0.0,0.0,0.0,-3.0191,0.0,0.0,0.0,0.0,0.0,0.0,0.0,0.0,0.0,0.0,0.0,0.0,0.0,0.0,0.0,0.0,0.0,0.0,0.0,0.0,0.0,0.0,0.0,0.0,0.0,0.0,0.0,0.0,0.0,0.0,0.0,0.0,0.0,0.0,0.0,0.0,0.0,0.0,0.0,0.0,0.0,0.0,0.0,0.0,0.0,0.0,0.0,0.0,0.0,0.0,0.0,0.0,0.0,0.0,0.0,-2.7109,-2.697,-2.7373,-2.8492,-2.9114,-2.9643,-3.0007,-3.0122,-3.0306,0.0,0.0,0.0,0.0,0.0,0.0,0.0,0.0,0.0,0.0,0.0,0.0,0.0,0.0,0.0,0.0,0.0,0.0,0.0,0.0,0.0,0.0,0.0,0.0,0.0,0.0,0.0,0.0,0.0,0.0,0.0,0.0,0.0,0.0,0.0,0.0,0.0,0.0,0.0,0.0,-2.7926,-2.8922,-2.9338,0.0,0.0,0.0,0.0,0.0,0.0,-3.2058,-3.1919,0.0,0.0,0.0,0.0,0.0,0.0,0.0,0.0,0.0,0.0,0.0,0.0,0.0,0.0,0.0,0.0,0.0,0.0,0.0,0.0,0.0,0.0,0.0,0.0,0.0,0.0,0.0,0.0,0.0,0.0,0.0,0.0,0.0,0.0,0.0,0.0,0.0,0.0,0.0,0.0,0.0,0.0,0.0,0.0,0.0,0.0,0.0,0.0,0.0,0.0,0.0,0.0,0.0,0.0,0.0,-2.777,-2.7455,-2.7635,-2.846,-2.9086,-2.957,-2.9905,-3.0094,-3.0266,0.0,0.0,0.0,0.0,0.0,0.0,0.0,0.0,0.0,0.0,0.0,0.0,0.0,0.0,0.0,0.0,0.0,0.0,0.0,0.0,0.0,0.0,0.0,0.0,0.0,0.0,0.0,0.0,0.0,0.0,0.0,0.0,0.0,0.0,0.0,0.0,0.0,0.0,0.0,0.0,0.0,-3.0311,-3.1094,-3.1364,0.0,0.0,0.0,0.0,-3.3711,-3.3746,0.0,0.0,0.0,0.0,0.0,0.0,0.0,0.0,0.0,0.0,0.0,0.0,0.0,0.0,0.0,0.0,0.0,0.0,0.0,0.0,0.0,0.0,0.0,0.0,0.0,0.0,0.0,0.0,0.0,0.0,0.0,0.0,0.0,0.0,0.0,0.0,0.0,0.0,0.0,0.0,0.0,0.0,0.0,0.0,0.0,0.0,0.0,0.0,0.0,0.0,0.0,0.0,0.0,0.0,0.0,0.0,-2.8208,-2.7511,-2.7654,-2.8704,-2.9177,-2.957,-2.9977,-3.0066,-3.0263,0.0,0.0,0.0,0.0,0.0,0.0,0.0,0.0,0.0,0.0,0.0,0.0,0.0,0.0,0.0,0.0,0.0,0.0,0.0,0.0,0.0,0.0,0.0,0.0,0.0,0.0,0.0,0.0,0.0,0.0,0.0,0.0,0.0,0.0,0.0,0.0,0.0,0.0,0.0,0.0,0.0,-3.2082,-3.2888,-3.3618,-3.4119,0.0,0.0,-3.5418,-3.5576,-3.5005,0.0,0.0,0.0,0.0,0.0,0.0,0.0,0.0,0.0,0.0,0.0,0.0,0.0,0.0,0.0,0.0,0.0,0.0,0.0,0.0,0.0,0.0,0.0,0.0,0.0,0.0,0.0,0.0,0.0,0.0,0.0,0.0,0.0,0.0,0.0,0.0,0.0,0.0,0.0,0.0,0.0,0.0,0.0,0.0,0.0,0.0,0.0,0.0,0.0,0.0,0.0,0.0,0.0,0.0,0.0,-2.7213,-2.8705,-2.8505,-2.8599,-2.9058,-2.9476,-2.9799,-3.0056,-3.0145,-3.0124,0.0,0.0,0.0,0.0,0.0,0.0,0.0,0.0,0.0,0.0,0.0,0.0,0.0,0.0,0.0,0.0,0.0,0.0,0.0,0.0,0.0,0.0,0.0,0.0,0.0,0.0,0.0,0.0,0.0,0.0,0.0,0.0,0.0,0.0,0.0,0.0,0.0,0.0,0.0,0.0,0.0,0.0,-3.4439,-3.4875,0.0,0.0,0.0,-3.6651,-3.7176,0.0,0.0,0.0,0.0,0.0,0.0,0.0,0.0,0.0,0.0,0.0,0.0,0.0,0.0,0.0,0.0,0.0,0.0,0.0,0.0,0.0,0.0,0.0,0.0,0.0,0.0,0.0,0.0,0.0,0.0,0.0,0.0,0.0,0.0,0.0,0.0,0.0,0.0,0.0,0.0,0.0,0.0,0.0,0.0,0.0,0.0,0.0,0.0,0.0,0.0,0.0,0.0,0.0,0.0,0.0,0.0,0.0,-2.8989,-2.9326,-2.9495,-2.9514,-2.9834,-3.0052,-3.0196,-3.0317,0.0,0.0,0.0,0.0,0.0,0.0,0.0,0.0,0.0,0.0,0.0,0.0,0.0,0.0,0.0,0.0,0.0,0.0,0.0,0.0,0.0,0.0,0.0,0.0,0.0,0.0,0.0,-1.9487,0.0,0.0,0.0,0.0,0.0,0.0,0.0,0.0,0.0,0.0,0.0,0.0,0.0,0.0,-3.4105,-3.5917,-3.628,-3.6665,0.0,0.0,-3.8063,-3.852,-3.7968,-3.7121,0.0,0.0,0.0,0.0,0.0,0.0,0.0,0.0,0.0,0.0,0.0,0.0,0.0,0.0,0.0,0.0,0.0,0.0,0.0,0.0,0.0,0.0,0.0,0.0,0.0,0.0,0.0,0.0,0.0,0.0,0.0,0.0,0.0,0.0,0.0,0.0,0.0,0.0,0.0,0.0,0.0,0.0,0.0,0.0,0.0,0.0,0.0,0.0,0.0,0.0,0.0,0.0,0.0,0.0,0.0,-2.8817,-2.9575,-2.998,-3.0047,-3.0131,-3.029,-3.0482,-3.0552,-3.0239,0.0,0.0,0.0,0.0,0.0,0.0,0.0,0.0,0.0,0.0,0.0,0.0,0.0,0.0,0.0,0.0,0.0,0.0,0.0,0.0,0.0,0.0,0.0,0.0,0.0,0.0,0.0,0.0,0.0,0.0,0.0,0.0,0.0,0.0,0.0,0.0,0.0,0.0,0.0,0.0,0.0,-3.4989,-3.7333,-3.8342,-3.8879,0.0,0.0,-4.0139,-3.9511,-3.8734,-3.772,-3.6161,0.0,0.0,0.0,0.0,0.0,0.0,0.0,0.0,0.0,0.0,0.0,0.0,0.0,0.0,0.0,0.0,0.0,0.0,0.0,0.0,0.0,0.0,0.0,0.0,0.0,0.0,0.0,0.0,0.0,0.0,0.0,0.0,0.0,0.0,0.0,0.0,0.0,0.0,0.0,0.0,0.0,0.0,0.0,0.0,0.0,0.0,0.0,0.0,0.0,0.0,0.0,0.0,0.0,-2.8612,-2.9815,-3.015,-3.0294,-3.0297,-3.0348,-3.0433,-3.0567,-3.0631,-3.0289,0.0,0.0,0.0,0.0,0.0,0.0,0.0,0.0,0.0,0.0,0.0,0.0,0.0,0.0,0.0,0.0,0.0,0.0,0.0,0.0,0.0,0.0,0.0,0.0,0.0,0.0,0.0,0.0,-2.0102,-1.9698,-1.958,0.0,0.0,0.0,0.0,0.0,0.0,0.0,0.0,0.0,0.0,-3.5113,-3.7129,-3.7718,0.0,0.0,-3.8491,-3.8754,-3.8541,-3.7858,-3.7201,-3.6647,-3.5437,0.0,0.0,0.0,0.0,0.0,0.0,0.0,0.0,0.0,0.0,0.0,0.0,0.0,0.0,0.0,0.0,0.0,0.0,0.0,0.0,0.0,0.0,0.0,0.0,0.0,0.0,0.0,0.0,0.0,0.0,0.0,0.0,0.0,0.0,0.0,0.0,0.0,0.0,0.0,0.0,0.0,0.0,0.0,0.0,0.0,0.0,0.0,0.0,0.0,0.0,0.0,0.0,-2.8817,-3.0179,-3.068,-3.0933,-3.0868,-3.1194,-3.1255,-3.1052,-3.1098,-3.0621,0.0,0.0,0.0,0.0,0.0,0.0,0.0,0.0,0.0,0.0,0.0,0.0,0.0,0.0,0.0,0.0,0.0,0.0,0.0,0.0,0.0,0.0,0.0,0.0,0.0,0.0,0.0,0.0,-2.0451,-2.008,-2.0518,0.0,0.0,0.0,0.0,0.0,0.0,0.0,0.0,0.0,0.0,-3.5368,-3.7084,-3.7642,-3.7898,-3.7986,-3.8212,-3.8307,-3.8161,-3.7777,-3.7411,-3.7301,0.0,0.0,0.0,0.0,0.0,0.0,0.0,0.0,0.0,0.0,0.0,0.0,0.0,0.0,0.0,0.0,0.0,0.0,0.0,0.0,0.0,0.0,0.0,0.0,0.0,0.0,0.0,0.0,0.0,0.0,0.0,0.0,0.0,0.0,0.0,0.0,0.0,0.0,0.0,0.0,0.0,0.0,0.0,0.0,0.0,0.0,0.0,0.0,0.0,0.0,0.0,0.0,0.0,-2.8688,-2.9539,-3.1154,-3.198,-3.1968,-3.2789,-3.2839,-3.209,-3.2055,-3.1269,-2.955,0.0,0.0,0.0,0.0,0.0,0.0,0.0,0.0,0.0,0.0,0.0,0.0,0.0,0.0,0.0,0.0,0.0,0.0,0.0,0.0,0.0,0.0,0.0,0.0,0.0,0.0,-2.1979,-2.1475,-2.1524,0.0,0.0,0.0,0.0,0.0,0.0,0.0,0.0,0.0,0.0,-3.4548,-3.5784,-3.7394,-3.8592,-3.9177,-3.9333,-3.9588,-3.9537,-3.8764,-3.8803,-3.8714,0.0,0.0,0.0,0.0,0.0,0.0,0.0,0.0,0.0,0.0,0.0,0.0,0.0,0.0,0.0,0.0,0.0,0.0,0.0,0.0,0.0,0.0,0.0,0.0,0.0,0.0,0.0,-2.9372,-2.9267,0.0,0.0,0.0,0.0,0.0,0.0,0.0,0.0,0.0,0.0,0.0,-2.9718,-2.9651,0.0,0.0,0.0,0.0,0.0,0.0,0.0,0.0,0.0,0.0,0.0,0.0,-3.0348,-3.1228,-3.236,-3.2939,-3.2942,-3.322,-3.3239,-3.2957,-3.2397,-3.1284,-2.9542,0.0,0.0,0.0,0.0,0.0,0.0,0.0,0.0,0.0,0.0,0.0,0.0,0.0,0.0,0.0,0.0,0.0,0.0,0.0,0.0,0.0,0.0,0.0,0.0,0.0,-2.434,0.0,0.0,0.0,0.0,0.0,0.0,0.0,0.0,0.0,0.0,0.0,-3.1769,-3.2787,-3.4015,-3.5105,-3.5856,-3.6607,-3.7155,0.0,0.0,0.0,0.0,0.0,0.0,0.0,0.0,0.0,0.0,0.0,0.0,0.0,0.0,-3.5542,-3.4335,-3.3608,-3.3158,-3.3122,0.0,0.0,0.0,0.0,0.0,0.0,0.0,0.0,0.0,0.0,0.0,0.0,0.0,0.0,0.0,0.0,-3.0895,0.0,0.0,0.0,0.0,0.0,0.0,0.0,0.0,-3.1467,-3.1448,-3.1468,-3.1399,-3.1077,0.0,-3.0513,-3.0194,0.0,0.0,0.0,0.0,0.0,0.0,0.0,0.0,-3.136,-3.2516,-3.3418,-3.3859,-3.3858,-3.415,-3.4142,-3.3844,-3.2691,-3.125,-2.953,-2.8546,-2.7389,0.0,0.0,0.0,0.0,0.0,0.0,0.0,0.0,0.0,0.0,0.0,0.0,0.0,0.0,0.0,0.0,0.0,0.0,0.0,0.0,0.0,0.0,0.0,-2.58,0.0,0.0,0.0,0.0,0.0,0.0,0.0,0.0,0.0,-2.9602,-3.1128,-3.235,-3.2494,-3.3879,-3.501,-3.535,0.0,0.0,0.0,0.0,0.0,0.0,0.0,-3.9854,-4.059,-4.0608,-4.0348,-3.9777,-3.9428,-3.8972,-3.8215,0.0,0.0,-3.5419,-3.4579,-3.4146,-3.4101,-3.4023,-3.3894,-3.373,-3.3638,-3.3516,0.0,0.0,0.0,0.0,0.0,0.0,0.0,0.0,-3.2001,-3.188,0.0,-3.1783,0.0,0.0,0.0,0.0,0.0,0.0,0.0,0.0,-3.3188,-3.3167,-3.3169,-3.3111,-3.3044,-3.3012,-3.2929,-3.2891,-3.2743,-2.9674,0.0,0.0,0.0,0.0,0.0,0.0,-3.1685,-3.3389,-3.4283,-3.4741,-3.4765,-3.5527,-3.5566,-3.4664,-3.2981,-3.1268,-2.9577,-2.8643,-2.7726,-2.6768,-2.5117,0.0,0.0,0.0,0.0,0.0,0.0,0.0,0.0,0.0,0.0,0.0,0.0,0.0,0.0,0.0,0.0,0.0,0.0,0.0,0.0,-2.7281,0.0,0.0,0.0,0.0,0.0,0.0,0.0,0.0,0.0,0.0,-3.1188,-3.1655,-3.2147,-3.2593,0.0,0.0,0.0,0.0,-3.9049,-3.9309,-4.0291,-4.1052,-4.1391,-4.1564,-4.1791,-4.2063,0.0,0.0,-4.0723,-4.0725,-4.05,-3.9774,-3.8951,-3.797,-3.6269,-3.5874,-3.5783,-3.5736,-3.5638,-3.5607,-3.5425,-3.5149,-3.512,-3.8002,0.0,0.0,0.0,0.0,-3.474,-3.473,-3.521,-3.5106,-3.4926,-3.4666,-3.4926,0.0,0.0,0.0,0.0,0.0,0.0,-3.5862,-3.5693,-3.5114,-3.4776,-3.4732,-3.4712,-3.4397,-3.3786,-3.3761,-3.3454,-3.2826,-3.193,-3.1511,-3.163,0.0,0.0,0.0,0.0,-3.3698,-3.4272,-3.5116,-3.5578,-3.562,-3.5874,-3.5549,-3.4642,-3.3543,-3.2396,-3.13,-2.9784,-2.8545,-2.7647,-2.6516,0.0,0.0,0.0,0.0,0.0,0.0,0.0,0.0,0.0,0.0,0.0,0.0,0.0,0.0,0.0,0.0,0.0,0.0,0.0,-2.8652,-2.9058,-2.9015,0.0,0.0,0.0,0.0,0.0,0.0,0.0,0.0,0.0,-3.2492,-3.298,-3.3379,0.0,0.0,-3.6208,-3.6191,-3.7623,-3.885,-3.9192,0.0,0.0,0.0,-4.2456,-4.266,-4.2835,-4.2025,-4.136,-4.1313,-4.1034,-4.0373,-3.903,-3.8636,-3.7975,-3.6385,-3.596,-3.5866,-3.5814,-3.5743,-3.5657,-3.5509,-3.5369,-3.5251,-4.087,-3.8869,-3.7371,-3.6975,-3.7249,-3.6207,-3.6019,-3.6436,-3.6323,-3.6179,-3.5964,-3.619,-3.6258,-3.6315,-3.7175,0.0,0.0,0.0,-3.7429,-3.718,-3.6628,-3.6353,-3.6312,-3.6243,-3.5978,-3.5487,-3.5468,-3.5235,-3.4737,-3.4821,-3.4894,-3.4924,0.0,0.0,-3.3683,-3.4229,-3.469,-3.5081,-3.5607,-3.5914,-3.5953,-3.5948,-3.5519,-3.4607,-3.3764,-3.2861,-3.1977,-3.0244,-2.9041,-2.8492,-2.7575,-2.6798,0.0,0.0,0.0,0.0,0.0,0.0,0.0,0.0,0.0,0.0,0.0,-2.4568,-2.6369,0.0,0.0,0.0,-2.9022,-2.9366,-2.9693,-3.018,0.0,0.0,0.0,0.0,0.0,0.0,0.0,-3.3022,-3.3424,-3.3709,-3.3997,-3.4528,-3.4742,-3.4347,-3.5525,-3.6422,-3.6544,0.0,-3.8776,-3.9157,-4.0124,-4.1156,-4.1976,-4.2247,-4.2399,-4.2442,-4.1895,-4.138,-4.1193,-4.0965,-4.0247,-3.8871,-3.8472,-3.7965,-3.6308,-3.5955,-3.5883,-3.5807,-3.5743,-3.5648,-3.5489,-3.5397,-3.5296,-4.3299,-4.1661,-3.9398,-3.8339,-3.8053,-3.71,-3.6644,-3.6567,-3.6461,-3.6304,-3.6199,-3.6243,-3.6307,-3.6507,-3.786,0.0,0.0,-3.8574,-3.8531,-3.7821,-3.7714,-3.7658,-3.7655,-3.7528,-3.7528,-3.7566,-3.7585,-3.7623,-3.7639,-3.7729,-3.7816,-3.7801,-3.4879,-3.382,-3.4659,-3.4768,-3.52,-3.5978,-3.608,-3.6066,-3.6,-3.593,-3.5522,-3.4731,-3.3782,-3.2873,-3.199,-3.0336,-2.9332,-2.9173,-2.8357,-2.7807,-2.7612,0.0,0.0,0.0,0.0,0.0,0.0,0.0,0.0,0.0,0.0,0.0,0.0,0.0,0.0,0.0,-3.0331,0.0,-3.0715,-3.0711,0.0,0.0,0.0,-3.1086,-3.1748,-3.2334,-3.3097,-3.4035,0.0,0.0,-3.5561,0.0,-3.6197,-3.5253,-3.5862,-3.6544,-3.69,-3.7996,-3.885,-3.921,-4.0142,-4.0924,-4.1322,-4.1516,-4.1571,-4.1456,-4.138,-4.1182,-4.0771,-4.073,-4.015,-3.868,-3.8467,-3.7981,-3.6289,-3.5935,-3.5892,-3.5801,-3.5752,-3.5639,-3.5477,-3.5507,-3.5518,-4.492,-4.3858,-4.2577,-4.1415,-4.0388,-3.996,-3.9823,-3.9717,-3.9035,-3.8733,-3.8616,-3.8091,-3.7986,-3.829,-3.8792,-3.9015,-3.9044,-3.8742,-3.8504,-3.822,-3.7673,-3.7349,-3.731,-3.7329,-3.7368,-3.737,-3.7489,-3.7528,-3.7547,-3.7622,-3.7677,-3.7618,-3.6987,-3.6853,-3.7205,-3.7235,-3.739,-3.7705,-3.7761,-3.7491,-3.6819,-3.6168,-3.5718,-3.5523,-3.3971,-3.3045,-3.2793,-3.1088,-2.9813,-2.9154,-2.8798,-2.8319,-2.7566,-2.746,0.0,0.0,0.0,0.0,0.0,0.0,0.0,0.0,0.0,-2.7857,-2.9007,0.0,-2.9557,0.0,-3.0679,-3.0796,-3.0774,-3.0771,0.0,0.0,-3.1347,-3.2016,-3.269,-3.3349,-3.3963,-3.4488,-3.5421,-3.5957,-3.5783,-3.6831,-3.7539,-3.7292,-3.7429,-3.7469,-3.7332,-3.8348,-3.9262,-3.9571,-4.0455,-4.128,-4.1508,-4.1357,-4.118,-4.1338,-4.0978,-4.0655,-4.0681,-4.0734,-4.0286,-3.8836,-3.8482,-3.7826,-3.6344,-3.5938,-3.5917,-3.5818,-3.5754,-3.5657,-3.5509,-3.5902,-3.6262,-4.5938,-4.5096,-4.4436,-4.3543,-4.2391,-4.1229,-4.0704,-4.0633,-4.018,-3.9911,-3.9769,-3.9456,-3.9323,-3.9277,-3.9457,-3.9463,-3.9287,-3.8977,-3.8801,-3.877,-3.8357,-3.815,-3.8174,-3.8197,-3.8225,-3.8271,-3.838,-3.8442,-3.8423,-3.851,-3.8572,-3.8572,-3.8709,-3.8873,-3.9007,-3.8411,-3.8163,-3.8233,-3.8326,-3.7918,-3.7081,-3.6569,-3.6144,-3.5679,-3.4013,-3.3064,-3.299,-3.128,-3.0107,-2.9582,-2.9422,-2.9091,-2.8566,-2.8431,-2.8177,0.0,0.0,0.0,0.0,0.0,0.0,0.0,0.0,0.0,0.0,0.0,-3.072,0.0,-3.0834,-3.084,-3.0857,-3.115,-3.1364,-3.1384,-3.2159,-3.295,-3.3692,-3.4013,-3.4526,-3.5405,-3.6323,-3.6906,-3.6912,-3.7876,-3.8552,-3.8529,-3.8514,-3.8393,-3.8122,-3.8645,-3.9227,-3.9478,-4.0055,-4.0626,-4.0942,-4.0833,-4.0746,-4.0882,-4.0729,-4.0574,-4.073,-4.084,-4.0474,-3.9369,-3.9071,-3.867,-3.7389,-3.7064,-3.7007,-3.6925,-3.6852,-3.659,-3.6157,-3.6334,-3.6648,-4.6684,-4.5787,-4.5515,-4.4925,-4.3999,-4.1938,-4.0871,-4.0689,-4.0544,-4.0381,-4.0218,-4.0402,-4.0235,-3.9816,-4.0029,-3.9829,-3.9332,-3.9398,-3.9425,-3.9386,-3.9286,-3.9303,-3.9343,-3.929,-3.9324,-3.9452,-3.9526,-3.9551,-3.9551,-3.9689,-3.9758,-3.9781,-3.9892,-4.0036,-4.0139,-3.8969,-3.8414,-3.8516,-3.8457,-3.8072,-3.7336,-3.7084,-3.6609,-3.5762,-3.4128,-3.3167,-3.3026,-3.1469,-3.0532,-3.0418,-3.026,-3.0179,-3.0092,-2.9983,-2.9589,0.0,-2.9589,0.0,0.0,0.0,0.0,0.0,0.0,0.0,0.0,-3.1783,-3.1978,-3.1276,-3.1224,-3.1226,-3.1224,-3.1851,-3.2263,-3.2305,-3.3046,-3.3857,-3.4519,-3.4528,-3.4979,-3.6246,-3.7039,-3.7679,-3.8099,-3.8903,-3.9408,-3.9289,-3.9352,-3.9249,-3.898,-3.8971,-3.9129,-3.9245,-3.9433,-3.9905,-4.0108,-4.0253,-4.0398,-4.0457,-4.0588,-4.0723,-4.081,-4.0902,-4.0727,-3.9966,-3.9738,-3.9452,-3.8658,-3.8389,-3.8323,-3.818,-3.8028,-3.7726,-3.7079,-3.6976,-3.7094,-4.7715,-4.621,-4.6127,-4.5492,-4.4485,-4.4038,-4.3207,-4.2124,-4.1399,-4.0733,-4.0141,-4.0328,-4.0366,-4.0293,-4.052,-4.0598,-4.0467,-4.0675,-4.0351,-3.9694,-3.9755,-3.9483,-3.9026,-3.8979,-3.9045,-3.9183,-3.9245,-3.929,-3.9272,-3.9401,-3.9502,-3.9556,-3.9693,-3.9867,-4.0017,0.0,0.0,0.0,-3.9477,-3.9071,-3.8994,-3.7649,-3.6837,-3.6617,-3.494,0.0,-3.3832,-3.2775,-3.2115,-3.2039,-3.1936,0.0,0.0,0.0,0.0,0.0,0.0,0.0,0.0,0.0,0.0,0.0,-3.3203,-3.3364,-3.2796,-3.2986,-3.3087,-3.295,-3.2926,-3.2934,-3.2931,-3.3049,-3.3151,-3.3181,-3.3925,-3.4502,-3.4615,-3.5134,-3.5597,-3.5745,-3.7058,-3.792,-3.794,-3.909,-3.9947,-3.9863,-3.9901,-3.9962,-3.9922,-3.9637,-3.9532,-3.967,-3.9897,-4.0081,-4.0234,-4.0394,-4.05,-4.0615,-4.0718,-4.0819,-4.0929,-4.0974,-4.0725,-3.9984,-3.9804,-3.9557,-3.872,-3.8435,-3.8477,-3.8257,-3.815,-3.7968,-3.7796,-3.8191,-3.8554,-4.8576,0.0,-4.7276,-4.6418,0.0,-4.5018,-4.4405,-4.3411,-4.2567,-4.1841,-4.1207,-4.1228,-4.1092,-4.0865,-4.1016,-4.0908,-4.0617,-4.0721,-4.0571,-4.0136,-4.0218,-4.0115,-3.9863,-3.9895,-3.997,-4.0122,-4.0133,-3.997,-3.9676,-3.9751,-3.9629,-3.9298,-3.9433,-3.9599,-3.9804,-3.9975,-4.0215,-4.0558,-4.0135,-3.9725,-3.9311,-3.8086,-3.7237,-3.6722,0.0,0.0,0.0,0.0,0.0,0.0,0.0,0.0,0.0,0.0,0.0,-3.1995,-3.2393,-3.2574,-3.2411,-3.3183,-3.3587,-3.3417,-3.432,-3.4594,-3.3891,-3.3543,-3.3341,-3.3341,-3.334,-3.3353,-3.3395,-3.3754,-3.4017,-3.4086,-3.4821,-3.5332,-3.5343,-3.5611,-3.5836,-3.5864,-3.6803,-3.7641,-3.7926,-3.8994,-3.9915,-4.0236,-4.0332,-4.0367,-4.0389,-4.0139,-4.0,-4.012,-4.023,-4.037,-4.0489,-4.0593,-4.0668,-4.0754,-4.084,-4.0921,-4.0986,-4.1042,-4.0915,-4.0507,-4.0444,-4.0262,-3.9864,-3.9641,-3.9568,-3.9441,-3.9334,-3.92,-3.9141,-3.9045,-3.9052,-4.9277,-4.8307,-4.8204,-4.7244,-4.5772,-4.5634,-4.5163,-4.4375,0.0,0.0,0.0,-4.2317,-4.1991,-4.1439,-4.1522,-4.124,-4.0723,-4.078,-4.0781,-4.0637,-4.0691,-4.0726,-4.0722,-4.0808,-4.0909,-4.1093,-4.1038,-4.0772,-4.024,-4.0283,-4.0041,-3.9527,-3.9593,-3.9724,-3.9838,-4.0034,-4.0212,-4.0289,-4.0386,-4.0123,-3.9388,-3.8604,-3.7805,-3.7044,-3.5383,-3.4424,-3.4287,-3.3393,-3.2821,-3.2712,-3.2535,-3.2387,-3.2318,-3.2251,-3.2251,-3.2352,-3.2978,-3.3184,-3.2749,-3.4055,-3.4679,-3.4247,-3.4979,-3.5256,-3.4727,-3.41,-3.3718,-3.3719,-3.3731,-3.3774,-3.3809,-3.4413,-3.4835,-3.4917,-3.5561,-3.5968,-3.5976,-3.595,-3.5985,-3.6177,-3.6859,-3.758,-3.8421,-3.9228,-3.989,-4.0493,-4.0636,-4.0636,-4.0636,-4.0481,-4.0389,-4.0466,-4.0521,-4.0596,-4.07,-4.08,-4.0828,-4.0849,-4.0937,-4.1011,-4.1016,-4.106,-4.1093,-4.1045,-4.1088,-4.0994,-4.0953,-4.0771,-4.0776,-4.0713,-4.0569,-4.046,-4.025,-3.9662,-3.9337,-4.9762,-4.8289,-4.8222,-4.7547,-4.643,-4.6336,-4.5721,-4.4791,-4.4347,-4.366,-4.2838,-4.2926,-4.2579,-4.1913,-4.2085,-4.2114,-4.2029,-4.2092,-4.1812,0.0,-4.1148,-4.0865,-4.0456,-4.051,-4.0616,-4.0686,-4.0668,-4.0682,-4.0711,-4.0693,-4.0771,-4.0904,-4.1021,-4.0943,-4.0666,-4.0721,-4.048,-3.9911,-4.012,-4.0175,-4.0042,-3.9261,-3.8785,-3.859,-3.6919,-3.5954,-3.5856,-3.4902,-3.436,-3.4266,-3.4095,-3.3962,-3.3957,-3.3849,-3.3887,-3.3957,-3.4074,-3.418,-3.4285,-3.4555,-3.4832,-3.5021,-3.5209,-3.538,-3.5524,-3.5427,-3.5368,-3.5346,-3.5333,-3.5441,-3.5477,-3.5516,-3.5612,-3.5714,-3.5821,-3.5939,-3.6044,-3.6074,-3.6343,-3.695,-3.7769,-3.8541,-3.9318,-4.0091,-4.0587,-4.0809,-4.0849,-4.0858,-4.083,-4.0726,-4.0649,-4.0667,-4.0715,-4.0779,-4.0849,-4.0927,-4.0954,-4.0976,-4.1042,-4.1069,-4.1086,-4.1094,-4.1103,-4.1101,-4.1047,-4.0967,-4.0887,-4.0848,-4.0629,-4.0477,-4.0319,-4.0283,-4.0158,-3.9869,-3.9806,-5.0459,-4.9243,-4.8737,-4.7922,-4.685,-4.633,-4.5813,-4.5399,-4.5198,-4.4471,-4.3384,-4.3423,-4.3321,-4.3191,-4.3244,-4.3022,-4.2615,-4.2725,-4.2359,-4.1647,-4.1635,-4.1596,-4.1432,-4.1513,-4.1609,-4.1795,-4.1702,-4.156,-4.1324,-4.127,-4.1176,-4.1031,-4.1217,-4.1278,-4.1157,-4.1303,-4.1222,-4.0898,-4.0312,-4.0042,-4.002,-3.9267,-3.8809,-3.8782,-3.7509,-3.6577,-3.6099,-3.559,-3.5086,-3.4558,-3.4386,-3.4293,-3.4245,-3.4173,-3.4173,-3.4245,-3.4245,-3.4335,-3.4473,-3.4645,-3.4849,-3.5073,-3.516,-3.5254,-3.5416,-3.5538,-3.5588,-3.5579,-3.564,-3.5698,-3.5732,-3.5752,-3.5776,-3.584,-3.6261,-3.6576,-3.6688,-3.7106,-3.7493,-3.7871,-3.826,-3.8821,-3.9647,-4.0079,-4.0525,-4.0863,-4.1,-4.0974,-4.1017,-4.0948,-4.091,-4.0888,-4.0878,-4.0897,-4.0952,-4.1006,-4.1031,-4.1061,-4.1074,-4.1111,-4.1112,-4.1099,-4.1078,-4.1061,-4.0986,-4.0721,-4.0306,-4.0041,-3.9772,-3.9258,-3.9473,-3.9526,-3.945,-3.9589,-3.98,-5.0941,-5.0042,-4.9323,-4.8326,-4.7124,-4.6202,-4.5821,-4.577,-4.577,-4.5109,-4.4182,-4.3969,-4.3938,-4.3986,-4.3986,-4.368,-4.3152,-4.319,-4.2917,-4.2388,-4.2422,-4.2612,-4.2721,-4.2846,-4.288,-4.2915,-4.2817,-4.2447,-4.1917,-4.1827,-4.1687,-4.1356,-4.1589,-4.1691,-4.1632,-4.185,-4.1864,-4.166,-4.0758,-4.0208,-4.0087,-3.9303,-3.8846,-3.8754,-3.7974,-3.7196,-3.6534,-3.6208,-3.5698,-3.5063,-3.4894,-3.4797,-3.4705,-3.4673,-3.4673,-3.4705,-3.4705,-3.4754,-3.4918,-3.5165,-3.5335,-3.5437,-3.5515,-3.5608,-3.5696,-3.5833,-3.5867,-3.5791,-3.604,-3.6215,-3.6317,-3.6288,-3.627,-3.6382,-3.6931,-3.7362,-3.7521,-3.8088,-3.8588,-3.8707,-3.8793,-3.9135,-3.9843,-4.0096,-4.0402,-4.0938,-4.1055,-4.1039,-4.108,-4.1103,-4.1065,-4.1028,-4.1007,-4.1026,-4.1033,-4.107,-4.108,-4.111,-4.1113,-4.1103,-4.1085,-4.1066,-4.0905,-4.0746,-4.0585,-4.014,-3.9406,-3.9103,-3.8748,-3.8223,-3.8414,-3.8671,-3.8776,-3.9226,-3.9618,-5.0838,-5.0114,-4.987,-4.8783,-4.7159,-4.6304,-4.5838,-4.5632,-4.5615,-4.5511,-4.5183,-4.4798,-4.4202,-4.3641,-4.3738,-4.375,-4.3628,-4.3628,-4.3717,-4.3814,-4.3775,-4.3849,-4.4005,-4.4139,-4.3863,-4.3319,-4.3248,-4.2941,-4.2432,-4.232,-4.2447,-4.2777,-4.3012,-4.2803,-4.24,-4.2405,-4.2131,-4.1471,-4.1381,-4.1143,-4.071,-3.9851,-3.942,-3.9414,-3.8558,-3.8083,-3.789,-3.718,-3.6642,-3.6519,-3.6393,-3.6332,-3.6278,-3.6251,-3.6251,-3.6232,-3.6251,-3.635,-3.6463,-3.6702,-3.6733,-3.684,-3.6836,-3.6944,-3.7106,-3.7224,-3.7066,-3.6776,-3.7276,-3.7635,-3.7848,-3.779,-3.7742,-3.7811,-3.8035,-3.822,-3.8311,-3.835,-3.8708,-3.9526,-3.9653,-3.9997,-4.0701,-4.0865,-4.0967,-4.1052,-4.1093,-4.1093,-4.1092,-4.111,-4.111,-4.1093,-4.1093,-4.1086,-4.1087,-4.1091,-4.1112,-4.1101,-4.1117,-4.1086,-4.1026,-4.0974,-4.0804,-4.0343,-3.9878,-3.953,-3.8684,-3.8175,-3.8093,-3.7568,-3.76,-3.787,-3.8423,-3.9001,-3.9376,-5.1017,-5.0611,-5.0048,-4.875,-4.7073,-4.6048,-4.5581,-4.5459,-4.5476,-4.5423,-4.5406,-4.5183,-4.4974,-4.473,-4.4881,-4.4655,-4.417,-4.4286,-4.4007,-4.3655,-4.3715,-4.3875,-4.4032,-4.4107,-4.3976,-4.3801,-4.3784,-4.3669,-4.3385,-4.3113,-4.3153,-4.3439,-4.3249,-4.2996,-4.2812,-4.2915,-4.2868,-4.2621,-4.2234,-4.1934,-4.1683,-4.0578,-3.9965,-3.9879,-3.9144,-3.8492,-3.8055,-3.759,-3.7165,-3.67,-3.6591,-3.6537,-3.6509,-3.6473,-3.6454,-3.6482,-3.6509,-3.6537,-3.6644,-3.6705,-3.6789,-3.6808,-3.6906,-3.7019,-3.7175,-3.7721,-3.7998,-3.7852,-3.7861,-3.7894,-3.7959,-3.7969,-3.804,-3.8208,-3.8612,-3.8969,-3.9034,-3.9539,-4.0049,-4.0369,-4.0468,-4.0617,-4.0959,-4.1076,-4.11,-4.1105,-4.1124,-4.1187,-4.1133,-4.1109,-4.1105,-4.109,-4.1062,-4.1052,-4.1094,-4.1108,-4.1109,-4.1091,-4.107,-4.1013,-4.1003,-4.0954,-4.0771,-4.0313,-4.0118,-3.9483,-3.8309,-3.7901,-3.7658,-3.695,-3.6616,-3.6925,-3.8112,-3.8544,-3.8827,-5.1052,-5.0875,-5.003,-4.8714,-4.7195,-4.6221,-4.5613,-4.5441,-4.5441,-4.5441,-4.5441,-4.5441,-4.5476,-4.5581,-4.5667,-4.5355,-4.4853,-4.4869,-4.4574,-4.3987,-4.415,-4.4314,-4.441,-4.441,-4.4353,-4.4273,-4.4302,-4.4243,-4.4152,-4.3916,-4.3877,-4.4016,-4.3508,-4.3206,-4.332,-4.3251,-4.325,-4.332,-4.2842,-4.265,-4.2548,-4.1483,-4.0744,-4.0537,-3.9806,-3.9101,-3.8535,-3.8219,-3.7839,-3.7239,-3.7174,-3.71,-3.7043,-3.7014,-3.6985,-3.7014,-3.7043,-3.709,-3.7174,-3.7202,-3.7239,-3.7291,-3.7389,-3.7473,-3.7692,-3.8305,-3.8719,-3.8792,-3.8534,-3.8384,-3.845,-3.8503,-3.8585,-3.8763,-3.9326,-3.9708,-3.9835,-4.0463,-4.0779,-4.0849,-4.0829,-4.0952,-4.1003,-4.1227,-4.1455,-4.1461,-4.1675,-4.1779,-4.1792,-4.1825,-4.1811,-4.1727,-4.1558,-4.1273,-4.1128,-4.1064,-4.1059,-4.1025,-4.0991,-4.0968,-4.0952,-4.0888,-4.0563,-4.0087,-4.0249,-3.9726,-3.8235,-3.7661,-3.7101,-3.5817,-3.5567,-3.6355,-3.7521,-3.7916,-3.8387,-5.0891,-5.0785,-4.9887,-4.8922,-4.7835,-4.7053,-4.6237,-4.551,-4.5475,-4.5458,-4.5441,-4.5441,-4.5423,-4.5423,-4.5475,-4.5406,-4.5354,-4.532,-4.5321,-4.5338,-4.5425,-4.5545,-4.5716,-4.5716,-4.5316,-4.4739,-4.4785,-4.4711,-4.4385,-4.4449,-4.4614,-4.4707,-4.4096,-4.3804,-4.3794,-4.3333,-4.303,-4.3196,-4.3196,-4.3211,-4.3228,-4.2514,-4.1791,-4.1267,-4.048,-4.0,-3.9889,-3.9243,-3.8807,-3.8693,-3.8626,-3.8566,-3.8394,-3.8327,-3.8308,-3.8264,-3.8295,-3.8425,-3.8487,-3.8523,-3.8582,-3.8689,-3.8635,-3.8878,-3.883,-3.9029,-3.9189,-3.9389,-3.9402,-3.9586,-3.9794,-3.9757,-3.9925,-4.0101,-4.0233,-4.0354,-4.0472,-4.0557,-4.0694,-4.0745,-4.0862,-4.1052,-4.1043,-4.1654,-4.209,-4.2313,-4.2886,-4.333,-4.3214,-4.3266,-4.3199,-4.3034,-4.2578,-4.1907,-4.1244,-4.1011,-4.0988,-4.0952,-4.0935,-4.0878,-4.0849,-4.071,-4.023,-3.9863,-3.9803,-3.9253,-3.8049,-3.7086,-3.633,-3.5646,-3.5558,-3.6269,-3.71,-3.7553,-3.8052,-5.0891,-5.082,-4.987,-4.9255,-4.8816,-4.7923,-4.707,-4.6342,-4.6236,-4.5872,-4.5492,-4.5441,-4.5441,-4.5441,-4.5958,-4.5906,-4.5458,-4.5441,-4.5423,-4.5476,-4.5563,-4.5563,-4.5546,-4.5615,-4.5511,-4.52,-4.5268,-4.5431,-4.5457,-4.5187,-4.5106,-4.5054,-4.4589,-4.4324,-4.4337,-4.4309,-4.4126,-4.379,-4.3869,-4.3725,-4.3305,-4.2977,-4.2737,-4.2459,-4.1364,-4.0767,-4.0749,-4.0473,-4.0055,-3.954,-3.9478,-3.9158,-3.8583,-3.8478,-3.8433,-3.8415,-3.8415,-3.8446,-3.8496,-3.8528,-3.8559,-3.8572,-3.8634,-3.881,-3.8921,-3.9045,-3.9137,-3.9283,-3.9425,-3.9583,-3.9735,-3.9935,-4.0138,-4.0252,-4.0325,-4.0396,-4.0479,-4.0573,-4.0631,-4.0717,-4.1139,-4.1763,-4.2257,-4.2726,-4.2923,-4.2994,-4.3276,-4.351,-4.352,-4.349,-4.3535,-4.3438,-4.3152,-4.2807,-4.2528,-4.1461,-4.0917,-4.0888,-4.0858,-4.0826,-4.0761,-4.07,-4.0337,-4.0188,-3.9922,-3.9459,-3.8516,-3.7623,-3.667,-3.5899,-3.5856,-3.6128,-3.6658,-3.7217,-3.7822,-5.0873,-5.0714,-5.0115,-4.9693,-4.9306,-4.8601,-4.785,-4.7138,-4.6995,-4.6665,-4.6217,-4.6165,-4.6111,-4.6143,-4.668,-4.6574,-4.6003,-4.6075,-4.6057,-4.6057,-4.6094,-4.5956,-4.5679,-4.5768,-4.5648,-4.5423,-4.5563,-4.5854,-4.6151,-4.5839,-4.5688,-4.5758,-4.5196,-4.4955,-4.5007,-4.5048,-4.4841,-4.4487,-4.4494,-4.4211,-4.3578,-4.3432,-4.3323,-4.3014,-4.2174,-4.1567,-4.1397,-4.1141,-4.0775,-4.0262,-4.0141,-3.9834,-3.9272,-3.9112,-3.9046,-3.9034,-3.9016,-3.8979,-3.9034,-3.9034,-3.9052,-3.9067,-3.9167,-3.9246,-3.9423,-3.9577,-3.9697,-3.9804,-3.9955,-4.0076,-4.0233,-4.0452,-4.0473,-4.0266,-4.0367,-4.0597,-4.0691,-4.1085,-4.1322,-4.1524,-4.1956,-4.2555,-4.3095,-4.3438,-4.3634,-4.3724,-4.393,-4.4149,-4.4211,-4.4207,-4.4189,-4.4137,-4.3885,-4.3689,-4.338,-4.2563,-4.1664,-4.1497,-4.0916,-4.0822,-4.0681,-4.0617,-4.0523,-4.0444,-4.0187,-3.9774,-3.9109,-3.8245,-3.7335,-3.64,-3.6222,-3.6472,-3.6771,-3.6952,-3.7595,-5.0801,-5.064,-5.0585,-5.0,-4.9313,-4.917,-4.8609,-4.7841,-4.7717,-4.7614,-4.7369,-4.7524,-4.7348,-4.7408,-4.7425,-4.7403,-4.7204,-4.7386,-4.7408,-4.7288,-4.7158,-4.676,-4.6157,-4.6272,-4.6072,-4.5471,-4.5684,-4.5974,-4.6242,-4.6266,-4.6323,-4.6395,-4.5868,-4.5668,-4.5802,-4.543,-4.5132,-4.5088,-4.5111,-4.4773,-4.4165,-4.3999,-4.3656,-4.3081,-4.2884,-4.2577,-4.1994,-4.1336,-4.0972,-4.0844,-4.0792,-4.0757,-4.0488,-4.0307,-4.0293,-4.0203,-4.0167,-4.0203,-4.0275,-4.0239,-4.0185,-4.0239,-4.0419,-4.0379,-4.0445,-4.0705,-4.0855,-4.0896,-4.1071,-4.1308,-4.1437,-4.1512,-4.1196,-4.0276,-4.0748,-4.119,-4.1447,-4.2103,-4.2757,-4.2849,-4.2979,-4.3015,-4.3242,-4.383,-4.4322,-4.4523,-4.4959,-4.537,-4.538,-4.5351,-4.5626,-4.5476,-4.4909,-4.4399,-4.4087,-4.3698,-4.2898,-4.214,-4.1363,-4.0886,-4.0656,-4.0523,-4.0392,-4.0306,-4.0196,-3.9833,-3.9407,-3.8572,-3.8014,-3.7255,-3.7131,-3.6864,-3.7036,-3.7282,-3.7583,-5.0657,-5.0585,-5.0509,-5.0276,-5.0011,-4.9899,-4.9409,-4.8678,-4.8532,-4.8161,-4.7636,-4.7567,-4.7477,-4.7501,-4.782,-4.8077,-4.807,-4.8421,-4.8182,-4.7461,-4.725,-4.709,-4.6828,-4.7021,-4.7069,-4.6869,-4.6619,-4.6534,-4.6534,-4.6302,-4.6172,-4.6151,-4.6247,-4.6265,-4.634,-4.6418,-4.6316,-4.5803,-4.5809,-4.5498,-4.4818,-4.4687,-4.4309,-4.3606,-4.3538,-4.3159,-4.2461,-4.2285,-4.1978,-4.1452,-4.1397,-4.1035,-4.0528,-4.0275,-4.0239,-4.0255,-4.0215,-4.0217,-4.0254,-4.0309,-4.0345,-4.0328,-4.0347,-4.0402,-4.051,-4.0724,-4.0862,-4.0946,-4.1056,-4.123,-4.1385,-4.1452,-4.1464,-4.1424,-4.1685,-4.1898,-4.2067,-4.243,-4.2943,-4.3599,-4.3752,-4.4001,-4.4479,-4.4958,-4.4994,-4.5068,-4.5391,-4.5599,-4.5635,-4.5635,-4.5584,-4.5526,-4.5164,-4.4974,-4.4722,-4.4299,-4.3624,-4.2733,-4.1848,-4.092,-4.0608,-4.0427,-4.0306,-4.0158,-4.0078,-3.984,-3.9444,-3.902,-3.8477,-3.804,-3.7679,-3.7526,-3.7474,-3.7638,-3.7867,-5.0657,-5.0602,-5.0492,-5.0397,-5.0285,-5.0246,-4.9929,-4.9491,-4.9326,-4.8936,-4.8461,-4.8335,-4.8186,-4.8155,-4.8506,-4.8652,-4.866,-4.8982,-4.8676,-4.7979,-4.7877,-4.7716,-4.7369,-4.7352,-4.7494,-4.7631,-4.7343,-4.7226,-4.7174,-4.6743,-4.646,-4.651,-4.6557,-4.6572,-4.6619,-4.6934,-4.6865,-4.6453,-4.6426,-4.6111,-4.5466,-4.5305,-4.491,-4.4247,-4.4103,-4.3709,-4.301,-4.3041,-4.2724,-4.217,-4.1988,-4.1679,-4.1135,-4.1063,-4.0971,-4.0984,-4.0935,-4.0909,-4.0864,-4.0935,-4.0885,-4.0885,-4.0906,-4.0963,-4.1097,-4.125,-4.1397,-4.1577,-4.1738,-4.1839,-4.2029,-4.204,-4.2242,-4.2641,-4.2519,-4.269,-4.2989,-4.3293,-4.3665,-4.4255,-4.4452,-4.4741,-4.5107,-4.5321,-4.5361,-4.5419,-4.5458,-4.5477,-4.5495,-4.5475,-4.5476,-4.5457,-4.5361,-4.5285,-4.5323,-4.4882,-4.4307,-4.3348,-4.233,-4.1294,-4.055,-4.0364,-4.0196,-4.0059,-3.9914,-3.9804,-3.9439,-3.9357,-3.8976,-3.8614,-3.8174,-3.8122,-3.8004,-3.7763,-3.7856,-5.0747,-5.0602,-5.0602,-5.0453,-5.0246,-5.0189,-5.0097,-4.9959,-4.9942,-4.9832,-4.9815,-4.9561,-4.9436,-4.9402,-4.9154,-4.9067,-4.8984,-4.8968,-4.9029,-4.8894,-4.8843,-4.8555,-4.8073,-4.7749,-4.7832,-4.8027,-4.7966,-4.7934,-4.7882,-4.7439,-4.7195,-4.7071,-4.6825,-4.6625,-4.6655,-4.6842,-4.6962,-4.6845,-4.6908,-4.6516,-4.5891,-4.5829,-4.5437,-4.4688,-4.4617,-4.4278,-4.3636,-4.3451,-4.3126,-4.2638,-4.244,-4.2386,-4.244,-4.2351,-4.2109,-4.2073,-4.2072,-4.1899,-4.1934,-4.1806,-4.1817,-4.1782,-4.1831,-4.2145,-4.2055,-4.2109,-4.2307,-4.2517,-4.272,-4.2941,-4.3032,-4.3068,-4.3208,-4.3502,-4.3206,-4.3455,-4.4336,-4.4508,-4.4543,-4.4787,-4.4967,-4.501,-4.5084,-4.5129,-4.5213,-4.5256,-4.5319,-4.536,-4.538,-4.5361,-4.5381,-4.5361,-4.5321,-4.5301,-4.5239,-4.5144,-4.4512,-4.3574,-4.2621,-4.1648,-4.0635,-4.0329,-4.0078,-3.9914,-3.9762,-3.9647,-3.9508,-3.9357,-3.9192,-3.8775,-3.8571,-3.8572,-3.836,-3.8034,-3.7799,-5.0657,-5.0585,-5.0492,-5.0341,-5.0189,-5.0189,-5.0149,-4.9993,-5.0011,-4.9918,-4.9784,-4.9708,-4.953,-4.929,-4.9229,-4.9124,-4.9001,-4.9018,-4.9018,-4.9018,-4.9018,-4.9101,-4.9052,-4.8933,-4.9032,-4.9212,-4.8752,-4.8584,-4.8532,-4.808,-4.7631,-4.7074,-4.7307,-4.7011,-4.6583,-4.6673,-4.6684,-4.6702,-4.6684,-4.6631,-4.6436,-4.6347,-4.5992,-4.5283,-4.5194,-4.4822,-4.4183,-4.405,-4.3377,-4.2281,-4.2157,-4.2174,-4.2192,-4.2157,-4.2115,-4.203,-4.2023,-4.1972,-4.1962,-4.1962,-4.1945,-4.1884,-4.1945,-4.197,-4.1952,-4.2103,-4.2333,-4.2494,-4.2573,-4.2727,-4.2936,-4.2956,-4.305,-4.3321,-4.3472,-4.3793,-4.4194,-4.4421,-4.4551,-4.4685,-4.4745,-4.4815,-4.4889,-4.4943,-4.501,-4.5061,-4.5106,-4.5129,-4.5173,-4.5197,-4.5197,-4.5194,-4.517,-4.5148,-4.5106,-4.5084,-4.4661,-4.3738,-4.2826,-4.1933,-4.1024,-4.0357,-4.0041,-3.9758,-3.9623,-3.9502,-3.9376,-3.9245,-3.9017,-3.8792,-3.867,-3.8515,-3.8285,-3.7995,-3.7825,-5.0675,-5.0585,-5.0492,-5.0397,-5.0302,-5.0246,-5.0132,-5.0092,-4.9993,-4.9935,-4.9842,-4.9708,-4.959,-4.935,-4.9229,-4.9107,-4.9001,-4.9018,-4.9018,-4.9018,-4.9018,-4.9168,-4.9411,-4.9488,-4.9607,-4.9825,-4.947,-4.9281,-4.9108,-4.8806,-4.8379,-4.8067,-4.8029,-4.7668,-4.698,-4.6941,-4.6795,-4.6613,-4.6525,-4.6542,-4.6542,-4.6578,-4.6413,-4.597,-4.5899,-4.5563,-4.4816,-4.4392,-4.3756,-4.3129,-4.2935,-4.2732,-4.2414,-4.2256,-4.2115,-4.1842,-4.1701,-4.1639,-4.1666,-4.1692,-4.1631,-4.1587,-4.1622,-4.1657,-4.1648,-4.1805,-4.1959,-4.2169,-4.2269,-4.2472,-4.2613,-4.2765,-4.286,-4.3068,-4.3461,-4.3791,-4.3949,-4.414,-4.4258,-4.4421,-4.4505,-4.4587,-4.4659,-4.4738,-4.4789,-4.4821,-4.4895,-4.4919,-4.4967,-4.4991,-4.4995,-4.4991,-4.4943,-4.4919,-4.487,-4.4846,-4.4682,-4.3838,-4.2882,-4.2033,-4.0986,-4.0193,-3.9878,-3.957,-3.9452,-3.935,-3.9219,-3.9055,-3.8844,-3.8652,-3.8559,-3.8368,-3.8138,-3.7949,-3.7774,-5.0801,-5.064,-5.064,-5.0547,-5.0415,-5.0285,-5.0228,-5.0189,-5.0092,-5.0011,-4.997,-4.987,-4.9889,-4.9667,-4.9794,-4.9474,-4.9385,-4.9475,-4.939,-4.9424,-4.9407,-4.9593,-4.9667,-4.9479,-4.9547,-4.9691,-4.9935,-4.9791,-4.9567,-4.9426,-4.9353,-4.9042,-4.8837,-4.8377,-4.7762,-4.7603,-4.7231,-4.6685,-4.6597,-4.6491,-4.6403,-4.6451,-4.6381,-4.6341,-4.6288,-4.5993,-4.5316,-4.4771,-4.4378,-4.4435,-4.423,-4.3557,-4.3012,-4.2748,-4.2439,-4.1939,-4.1806,-4.1708,-4.1551,-4.1765,-4.1509,-4.1516,-4.1406,-4.1302,-4.1433,-4.1515,-4.1657,-4.1874,-4.2103,-4.2228,-4.2391,-4.257,-4.2706,-4.2822,-4.3031,-4.3286,-4.3545,-4.3828,-4.4017,-4.4132,-4.4258,-4.4383,-4.444,-4.4496,-4.4532,-4.4541,-4.4595,-4.4595,-4.464,-4.4685,-4.47,-4.4732,-4.47,-4.4674,-4.464,-4.456,-4.4354,-4.3905,-4.2903,-4.1911,-4.0558,-3.9827,-3.9577,-3.9369,-3.9317,-3.921,-3.9073,-3.8873,-3.8664,-3.8478,-3.8318,-3.8138,-3.7916,-3.7792,-3.7649,-5.0891,-5.0819,-5.0819,-5.0729,-5.0547,-5.0547,-5.0415,-5.0241,-5.0241,-5.023,-5.0149,-5.0555,-5.0737,-5.0609,-5.0871,-5.1123,-5.0798,-5.0672,-5.0744,-5.0744,-5.0744,-5.0498,-5.013,-4.9699,-4.9462,-4.9666,-4.9708,-4.9708,-4.9664,-4.9775,-4.9747,-4.9318,-4.9271,-4.8854,-4.8242,-4.8068,-4.7666,-4.7157,-4.7051,-4.6768,-4.6362,-4.6259,-4.6192,-4.6122,-4.6073,-4.5903,-4.573,-4.5538,-4.5451,-4.5222,-4.4467,-4.3768,-4.3476,-4.3328,-4.3123,-4.2949,-4.2914,-4.2949,-4.2949,-4.2788,-4.2678,-4.2042,-4.1985,-4.1853,-4.1221,-4.1296,-4.1426,-4.1587,-4.1736,-4.1892,-4.2145,-4.2328,-4.2427,-4.2566,-4.2745,-4.288,-4.3068,-4.3426,-4.3679,-4.3777,-4.3955,-4.4097,-4.4097,-4.417,-4.421,-4.4288,-4.4288,-4.4277,-4.4325,-4.4373,-4.4411,-4.4439,-4.4412,-4.4374,-4.4345,-4.4288,-4.4117,-4.3804,-4.2962,-4.2196,-4.0859,-3.9806,-3.9695,-3.9425,-3.9183,-3.9045,-3.8873,-3.8743,-3.8546,-3.8318,-3.8101,-3.7949,-3.7792,-3.7649,-3.7503,-5.1683,-5.1961,-5.1906,-5.1759,-5.1668,-5.1516,-5.1419,-5.1263,-5.1205,-5.1087,-5.1114,-5.1494,-5.1511,-5.1424,-5.16,-5.1583,-5.149,-5.1282,-5.12,-5.1183,-5.1183,-5.1061,-5.09,-5.0374,-5.0028,-4.9658,-4.959,-4.959,-4.9708,-4.9866,-4.9907,-4.9747,-4.9733,-4.9443,-4.887,-4.8675,-4.831,-4.7771,-4.7596,-4.7281,-4.6653,-4.6481,-4.6202,-4.5959,-4.5821,-4.5787,-4.5803,-4.5821,-4.5701,-4.5459,-4.492,-4.4294,-4.4017,-4.3898,-4.3709,-4.3398,-4.3346,-4.3279,-4.321,-4.3172,-4.2964,-4.2511,-4.2541,-4.2061,-4.163,-4.1501,-4.14,-4.1394,-4.1426,-4.1648,-4.1909,-4.2097,-4.2199,-4.224,-4.2387,-4.245,-4.257,-4.3032,-4.3426,-4.3461,-4.3631,-4.373,-4.3828,-4.3841,-4.3923,-4.3974,-4.4067,-4.4055,-4.4067,-4.4116,-4.4147,-4.414,-4.4109,-4.4067,-4.4036,-4.3986,-4.3881,-4.354,-4.2995,-4.2414,-4.1669,-4.0737,-3.9941,-3.9608,-3.9256,-3.8862,-3.8664,-3.8546,-3.8405,-3.8171,-3.7949,-3.7756,-3.7613,-3.7449,-3.7354,-5.267,-5.3116,-5.2967,-5.2909,-5.2869,-5.2601,-5.2448,-5.2424,-5.2278,-5.2028,-5.2192,-5.2261,-5.2207,-5.2118,-5.2118,-5.1975,-5.1834,-5.1739,-5.1826,-5.1809,-5.1761,-5.164,-5.1502,-5.1217,-5.0693,-4.961,-4.9674,-4.9667,-4.9582,-4.9767,-4.9948,-5.0137,-5.0228,-4.9903,-4.9507,-4.9385,-4.8983,-4.8342,-4.8241,-4.791,-4.73,-4.7125,-4.6725,-4.6083,-4.565,-4.5632,-4.5615,-4.5615,-4.5546,-4.5389,-4.5319,-4.5044,-4.4699,-4.4457,-4.4182,-4.3545,-4.3631,-4.3632,-4.358,-4.3391,-4.3305,-4.2945,-4.2911,-4.2535,-4.2056,-4.1933,-4.1771,-4.1397,-4.1308,-4.1426,-4.1692,-4.1841,-4.1945,-4.1987,-4.2037,-4.2079,-4.2187,-4.267,-4.292,-4.3105,-4.3286,-4.3426,-4.3495,-4.3545,-4.3634,-4.3719,-4.3786,-4.38,-4.3832,-4.3814,-4.3814,-4.3763,-4.373,-4.3697,-4.3682,-4.3664,-4.3542,-4.3361,-4.2923,-4.2558,-4.2158,-4.1445,-4.0529,-3.9706,-3.927,-3.8993,-3.8629,-3.8427,-3.8262,-3.8003,-3.7828,-3.7649,-3.7449,-3.7223,-3.7217,-5.2993,-5.2967,-5.2909,-5.2869,-5.2729,-5.2671,-5.2698,-5.2493,-5.2399,-5.2174,-5.219,-5.2484,-5.2694,-5.2767,-5.3219,-5.3243,-5.2975,-5.2858,-5.2926,-5.2859,-5.2741,-5.2472,-5.2017,-5.2016,-5.1444,-5.0865,-5.0447,-5.0134,-4.9676,-4.9649,-4.9884,-5.0132,-5.0092,-4.9936,-4.9941,-4.9907,-4.9469,-4.892,-4.8768,-4.8477,-4.7974,-4.7625,-4.7185,-4.6284,-4.5677,-4.5331,-4.5245,-4.5157,-4.5069,-4.5069,-4.5086,-4.5001,-4.4864,-4.4829,-4.4727,-4.4573,-4.4506,-4.4437,-4.4382,-4.4502,-4.4263,-4.3885,-4.3661,-4.3285,-4.2774,-4.2535,-4.2261,-4.1776,-4.1397,-4.1267,-4.1443,-4.1612,-4.1692,-4.178,-4.1884,-4.197,-4.2012,-4.2163,-4.2432,-4.2613,-4.2882,-4.3105,-4.3124,-4.3196,-4.3286,-4.3339,-4.3375,-4.341,-4.341,-4.341,-4.3375,-4.3339,-4.3304,-4.3304,-4.3304,-4.3304,-4.3232,-4.3178,-4.2868,-4.2523,-4.2159,-4.1851,-4.1143,-4.0557,-3.9878,-3.9462,-3.9055,-3.861,-3.8347,-3.8313,-3.7934,-3.7592,-3.7689,-3.776,-3.7435,-5.3923,-5.408,-5.4039,-5.3895,-5.381,-5.3654,-5.3593,-5.3549,-5.3329,-5.3204,-5.3181,-5.3327,-5.3417,-5.3454,-5.3562,-5.3601,-5.3501,-5.3365,-5.3348,-5.3264,-5.3076,-5.2907,-5.2504,-5.2589,-5.2202,-5.1713,-5.1386,-5.0798,-5.0015,-4.9718,-4.9777,-4.9884,-4.9842,-4.9918,-4.9901,-4.9732,-4.9595,-4.9292,-4.9223,-4.8913,-4.8247,-4.7847,-4.7219,-4.673,-4.6058,-4.5627,-4.5507,-4.5115,-4.4995,-4.4923,-4.4886,-4.4903,-4.4831,-4.4831,-4.4831,-4.4978,-4.5015,-4.4944,-4.4923,-4.4869,-4.4647,-4.4334,-4.4249,-4.3892,-4.3348,-4.3078,-4.2859,-4.2346,-4.1793,-4.1522,-4.173,-4.1522,-4.1415,-4.1453,-4.1542,-4.1622,-4.171,-4.1736,-4.1892,-4.2145,-4.2374,-4.2595,-4.2768,-4.2826,-4.2902,-4.2939,-4.2995,-4.2995,-4.3013,-4.3013,-4.3013,-4.3013,-4.3013,-4.2975,-4.2975,-4.292,-4.2864,-4.2824,-4.2711,-4.242,-4.2217,-4.1926,-4.1872,-4.1643,-4.0942,-4.0059,-3.9716,-3.9372,-3.899,-3.8681,-3.8599,-3.8518,-3.8417,-3.8239,-3.7947,-5.4893,-5.5199,-5.5035,-5.4965,-5.478,-5.4575,-5.4397,-5.4385,-5.4188,-5.4008,-5.411,-5.3898,-5.3815,-5.3849,-5.3634,-5.3534,-5.3365,-5.3195,-5.3127,-5.311,-5.2903,-5.2817,-5.2903,-5.2922,-5.2689,-5.2287,-5.2066,-5.1705,-5.0708,-5.0049,-4.9838,-4.9889,-4.9838,-4.9649,-4.9649,-4.9607,-4.9488,-4.9488,-4.9471,-4.9146,-4.8582,-4.7858,-4.7414,-4.7329,-4.6624,-4.6249,-4.6181,-4.5567,-4.5205,-4.5031,-4.4856,-4.4737,-4.4626,-4.457,-4.4665,-4.4886,-4.494,-4.4831,-4.4776,-4.4759,-4.4686,-4.4563,-4.4536,-4.4198,-4.3736,-4.3457,-4.3206,-4.2841,-4.2296,-4.1986,-4.2049,-4.1643,-4.1375,-4.136,-4.1319,-4.1226,-4.1363,-4.1408,-4.1436,-4.1657,-4.1934,-4.2086,-4.2216,-4.2338,-4.236,-4.2555,-4.2613,-4.2691,-4.267,-4.2709,-4.2709,-4.2729,-4.2729,-4.2709,-4.267,-4.2573,-4.2476,-4.2356,-4.2315,-4.2109,-4.2085,-4.2062,-4.1991,-4.1872,-4.1484,-4.0667,-4.0396,-3.9964,-3.942,-3.9177,-3.9411,-3.9265,-3.8824,-3.8688,-3.8552,-5.5343,-5.5182,-5.5035,-5.4948,-5.478,-5.4575,-5.4385,-5.4239,-5.411,-5.3915,-5.3766,-5.3601,-5.3568,-5.3484,-5.3399,-5.3179,-5.3041,-5.2972,-5.2903,-5.2903,-5.2764,-5.2624,-5.2624,-5.264,-5.2784,-5.262,-5.2388,-5.1862,-5.1359,-5.0691,-5.039,-5.041,-4.9898,-4.9582,-4.9641,-4.9462,-4.9488,-4.9488,-4.9488,-4.9419,-4.9155,-4.843,-4.8065,-4.7759,-4.725,-4.6767,-4.6683,-4.6106,-4.5659,-4.5557,-4.4981,-4.4677,-4.457,-4.457,-4.4587,-4.4643,-4.4626,-4.4626,-4.4626,-4.4609,-4.4626,-4.4514,-4.444,-4.4299,-4.399,-4.3547,-4.3322,-4.3318,-4.2678,-4.243,-4.2467,-4.2054,-4.1877,-4.1647,-4.1484,-4.1284,-4.1267,-4.1088,-4.1117,-4.1163,-4.1391,-4.1552,-4.1692,-4.1778,-4.1881,-4.2026,-4.2187,-4.2269,-4.231,-4.2351,-4.2351,-4.2333,-4.2333,-4.2292,-4.2251,-4.221,-4.211,-4.1941,-4.1881,-4.1796,-4.177,-4.1788,-4.1719,-4.1551,-4.1276,-4.1131,-4.0784,-4.03,-3.9764,-3.9676,-3.9884,-3.9528,-3.8955,-3.8981,-3.9216,-5.5472,-5.5182,-5.5035,-5.4948,-5.478,-5.4575,-5.4367,-5.4175,-5.4045,-5.3915,-5.3717,-5.3551,-5.3433,-5.328,-5.3127,-5.2972,-5.2903,-5.2764,-5.2694,-5.2711,-5.257,-5.2499,-5.2499,-5.257,-5.2711,-5.2819,-5.2824,-5.2859,-5.2281,-5.1562,-5.1077,-5.0958,-5.0424,-5.0049,-4.9947,-4.945,-4.9297,-4.9185,-4.9246,-4.9229,-4.9101,-4.887,-4.8623,-4.8599,-4.7793,-4.7462,-4.7259,-4.6743,-4.6355,-4.621,-4.5618,-4.5155,-4.4929,-4.471,-4.4384,-4.4344,-4.4344,-4.4327,-4.4367,-4.444,-4.44,-4.4344,-4.4212,-4.4179,-4.4071,-4.387,-4.3595,-4.3782,-4.311,-4.2888,-4.2901,-4.2464,-4.233,-4.2141,-4.1778,-4.1533,-4.1319,-4.0875,-4.0806,-4.0853,-4.0901,-4.1007,-4.1174,-4.1265,-4.1401,-4.1552,-4.1701,-4.1788,-4.1849,-4.1892,-4.1892,-4.1892,-4.1892,-4.1892,-4.1849,-4.1744,-4.1701,-4.1569,-4.1507,-4.1418,-4.1418,-4.1391,-4.1363,-4.1346,-4.1243,-4.1121,-4.099,-4.0832,-4.049,-4.0403,-4.0368,-4.0043,-3.9753,-3.9939,-4.0118,-5.5472,-5.5182,-5.5035,-5.4948,-5.4797,-5.4575,-5.4367,-5.4175,-5.4045,-5.3849,-5.3651,-5.3484,-5.3264,-5.311,-5.2903,-5.2764,-5.2764,-5.264,-5.257,-5.2516,-5.2445,-5.2445,-5.2445,-5.2499,-5.264,-5.285,-5.2853,-5.2992,-5.2977,-5.2518,-5.1905,-5.1664,-5.0951,-5.0646,-5.0396,-5.0108,-4.974,-4.9419,-4.9137,-4.8973,-4.894,-4.8894,-4.8781,-4.8675,-4.8399,-4.8044,-4.795,-4.7349,-4.6962,-4.6776,-4.6187,-4.5723,-4.5547,-4.5026,-4.4632,-4.4473,-4.4373,-4.4155,-4.4212,-4.4212,-4.4212,-4.4155,-4.4056,-4.4039,-4.3964,-4.3981,-4.4039,-4.3956,-4.3588,-4.3423,-4.3334,-4.2939,-4.2692,-4.246,-4.2158,-4.1955,-4.1663,-4.1203,-4.0822,-4.0662,-4.0662,-4.0517,-4.0645,-4.0789,-4.0931,-4.1071,-4.118,-4.1272,-4.1363,-4.1408,-4.1408,-4.1408,-4.1408,-4.1408,-4.1318,-4.1272,-4.1244,-4.118,-4.1134,-4.1024,-4.1024,-4.0977,-4.0977,-4.1024,-4.1071,-4.0938,-4.0776,-4.1041,-4.1272,-4.0902,-4.0637,-4.0753,-4.0745,-4.0871,-4.0741,-5.5413,-5.5199,-5.5035,-5.4948,-5.478,-5.4575,-5.4303,-5.4045,-5.398,-5.38,-5.3484,-5.3264,-5.311,-5.2903,-5.2694,-5.257,-5.2445,-5.2445,-5.2445,-5.2445,-5.2373,-5.2373,-5.2445,-5.2445,-5.2499,-5.264,-5.2694,-5.2903,-5.3093,-5.3011,-5.2555,-5.2232,-5.1505,-5.1234,-5.1065,-5.0781,-5.0375,-4.9873,-4.9321,-4.8938,-4.8824,-4.8728,-4.855,-4.8564,-4.8497,-4.8446,-4.843,-4.7747,-4.7424,-4.7373,-4.6764,-4.6334,-4.6123,-4.5503,-4.5169,-4.4992,-4.4449,-4.4232,-4.4123,-4.4106,-4.4097,-4.4039,-4.3923,-4.3747,-4.3671,-4.3628,-4.3704,-4.3822,-4.3606,-4.3739,-4.3712,-4.3484,-4.3144,-4.2985,-4.2689,-4.2219,-4.1935,-4.1596,-4.1138,-4.0658,-4.0487,-4.0408,-4.0171,-4.0303,-4.0468,-4.0614,-4.071,-4.0806,-4.0853,-4.0901,-4.0901,-4.0901,-4.0948,-4.0871,-4.0776,-4.0728,-4.0776,-4.0758,-4.0662,-4.0614,-4.0566,-4.0566,-4.0597,-4.0597,-4.0645,-4.0566,-4.0566,-4.071,-4.0823,-4.0888,-4.084,-4.0776,-4.068,-4.0583,-4.0534,-5.5156,-5.4948,-5.4904,-5.4842,-5.478,-5.4448,-5.4175,-5.398,-5.3849,-5.3651,-5.3348,-5.311,-5.2903,-5.2711,-5.257,-5.2445,-5.2373,-5.2373,-5.2373,-5.2373,-5.2373,-5.2373,-5.2373,-5.2445,-5.2445,-5.257,-5.2624,-5.2694,-5.2972,-5.3041,-5.2941,-5.2505,-5.2083,-5.1881,-5.1712,-5.126,-5.0774,-5.0435,-4.9762,-4.9308,-4.9167,-4.8751,-4.8503,-4.8483,-4.8483,-4.8483,-4.845,-4.8225,-4.8105,-4.7851,-4.7345,-4.7049,-4.6724,-4.6074,-4.5679,-4.5502,-4.4809,-4.4417,-4.4202,-4.4105,-4.3881,-4.3671,-4.3492,-4.3372,-4.3355,-4.3295,-4.3372,-4.3509,-4.3568,-4.3687,-4.3839,-4.3747,-4.3605,-4.3478,-4.3205,-4.2656,-4.224,-4.1923,-4.1471,-4.1018,-4.0662,-4.0491,-4.017,-3.9884,-4.0037,-4.0155,-4.0238,-4.0337,-4.0419,-4.0468,-4.0468,-4.0468,-4.0468,-4.0468,-4.0387,-4.0337,-4.0337,-4.0288,-4.0288,-4.0288,-4.0271,-4.0288,-4.0271,-4.0271,-4.0271,-4.0271,-4.0271,-4.0288,-4.0387,-4.0534,-4.0583,-4.0534,-4.0436,-4.0288,-4.0238,-5.4974,-5.4797,-5.4717,-5.4717,-5.4655,-5.4367,-5.411,-5.398,-5.3783,-5.3517,-5.3179,-5.2972,-5.2764,-5.2624,-5.2445,-5.2373,-5.2373,-5.2373,-5.2373,-5.2373,-5.2373,-5.2373,-5.2373,-5.2445,-5.2445,-5.2499,-5.257,-5.264,-5.2764,-5.285,-5.28,-5.2754,-5.2623,-5.2472,-5.2186,-5.1531,-5.1045,-5.0877,-5.029,-4.9852,-4.9757,-4.9109,-4.8694,-4.8609,-4.8475,-4.8292,-4.8325,-4.8213,-4.8229,-4.8077,-4.7825,-4.7528,-4.7182,-4.6753,-4.6242,-4.5818,-4.5313,-4.471,-4.436,-4.3911,-4.3585,-4.3355,-4.3235,-4.3157,-4.3096,-4.3096,-4.3251,-4.3312,-4.3312,-4.3432,-4.3687,-4.3604,-4.363,-4.349,-4.3431,-4.2989,-4.2668,-4.2323,-4.1841,-4.1359,-4.102,-4.0601,-4.021,-3.9876,-3.9729,-3.9833,-3.9935,-4.0037,-4.0037,-4.007,-4.002,-4.002,-4.002,-4.002,-3.9969,-3.9969,-3.9986,-4.0037,-3.9986,-3.9969,-3.9969,-3.9969,-3.9986,-3.9986,-3.9969,-3.9969,-3.9969,-3.9986,-4.0138,-4.0238,-4.0238,-4.0238,-4.0138,-3.9986,-3.9986,-5.4869,-5.4797,-5.4575,-5.4512,-5.4448,-5.4303,-5.4093,-5.3915,-5.3717,-5.3433,-5.3195,-5.2972,-5.2764,-5.257,-5.2445,-5.2373,-5.2373,-5.2373,-5.2373,-5.2373,-5.2373,-5.2373,-5.2373,-5.2373,-5.2445,-5.2373,-5.2445,-5.2499,-5.264,-5.264,-5.2694,-5.2764,-5.263,-5.265,-5.2769,-5.215,-5.1798,-5.1648,-5.0793,-5.0442,-5.0175,-4.9542,-4.9144,-4.8961,-4.8546,-4.8247,-4.8298,-4.8149,-4.8116,-4.8065,-4.8032,-4.785,-4.7784,-4.706,-4.6682,-4.6551,-4.5733,-4.5013,-4.4292,-4.3539,-4.3244,-4.3129,-4.3052,-4.2974,-4.3052,-4.3052,-4.3052,-4.3113,-4.3113,-4.3113,-4.3235,-4.3328,-4.3388,-4.3443,-4.337,-4.328,-4.2891,-4.2733,-4.2219,-4.1833,-4.1259,-4.0729,-4.0317,-3.9947,-3.9601,-3.9573,-3.9677,-3.9729,-3.9677,-3.9625,-3.9556,-3.9556,-3.9556,-3.9556,-3.9556,-3.9609,-3.9677,-3.9677,-3.9661,-3.9609,-3.9592,-3.954,-3.9609,-3.9677,-3.9625,-3.9556,-3.9609,-3.9661,-3.9713,-3.9713,-3.9833,-3.9833,-3.9781,-3.9729,-3.9677,-5.4431,-5.4367,-5.4239,-5.4175,-5.411,-5.398,-5.3832,-5.3783,-5.3517,-5.3247,-5.2972,-5.2764,-5.264,-5.2516,-5.2445,-5.2373,-5.2373,-5.2373,-5.2373,-5.2373,-5.2373,-5.2373,-5.2373,-5.2373,-5.2373,-5.2373,-5.2373,-5.2373,-5.2445,-5.2428,-5.2373,-5.2373,-5.2357,-5.2428,-5.252,-5.2254,-5.2009,-5.1789,-5.1173,-5.0587,-5.0505,-4.9891,-4.948,-4.9447,-4.8861,-4.8547,-4.8464,-4.8249,-4.81,-4.8017,-4.8001,-4.8001,-4.8001,-4.7375,-4.7309,-4.7095,-4.6389,-4.544,-4.4659,-4.396,-4.3325,-4.3144,-4.2883,-4.2821,-4.2759,-4.2759,-4.2821,-4.2945,-4.2945,-4.299,-4.3113,-4.3178,-4.3239,-4.3235,-4.3152,-4.3196,-4.2983,-4.295,-4.273,-4.2336,-4.1839,-4.0961,-4.0409,-3.9858,-3.9483,-3.9218,-3.9239,-3.9292,-3.9292,-3.9131,-3.9061,-3.9077,-3.9077,-3.9077,-3.9131,-3.9239,-3.9239,-3.9239,-3.9185,-3.9061,-3.9061,-3.9169,-3.9169,-3.9239,-3.9185,-3.9131,-3.9185,-3.9239,-3.9131,-3.9131,-3.9345,-3.9573,-3.9573,-3.9537,-3.9432,-5.4175,-5.411,-5.398,-5.3915,-5.3849,-5.3766,-5.3651,-5.3517,-5.3315,-5.3041,-5.2834,-5.2624,-5.2499,-5.2445,-5.2373,-5.2373,-5.2373,-5.2373,-5.2373,-5.2373,-5.2373,-5.2373,-5.2373,-5.2373,-5.2373,-5.239,-5.2318,-5.2318,-5.2318,-5.223,-5.2158,-5.2013,-5.1868,-5.2069,-5.2197,-5.2036,-5.1964,-5.1816,-5.1366,-5.1146,-5.0933,-5.0468,-5.0009,-4.985,-4.9464,-4.8973,-4.8742,-4.848,-4.815,-4.8084,-4.8034,-4.8017,-4.7935,-4.7853,-4.7721,-4.7374,-4.6616,-4.5763,-4.5161,-4.448,-4.3977,-4.3717,-4.3006,-4.2666,-4.2571,-4.2634,-4.2696,-4.2759,-4.2821,-4.2883,-4.2945,-4.2965,-4.3027,-4.3023,-4.3035,-4.3019,-4.3064,-4.3015,-4.3026,-4.2627,-4.216,-4.1263,-4.0442,-3.9867,-3.9341,-3.9057,-3.886,-3.886,-3.8914,-3.8805,-3.875,-3.875,-3.8805,-3.886,-3.8914,-3.8914,-3.8914,-3.8805,-3.8805,-3.875,-3.8788,-3.8952,-3.8843,-3.8805,-3.886,-3.8914,-3.886,-3.886,-3.886,-3.8969,-3.9077,-3.9239,-3.9398,-3.9309,-3.9164,-5.4076,-5.3997,-5.3766,-5.3651,-5.3634,-5.3651,-5.345,-5.3195,-5.3179,-5.2972,-5.264,-5.2624,-5.2499,-5.2445,-5.2373,-5.2373,-5.2373,-5.2373,-5.2373,-5.2373,-5.2373,-5.2373,-5.2373,-5.239,-5.2302,-5.2247,-5.2175,-5.2102,-5.2102,-5.1941,-5.1868,-5.1794,-5.1721,-5.1778,-5.1778,-5.1778,-5.1721,-5.1729,-5.1606,-5.1402,-5.1255,-5.1001,-5.0634,-5.0373,-4.9965,-4.9501,-4.921,-4.8954,-4.8612,-4.8315,-4.8117,-4.8067,-4.7952,-4.7787,-4.7654,-4.7273,-4.6432,-4.6069,-4.5759,-4.5192,-4.4868,-4.4529,-4.3557,-4.299,-4.2652,-4.2684,-4.2634,-4.2634,-4.2696,-4.2634,-4.265,-4.2761,-4.2889,-4.2948,-4.3007,-4.299,-4.3035,-4.3019,-4.3019,-4.2769,-4.2277,-4.1557,-4.0672,-3.9977,-3.9462,-3.9135,-3.8867,-3.8655,-3.8711,-3.8711,-3.8655,-3.8694,-3.8694,-3.875,-3.875,-3.8694,-3.8694,-3.8655,-3.8694,-3.8694,-3.875,-3.875,-3.8694,-3.8639,-3.875,-3.875,-3.8694,-3.8711,-3.8766,-3.8821,-3.886,-3.8969,-3.9077,-3.8985,-3.8876,-5.329,-5.355,-5.3382,-5.3247,-5.311,-5.3093,-5.3025,-5.2972,-5.285,-5.2711,-5.2553,-5.2499,-5.2445,-5.2373,-5.2373,-5.2373,-5.2373,-5.2373,-5.2373,-5.2373,-5.2302,-5.2318,-5.2247,-5.2175,-5.2102,-5.2013,-5.1941,-5.1868,-5.1884,-5.1721,-5.1573,-5.1573,-5.1499,-5.1408,-5.1408,-5.1408,-5.1499,-5.1499,-5.1483,-5.1408,-5.1408,-5.1132,-5.1018,-5.0855,-5.0522,-5.0112,-4.9976,-4.9657,-4.9354,-4.8895,-4.8796,-4.863,-4.8017,-4.7787,-4.7571,-4.7302,-4.6819,-4.6568,-4.6455,-4.5905,-4.5516,-4.5386,-4.4609,-4.3962,-4.3492,-4.3071,-4.2716,-4.2603,-4.2587,-4.2571,-4.2571,-4.2682,-4.2778,-4.2808,-4.2821,-4.2805,-4.2805,-4.2867,-4.2867,-4.2798,-4.2325,-4.1868,-4.0971,-4.0261,-3.9764,-3.9341,-3.8943,-3.8699,-3.856,-3.856,-3.8616,-3.86,-3.86,-3.86,-3.8544,-3.8504,-3.8504,-3.8504,-3.8544,-3.8544,-3.8544,-3.8544,-3.8504,-3.8544,-3.86,-3.8544,-3.8504,-3.856,-3.8616,-3.856,-3.856,-3.8655,-3.8694,-3.8711,-3.8672,-5.2653,-5.2893,-5.3078,-5.2972,-5.285,-5.2781,-5.2694,-5.257,-5.257,-5.257,-5.2516,-5.2445,-5.2373,-5.2373,-5.2373,-5.239,-5.2247,-5.2247,-5.223,-5.2158,-5.223,-5.2086,-5.2013,-5.1941,-5.1924,-5.1778,-5.1721,-5.1647,-5.1647,-5.1499,-5.135,-5.1333,-5.1258,-5.1183,-5.1258,-5.1258,-5.1275,-5.1333,-5.1258,-5.1183,-5.1183,-5.1183,-5.1183,-5.1177,-5.0814,-5.075,-5.0713,-5.0331,-4.9994,-4.949,-4.9392,-4.8945,-4.8299,-4.8018,-4.7604,-4.7319,-4.6997,-4.688,-4.673,-4.6504,-4.6277,-4.605,-4.5581,-4.5063,-4.4383,-4.3848,-4.3201,-4.2684,-4.2619,-4.2571,-4.2571,-4.2571,-4.2634,-4.2634,-4.2634,-4.2634,-4.2634,-4.2634,-4.268,-4.271,-4.2418,-4.2061,-4.146,-4.0718,-4.0053,-3.9551,-3.9145,-3.8869,-3.861,-3.8448,-3.8448,-3.8448,-3.8448,-3.8448,-3.8391,-3.8391,-3.8391,-3.8448,-3.8448,-3.8448,-3.8391,-3.8391,-3.8448,-3.8448,-3.8391,-3.8391,-3.8448,-3.8391,-3.8448,-3.8391,-3.8391,-3.8504,-3.8544,-3.856,-3.8504,-5.21,-5.2118,-5.2602,-5.2694,-5.257,-5.2553,-5.2357,-5.2102,-5.2357,-5.2428,-5.2373,-5.2318,-5.2302,-5.223,-5.223,-5.2175,-5.2086,-5.2086,-5.2013,-5.1778,-5.1851,-5.1851,-5.1794,-5.1778,-5.1704,-5.1631,-5.1573,-5.1499,-5.1424,-5.135,-5.1258,-5.1183,-5.1183,-5.1183,-5.1183,-5.1183,-5.1258,-5.1258,-5.1258,-5.1183,-5.1183,-5.1183,-5.1183,-5.1183,-5.1129,-5.1115,-5.0936,-5.0736,-5.0594,-5.0165,-4.9806,-4.9425,-4.8795,-4.8264,-4.7783,-4.7335,-4.7098,-4.6961,-4.6876,-4.6747,-4.6779,-4.6585,-4.6277,-4.5824,-4.5176,-4.4415,-4.3702,-4.3103,-4.3022,-4.2796,-4.2747,-4.2603,-4.2571,-4.2571,-4.2571,-4.2571,-4.2571,-4.2571,-4.2634,-4.2664,-4.2599,-4.2242,-4.1983,-4.1257,-4.0772,-4.0043,-3.9363,-3.9072,-3.8812,-3.857,-3.8424,-3.8408,-3.8391,-3.8391,-3.8391,-3.8391,-3.8391,-3.8391,-3.8391,-3.8391,-3.8391,-3.8391,-3.8391,-3.8391,-3.8391,-3.8391,-3.8391,-3.8391,-3.8391,-3.8391,-3.8391,-3.8391,-3.8391,-3.8448,-3.8464,-5.0943,-5.1643,-5.2146,-5.223,-5.2247,-5.2086,-5.1924,-5.1868,-5.1924,-5.2013,-5.1941,-5.1924,-5.1924,-5.1997,-5.2013,-5.1941,-5.1868,-5.1868,-5.1851,-5.1778,-5.1778,-5.1631,-5.1573,-5.1557,-5.1483,-5.1333,-5.1258,-5.135,-5.1258,-5.1258,-5.1183,-5.1183,-5.1183,-5.1183,-5.1183,-5.1183,-5.1183,-5.1183,-5.1183,-5.1183,-5.1183,-5.1183,-5.1183,-5.1183,-5.121,-5.1343,-5.1288,-5.1434,-5.1273,-5.0995,-5.0916,-5.022,-4.9193,-4.8559,-4.8029,-4.7517,-4.7131,-4.6945,-4.6876,-4.6876,-4.6876,-4.6876,-4.6617,-4.6261,-4.5726,-4.4982,-4.4334,-4.3783,-4.3346,-4.3103,-4.2877,-4.2716,-4.2587,-4.2587,-4.2571,-4.2571,-4.2571,-4.2571,-4.2571,-4.2571,-4.2571,-4.2488,-4.2261,-4.1938,-4.1484,-4.0756,-3.9865,-3.9347,-3.912,-3.8861,-3.8521,-3.8456,-3.8408,-3.8391,-3.8391,-3.8391,-3.8391,-3.8391,-3.8391,-3.8391,-3.8391,-3.8391,-3.8391,-3.8391,-3.8391,-3.8391,-3.8391,-3.8391,-3.8391,-3.8391,-3.8391,-3.8391,-3.8391,-3.8391,-3.8391,-4.9991,-5.0574,-5.1305,-5.1734,-5.1908,-5.1868,-5.1794,-5.1647,-5.1647,-5.1647,-5.1557,-5.1704,-5.1778,-5.1778,-5.1778,-5.1704,-5.1704,-5.1631,-5.1557,-5.1557,-5.1557,-5.1499,-5.1424,-5.1333,-5.1333,-5.1183,-5.1183,-5.1183,-5.1183,-5.1183,-5.1183,-5.1183,-5.1183,-5.1183,-5.1183,-5.1183,-5.1183,-5.1183,-5.1183,-5.1183,-5.1183,-5.1183,-5.1183,-5.1183,-5.1258,-5.1408,-5.1557,-5.1704,-5.1783,-5.1569,-5.1359,-5.0648,-4.9637,-4.8803,-4.8322,-4.7809,-4.7342,-4.6876,-4.6909,-4.6892,-4.6892,-4.6876,-4.6876,-4.6504,-4.6504,-4.5807,-4.5208,-4.4674,-4.4253,-4.3978,-4.3428,-4.3218,-4.2846,-4.2763,-4.2619,-4.2571,-4.2571,-4.2571,-4.2571,-4.2571,-4.2571,-4.2539,-4.2439,-4.2407,-4.1938,-4.1436,-4.0545,-3.9865,-3.9573,-3.9194,-3.8837,-3.8521,-3.8472,-3.8424,-3.8391,-3.8391,-3.8391,-3.8391,-3.8391,-3.8391,-3.8391,-3.8391,-3.8391,-3.8391,-3.8391,-3.8391,-3.8391,-3.8391,-3.8391,-3.8391,-3.8391,-3.8391,-3.8391,-3.8391,-3.8391,-4.9293,-4.951,-5.0492,-5.1267,-5.1729,-5.1704,-5.1647,-5.1499,-5.1424,-5.135,-5.1258,-5.1557,-5.1704,-5.1704,-5.1704,-5.1573,-5.1499,-5.1499,-5.1333,-5.1258,-5.1258,-5.1258,-5.1258,-5.1258,-5.1183,-5.1183,-5.1183,-5.1183,-5.1183,-5.1183,-5.1183,-5.1183,-5.1183,-5.1183,-5.1183,-5.1183,-5.1183,-5.1183,-5.1183,-5.1183,-5.1183,-5.1183,-5.1183,-5.1183,-5.1258,-5.135,-5.1499,-5.1647,-5.1868,-5.1816,-5.1581,-5.0938,-5.0204,-4.9386,-4.8838,-4.8355,-4.7647,-4.7281,-4.7119,-4.6989,-4.6925,-4.6876,-4.6876,-4.6876,-4.6844,-4.6552,-4.5953,-4.5597,-4.5176,-4.4674,-4.4123,-4.3735,-4.3347,-4.2941,-4.2844,-4.2619,-4.2603,-4.2603,-4.2603,-4.2587,-4.2571,-4.2571,-4.2571,-4.2618,-4.2342,-4.1857,-4.1322,-4.0707,-4.0167,-3.9625,-3.9154,-3.8805,-3.857,-3.8505,-3.8424,-3.8391,-3.8391,-3.8391,-3.8391,-3.8391,-3.8391,-3.8391,-3.8391,-3.8391,-3.8391,-3.8391,-3.8391,-3.8391,-3.8391,-3.8391,-3.8391,-3.8391,-3.8391,-3.8391,-3.8391,-4.8945,-4.9849,-5.0495,-5.1034,-5.1492,-5.1408,-5.1258,-5.1258,-5.1258,-5.1258,-5.1258,-5.1258,-5.1333,-5.1333,-5.1333,-5.1258,-5.1333,-5.1275,-5.1258,-5.1183,-5.1183,-5.1183,-5.1183,-5.1183,-5.1183,-5.1183,-5.1183,-5.1183,-5.1183,-5.1183,-5.1183,-5.1183,-5.1183,-5.1183,-5.1183,-5.1183,-5.1183,-5.1183,-5.1183,-5.1183,-5.1183,-5.1183,-5.1183,-5.1183,-5.1183,-5.135,-5.1424,-5.1515,-5.1663,-5.1745,-5.1743,-5.1251,-5.0664,-5.004,-4.961,-4.8985,-4.8275,-4.7799,-4.7605,-4.7265,-4.7135,-4.6876,-4.6876,-4.6876,-4.686,-4.6844,-4.6471,-4.6407,-4.5953,-4.5338,-4.4818,-4.4658,-4.4302,-4.3622,-4.3281,-4.2974,-4.2812,-4.2763,-4.2747,-4.2636,-4.2571,-4.2571,-4.2571,-4.2571,-4.2618,-4.2164,-4.1886,-4.1302,-4.0978,-4.0274,-3.9552,-3.9154,-3.878,-3.8521,-3.8391,-3.8391,-3.8391,-3.8391,-3.8391,-3.8391,-3.8391,-3.8391,-3.8391,-3.8391,-3.8391,-3.8391,-3.8391,-3.8391,-3.8391,-3.8391,-3.8391,-3.8391,-3.8391,-3.8391,-3.8391]}]]